[[{"header":{"parameterUnit":"m.s-1","parameterCategory":1,"la1":30.6,"la2":28.766,"lo1":-90.7593,"lo2":-88.6598,"dy":0.0162,"dx":0.0183,"nx":116,"ny":114,"refTime":"2023-08-26T12:00:00:Z","depth":0,"parameterNumber":2,"parameterNumberName":"U-component_of_WINDS"},"data":[0.0,0.0,0.0,0.0,0.0,0.0,0.0,0.0,0.0,0.0,0.0,0.0,0.0,0.0,0.0,0.0,0.0,0.0,0.0,0.0,0.0,0.0,0.0,0.0,0.0,0.0,0.0,0.0,0.0,0.0,0.0,0.0,0.0,0.0,0.0,0.0,0.0,0.0,0.0,0.0,0.0,0.0,0.0,0.0,0.0,0.0,0.0,0.0,0.0,0.0,0.0,0.0,0.0,0.0,0.0,0.0,0.0,0.0,0.0,0.0,0.0,0.0,0.0,0.0,0.0,0.0,0.0,0.0,0.0,0.0,0.0,0.0,0.0,0.0,0.0,0.0,0.0,0.0,0.0,0.0,0.0,0.0,0.0,0.0,0.0,0.0,0.0,0.0,0.0,0.0,0.0,0.0,0.0,0.0,0.0,0.0,0.0,0.0,0.0,0.0,0.0,0.0,0.0,0.0,0.0,0.0,0.0,0.0,0.0,0.0,0.0,0.0,0.0,0.0,0.0,0.0,0.0,0.0,0.0,0.0,0.0,0.0,0.0,0.0,0.0,0.0,0.0,0.0,0.0,0.0,0.0,0.0,0.0,0.0,0.0,0.0,0.0,0.0,0.0,0.0,0.0,0.0,0.0,0.0,0.0,0.0,0.0,0.0,0.0,0.0,0.0,0.0,0.0,0.0,0.0,0.0,0.0,0.0,0.0,0.0,0.0,0.0,0.0,0.0,0.0,0.0,0.0,0.0,0.0,0.0,0.0,0.0,0.0,0.0,0.0,0.0,0.0,0.0,0.0,0.0,0.0,0.0,0.0,0.0,0.0,0.0,0.0,0.0,0.0,0.0,0.0,0.0,0.0,0.0,0.0,0.0,0.0,0.0,0.0,0.0,0.0,0.0,0.0,0.0,0.0,0.0,0.0,0.0,0.0,0.0,0.0,0.0,0.0,0.0,0.0,0.0,0.0,0.0,0.0,0.0,0.0,0.0,0.0,0.0,0.0,0.0,0.0,0.0,0.0,0.0,0.0,0.0,0.0,0.0,0.0,0.0,0.0,0.0,0.0,0.0,0.0,0.0,0.0,0.0,0.0,0.0,0.0,0.0,0.0,0.0,0.0,0.0,0.0,0.0,0.0,0.0,0.0,0.0,0.0,0.0,0.0,0.0,0.0,0.0,0.0,0.0,0.0,0.0,0.0,0.0,0.0,0.0,0.0,0.0,0.0,0.0,0.0,0.0,0.0,0.0,0.0,0.0,0.0,0.0,0.0,0.0,0.0,0.0,0.0,0.0,0.0,0.0,0.0,0.0,0.0,0.0,0.0,0.0,0.0,0.0,0.0,0.0,0.0,0.0,0.0,0.0,0.0,0.0,0.0,0.0,0.0,0.0,0.0,0.0,0.0,0.0,0.0,0.0,0.0,0.0,0.0,0.0,0.0,0.0,0.0,0.0,0.0,0.0,0.0,0.0,0.0,0.0,0.0,0.0,0.0,0.0,0.0,0.0,0.0,0.0,0.0,0.0,0.0,0.0,0.0,0.0,0.0,0.0,0.0,0.0,0.0,0.0,0.0,0.0,0.0,0.0,0.0,0.0,0.0,0.0,0.0,0.0,0.0,0.0,0.0,0.0,0.0,0.0,0.0,0.0,0.0,0.0,0.0,0.0,0.0,0.0,0.0,0.0,0.0,0.0,0.0,0.0,0.0,0.0,0.0,0.0,0.0,0.0,0.0,0.0,0.0,0.0,0.0,0.0,0.0,0.0,0.0,0.0,0.0,0.0,0.0,0.0,0.0,0.0,0.0,0.0,0.0,0.0,0.0,0.0,0.0,0.0,0.0,0.0,0.0,0.0,0.0,0.0,0.0,0.0,0.0,0.0,0.0,0.0,0.0,0.0,0.0,0.0,0.0,0.0,0.0,0.0,0.0,0.0,0.0,0.0,0.0,0.0,0.0,0.0,0.0,0.0,0.0,0.0,0.0,0.0,0.0,0.0,0.0,0.0,0.0,0.0,0.0,0.0,0.0,0.0,0.0,0.0,0.0,0.0,0.0,0.0,0.0,0.0,0.0,0.0,0.0,0.0,0.0,0.0,0.0,0.0,0.0,0.0,0.0,0.0,0.0,0.0,0.0,0.0,0.0,0.0,0.0,0.0,0.0,0.0,0.0,0.0,0.0,0.0,0.0,0.0,0.0,0.0,0.0,0.0,0.0,0.0,0.0,0.0,0.0,0.0,0.0,0.0,0.0,0.0,0.0,0.0,0.0,0.0,0.0,0.0,0.0,0.0,0.0,0.0,0.0,0.0,0.0,0.0,0.0,0.0,0.0,0.0,0.0,0.0,0.0,0.0,0.0,0.0,0.0,0.0,0.0,0.0,0.0,0.0,0.0,0.0,0.0,0.0,0.0,0.0,0.0,0.0,0.0,0.0,0.0,0.0,0.0,0.0,0.0,0.0,0.0,0.0,0.0,0.0,0.0,0.0,0.0,0.0,0.0,0.0,0.0,0.0,0.0,0.0,0.0,0.0,0.0,0.0,0.0,0.0,0.0,0.0,0.0,0.0,0.0,0.0,0.0,0.0,0.0,0.0,0.0,0.0,0.0,0.0,0.0,0.0,0.0,0.0,0.0,0.0,0.0,0.0,0.0,0.0,0.0,0.0,0.0,0.0,0.0,0.0,0.0,0.0,0.0,0.0,0.0,0.0,0.0,0.0,0.0,0.0,0.0,0.0,0.0,0.0,0.0,0.0,0.0,0.0,0.0,0.0,0.0,0.0,0.0,0.0,0.0,0.0,0.0,0.0,0.0,0.0,0.0,0.0,0.0,0.0,0.0,0.0,0.0,0.0,0.0,0.0,0.0,0.0,0.0,0.0,0.0,0.0,0.0,0.0,0.0,0.0,0.0,0.0,0.0,0.0,0.0,0.0,0.0,0.0,0.0,0.0,0.0,0.0,0.0,0.0,0.0,0.0,0.0,0.0,0.0,0.0,0.0,0.0,0.0,0.0,0.0,0.0,0.0,0.0,0.0,0.0,0.0,0.0,0.0,0.0,0.0,0.0,0.0,0.0,0.0,0.0,0.0,0.0,0.0,0.0,0.0,0.0,0.0,0.0,0.0,0.0,0.0,0.0,0.0,0.0,0.0,0.0,0.0,0.0,0.0,0.0,0.0,0.0,0.0,0.0,0.0,0.0,0.0,0.0,0.0,0.0,0.0,0.0,0.0,0.0,0.0,0.0,0.0,0.0,0.0,0.0,0.0,0.0,0.0,0.0,0.0,0.0,0.0,0.0,0.0,0.0,0.0,0.0,0.0,0.0,0.0,0.0,0.0,0.0,0.0,0.0,0.0,0.0,0.0,0.0,0.0,0.0,0.0,0.0,0.0,0.0,0.0,0.0,0.0,0.0,0.0,0.0,0.0,0.0,0.0,0.0,0.0,0.0,0.0,0.0,0.0,0.0,0.0,0.0,0.0,0.0,0.0,0.0,0.0,0.0,0.0,0.0,0.0,0.0,0.0,0.0,0.0,0.0,0.0,0.0,0.0,0.0,0.0,0.0,0.0,0.0,0.0,0.0,0.0,0.0,0.0,0.0,0.0,0.0,0.0,0.0,0.0,0.0,0.0,0.0,0.0,0.0,0.0,0.0,0.0,0.0,0.0,0.0,0.0,0.0,0.0,0.0,0.0,0.0,0.0,0.0,0.0,0.0,0.0,0.0,0.0,0.0,0.0,0.0,0.0,0.0,0.0,0.0,0.0,0.0,0.0,0.0,0.0,0.0,0.0,0.0,0.0,0.0,0.0,0.0,0.0,0.0,0.0,0.0,0.0,0.0,0.0,0.0,0.0,0.0,0.0,0.0,0.0,0.0,0.0,0.0,0.0,0.0,0.0,0.0,0.0,0.0,0.0,0.0,0.0,0.0,0.0,0.0,0.0,0.0,0.0,0.0,0.0,0.0,0.0,0.0,0.0,0.0,0.0,0.0,0.0,0.0,0.0,0.0,0.0,0.0,0.0,0.0,0.0,0.0,0.0,0.0,0.0,0.0,0.0,0.0,0.0,0.0,0.0,0.0,0.0,0.0,0.0,0.0,0.0,0.0,0.0,0.0,0.0,0.0,0.0,0.0,0.0,0.0,0.0,0.0,0.0,0.0,0.0,0.0,0.0,0.0,0.0,0.0,0.0,0.0,0.0,0.0,0.0,0.0,0.0,0.0,0.0,0.0,0.0,0.0,0.0,0.0,0.0,0.0,0.0,0.0,0.0,0.0,0.0,0.0,0.0,0.0,0.0,0.0,0.0,0.0,0.0,0.0,0.0,0.0,0.0,0.0,0.0,0.0,0.0,0.0,0.0,0.0,0.0,0.0,0.0,0.0,0.0,0.0,0.0,0.0,0.0,0.0,0.0,0.0,0.0,0.0,0.0,0.0,0.0,0.0,0.0,0.0,0.0,0.0,0.0,0.0,0.0,0.0,0.0,0.0,0.0,0.0,0.0,0.0,0.0,0.0,0.0,0.0,0.0,0.0,0.0,0.0,0.0,0.0,0.0,0.0,0.0,0.0,0.0,0.0,0.0,0.0,0.0,0.0,0.0,0.0,0.0,0.0,0.0,0.0,0.0,0.0,0.0,0.0,0.0,0.0,0.0,0.0,0.0,0.0,0.0,0.0,0.0,0.0,0.0,0.0,0.0,0.0,0.0,0.0,0.0,0.0,0.0,0.0,0.0,0.0,0.0,0.0,0.0,0.0,0.0,0.0,0.0,0.0,0.0,0.0,0.0,0.0,0.0,0.0,0.0,0.0,0.0,0.0,0.0,0.0,0.0,0.0,0.0,0.0,0.0,0.0,0.0,0.0,0.0,0.0,0.0,0.0,0.0,0.0,0.0,0.0,0.0,0.0,0.0,0.0,0.0,0.0,0.0,0.0,0.0,0.0,0.0,0.0,0.0,0.0,0.0,0.0,0.0,0.0,0.0,0.0,0.0,0.0,0.0,0.0,0.0,0.0,0.0,0.0,0.0,0.0,0.0,0.0,0.0,0.0,0.0,0.0,0.0,0.0,0.0,0.0,0.0,0.0,0.0,0.0,0.0,0.0,0.0,0.0,0.0,0.0,0.0,0.0,0.0,0.0,0.0,0.0,0.0,0.0,0.0,0.0,0.0,0.0,0.0,0.0,0.0,0.0,0.0,0.0,0.0,0.0,0.0,0.0,0.0,0.0,0.0,0.0,0.0,0.0,0.0,0.0,0.0,0.0,0.0,0.0,0.0,0.0,0.0,0.0,0.0,0.0,0.0,0.0,0.0,0.0,0.0,0.0,0.0,0.0,0.0,0.0,0.0,0.0,0.0,0.0,0.0,0.0,0.0,0.0,0.0,0.0,0.0,0.0,0.0,0.0,0.0,0.0,0.0,0.0,0.0,0.0,0.0,0.0,0.0,0.0,0.0,0.0,0.0,0.0,0.0,0.0,0.0,0.0,0.0,0.0,0.0,0.0,0.0,0.0,0.0,0.0,0.0,0.0,0.0,0.0,0.0,0.0,0.0,0.0,0.0,0.0,0.0,0.0,0.0,0.0,0.0,0.0,0.0,0.0,0.0,0.0,0.0,0.0,0.0,0.0,0.0,0.0,0.0,0.0,0.0,0.0,0.0,0.0,0.0,0.0,0.0,0.0,0.0,0.0,0.0,0.0,0.0,0.0,0.0,0.0,0.0,0.0,0.0,0.0,0.0,0.0,0.0,0.0,0.0,0.0,0.0,0.0,0.0,0.0,0.0,0.0,0.0,0.0,0.0,0.0,0.0,0.0,0.0,0.0,0.0,0.0,0.0,0.0,0.0,0.0,0.0,0.0,0.0,0.0,0.0,0.0,0.0,0.0,0.0,0.0,0.0,0.0,0.0,0.0,0.0,0.0,0.0,0.0,0.0,0.0,0.0,0.0,0.0,0.0,0.0,0.0,0.0,0.0,0.0,0.0,0.0,0.0,0.0,0.0,0.0,0.0,0.0,0.0,0.0,0.0,0.0,0.0,0.0,0.0,0.0,0.0,0.0,0.0,0.0,0.0,0.0,0.0,0.0,0.0,0.0,0.0,0.0,0.0,0.0,0.0,0.0,0.0,0.0,0.0,0.0,0.0,3.1129,3.2233,0.0,0.0,0.0,0.0,0.0,0.0,0.0,0.0,0.0,0.0,0.0,0.0,0.0,0.0,0.0,0.0,0.0,0.0,0.0,0.0,0.0,0.0,0.0,0.0,0.0,0.0,0.0,0.0,0.0,0.0,0.0,0.0,0.0,0.0,0.0,0.0,0.0,0.0,2.4229,2.2784,2.1847,2.2026,2.2902,2.4331,0.0,0.0,0.0,0.0,0.0,0.0,0.0,0.0,0.0,0.0,0.0,0.0,0.0,0.0,0.0,0.0,0.0,0.0,0.0,0.0,0.0,0.0,0.0,0.0,0.0,0.0,0.0,0.0,0.0,0.0,0.0,0.0,0.0,0.0,0.0,0.0,0.0,0.0,0.0,0.0,0.0,0.0,0.0,0.0,0.0,0.0,0.0,0.0,0.0,0.0,0.0,0.0,0.0,0.0,0.0,0.0,0.0,0.0,0.0,0.0,0.0,0.0,0.0,0.0,0.0,0.0,0.0,0.0,0.0,0.0,2.8891,3.0125,0.0,0.0,0.0,0.0,0.0,0.0,0.0,0.0,0.0,0.0,0.0,0.0,0.0,0.0,0.0,0.0,0.0,0.0,0.0,0.0,0.0,0.0,0.0,0.0,2.5017,2.627,2.6573,0.0,0.0,0.0,0.0,0.0,0.0,0.0,0.0,2.5981,2.5763,2.6067,2.2788,2.0361,1.8752,1.7964,1.8668,2.0696,2.183,0.0,0.0,0.0,0.0,0.0,0.0,0.0,0.0,0.0,0.0,0.0,0.0,0.0,0.0,0.0,0.0,0.0,0.0,0.0,0.0,0.0,0.0,0.0,0.0,0.0,0.0,0.0,0.0,0.0,0.0,0.0,0.0,0.0,0.0,0.0,0.0,0.0,0.0,0.0,0.0,0.0,0.0,0.0,0.0,0.0,0.0,0.0,0.0,0.0,0.0,0.0,0.0,0.0,0.0,0.0,0.0,0.0,0.0,0.0,0.0,0.0,0.0,0.0,2.3942,2.3167,2.2671,2.1729,2.164,2.239,2.561,2.6969,2.6866,2.6733,0.0,0.0,0.0,0.0,0.0,0.0,0.0,0.0,0.0,0.0,0.0,0.0,0.0,0.0,0.0,0.0,0.0,0.0,0.0,0.0,0.0,2.4133,2.4639,2.5026,2.605,2.6521,0.0,0.0,0.0,0.0,0.0,0.0,2.6691,2.5981,2.4929,2.3578,1.9802,1.7091,1.5479,1.4626,1.389,1.335,1.6974,1.9044,1.9807,0.0,0.0,0.0,0.0,0.0,0.0,0.0,0.0,0.0,0.0,0.0,0.0,0.0,0.0,0.0,0.0,0.0,0.0,0.0,0.0,0.0,0.0,0.0,0.0,0.0,0.0,0.0,0.0,0.0,0.0,0.0,0.0,0.0,0.0,0.0,0.0,0.0,0.0,0.0,0.0,0.0,3.0104,2.887,0.0,0.0,0.0,0.0,0.0,0.0,0.0,0.0,0.0,0.0,0.0,0.0,0.0,2.5745,2.6211,2.4061,2.2628,2.1897,2.0452,1.9169,1.8001,1.7843,1.7847,1.7962,1.8469,0.0,2.4296,2.3687,0.0,0.0,0.0,0.0,0.0,0.0,0.0,0.0,0.0,0.0,0.0,0.0,0.0,0.0,0.0,0.0,0.0,0.0,0.0,0.0,0.0,2.3701,2.3768,2.4398,2.4362,2.4369,2.4516,0.0,0.0,0.0,0.0,2.6436,2.6691,2.5665,2.357,2.0396,1.8214,1.567,1.2862,1.1939,1.088,0.9897,1.1569,1.3705,1.6063,1.6766,0.0,0.0,0.0,0.0,0.0,0.0,0.0,0.0,0.0,0.0,0.0,0.0,0.0,0.0,0.0,0.0,0.0,0.0,0.0,0.0,0.0,0.0,0.0,0.0,0.0,0.0,0.0,0.0,0.0,0.0,0.0,0.0,0.0,0.0,0.0,0.0,0.0,0.0,0.0,3.0549,2.9486,2.8825,2.9053,2.9103,0.0,0.0,0.0,0.0,0.0,0.0,0.0,0.0,0.0,2.5416,2.4073,2.3161,2.2775,2.1241,2.0002,1.9068,1.755,1.6307,1.5419,1.4993,1.4773,1.4687,1.4735,1.5908,1.7792,1.9221,2.0341,2.1318,0.0,0.0,0.0,0.0,2.6929,2.6987,0.0,0.0,0.0,0.0,0.0,0.0,0.0,0.0,0.0,0.0,0.0,0.0,2.3661,2.33,2.3112,2.3449,2.2848,2.2624,2.3136,2.3196,0.0,0.0,2.5835,2.6104,2.6315,2.4418,2.1713,1.8236,1.6584,1.3997,1.0699,0.9656,0.8574,0.7403,0.726,0.9174,1.2456,1.3171,1.4615,1.6558,0.0,0.0,0.0,0.0,0.0,0.0,0.0,0.0,0.0,0.0,0.0,0.0,0.0,0.0,0.0,0.0,0.0,0.0,0.0,0.0,0.0,0.0,0.0,0.0,0.0,0.0,0.0,0.0,0.0,0.0,0.0,0.0,0.0,0.0,0.0,0.0,0.0,2.9869,2.8958,2.8758,2.8112,2.7664,0.0,0.0,0.0,0.0,0.0,0.0,2.6411,2.5088,2.3831,2.2702,2.1563,2.0521,1.9597,1.8398,1.728,1.621,1.4821,1.3829,1.3168,1.2618,1.2342,1.224,1.235,1.2334,1.249,1.5498,1.7081,1.7767,2.0084,2.1289,2.1885,2.3513,2.3955,2.3687,0.0,0.0,0.0,0.0,0.0,0.0,0.0,0.0,0.0,0.0,0.0,2.2168,2.1787,2.2881,2.3095,2.1663,2.2143,2.2499,2.2526,2.2551,2.3075,2.4228,2.5384,2.5762,2.5297,2.1599,1.9167,1.8124,1.425,1.1248,0.909,0.8115,0.6717,0.5097,0.5053,0.6637,0.9254,0.9432,1.0697,1.2755,1.366,0.0,0.0,0.0,0.0,0.0,0.0,0.0,0.0,0.0,0.0,0.0,0.0,0.0,0.0,0.0,0.0,0.0,0.0,0.0,0.0,0.0,0.0,0.0,0.0,0.0,0.0,0.0,0.0,0.0,0.0,0.0,0.0,0.0,0.0,0.0,0.0,0.0,0.0,2.747,2.6406,0.0,0.0,0.0,0.0,2.5581,2.4943,2.4536,2.4353,2.2614,2.1574,2.1486,1.8978,1.7622,1.7526,1.5405,1.396,1.3142,1.2342,1.1516,1.0744,1.0744,1.0744,1.0737,1.0744,1.0744,1.094,1.3538,1.5005,1.5741,1.7502,1.8501,1.9009,1.9254,1.9306,1.925,0.0,0.0,0.0,0.0,0.0,0.0,0.0,0.0,0.0,2.2563,2.2563,2.2699,2.3039,2.2399,2.1637,2.0888,1.9757,1.9128,1.919,1.9239,2.0232,2.2509,2.3369,2.3665,2.3396,2.0505,1.8037,1.6087,1.3554,1.1112,0.8839,0.8514,0.7594,0.6169,0.648,0.6807,0.7192,0.7601,0.8472,0.974,1.1184,1.3663,0.0,0.0,0.0,0.0,0.0,0.0,0.0,0.0,0.0,0.0,0.0,0.0,0.0,0.0,0.0,0.0,0.0,0.0,0.0,0.0,0.0,0.0,0.0,0.0,0.0,0.0,0.0,0.0,0.0,0.0,0.0,0.0,0.0,0.0,0.0,0.0,0.0,2.7406,2.5863,0.0,2.4347,2.3817,2.3501,2.3484,2.2409,2.1718,2.1693,2.0342,1.9115,1.8148,1.6796,1.5578,1.4557,1.3288,1.2472,1.2174,1.1399,1.0863,1.0624,1.0624,1.0301,0.9786,1.0364,1.0405,1.0124,1.1824,1.2609,1.296,1.4602,1.5377,1.5531,1.5505,1.6097,1.6647,0.0,0.0,0.0,0.0,0.0,0.0,0.0,0.0,2.2695,2.2695,2.2797,2.2963,2.3261,2.2345,2.1357,2.0526,1.877,1.7818,1.7952,1.7753,1.8687,2.1036,2.1657,2.1855,2.1773,1.8955,1.657,1.4725,1.2733,1.0766,0.8733,0.8733,0.8091,0.6981,0.729,0.7183,0.6715,0.7248,0.7427,0.7482,0.8954,1.1303,1.4087,0.0,0.0,0.0,0.0,0.0,0.0,0.0,0.0,0.0,0.0,0.0,0.0,0.0,0.0,0.0,0.0,0.0,0.0,0.0,0.0,0.0,0.0,0.0,0.0,0.0,0.0,0.0,0.0,0.0,0.0,0.0,0.0,0.0,0.0,2.9321,2.7972,2.7375,2.5242,2.3583,2.2995,2.1864,2.1109,2.1133,1.9813,1.9068,1.9296,1.7901,1.6607,1.5595,1.4615,1.3614,1.2634,1.1779,1.1406,1.1413,1.0863,1.0624,1.0624,1.0624,1.0301,0.9786,1.0364,1.04,1.0207,1.1031,1.1483,1.17,1.294,1.3402,1.3395,1.3345,1.3918,1.4536,0.0,0.0,0.0,0.0,0.0,0.0,0.0,2.2554,2.2721,2.2703,2.3021,2.2937,2.2245,2.2721,2.2344,2.0557,1.9427,1.8863,1.8956,1.8459,1.8669,1.9911,2.036,2.0548,2.0411,1.6809,1.4677,1.4064,1.1757,0.9946,0.8622,0.8622,0.8132,0.7167,0.7321,0.7547,0.7804,0.8414,0.758,0.5974,0.6996,0.8578,1.0628,0.0,0.0,0.0,0.0,0.0,0.0,0.0,0.0,0.0,0.0,0.0,0.0,0.0,0.0,0.0,0.0,0.0,0.0,0.0,0.0,0.0,0.0,0.0,0.0,0.0,0.0,0.0,0.0,0.0,0.0,0.0,0.0,0.0,3.0108,2.9003,2.7968,2.7345,2.45,2.2296,2.168,1.983,1.8679,1.8596,1.7181,1.6605,1.7278,1.5262,1.4046,1.4046,1.2594,1.1772,1.1772,1.0996,1.0638,1.0638,1.0645,1.0651,1.0651,1.0701,1.0701,1.0708,1.0701,1.087,1.1168,1.1391,1.168,1.2009,1.2587,1.2808,1.2808,1.2732,1.2732,1.2692,0.0,0.0,0.0,0.0,0.0,0.0,0.0,2.2747,2.3106,2.3249,2.3569,2.3712,2.3491,2.2954,2.2051,2.073,1.9419,1.857,1.8432,1.7483,1.7521,1.8965,1.9648,1.9426,1.828,1.5712,1.3795,1.272,1.127,1.0299,0.9687,0.9687,0.9419,0.8984,0.9194,0.9196,0.9051,0.9371,0.9186,0.8665,0.8952,1.0253,1.2159,0.0,0.0,0.0,0.0,0.0,0.0,0.0,0.0,0.0,0.0,0.0,0.0,0.0,0.0,0.0,0.0,0.0,0.0,0.0,0.0,0.0,0.0,0.0,0.0,0.0,0.0,0.0,0.0,0.0,0.0,0.0,2.9297,2.9165,2.9977,2.8848,2.7734,2.723,2.512,2.3329,2.2342,2.0066,1.8419,1.7915,1.5944,1.4866,1.5061,1.3972,1.3036,1.2472,1.2004,1.1531,1.0926,1.089,1.0875,1.0875,1.181,1.2248,1.2307,1.2629,1.2964,1.3259,1.2933,1.3097,1.3723,1.375,1.3576,1.3129,1.2654,1.2425,1.2344,1.1658,1.1352,1.1446,0.0,0.0,0.0,0.0,0.0,0.0,0.0,2.2824,2.327,2.3473,2.3912,2.4192,2.4136,2.3379,2.2383,2.1266,2.0283,1.9365,1.8548,1.7863,1.7857,1.8668,1.8775,1.8121,1.6546,1.4639,1.3119,1.2049,1.1073,1.0408,1.0114,1.0114,1.02,1.039,1.0753,1.1024,1.1218,1.171,1.1703,1.1399,1.1623,1.2017,1.2482,1.2826,1.3523,1.43,1.4961,1.4918,1.4772,1.6142,0.0,0.0,0.0,0.0,0.0,0.0,0.0,0.0,0.0,0.0,0.0,0.0,0.0,0.0,0.0,0.0,0.0,0.0,0.0,0.0,0.0,0.0,0.0,0.0,2.8133,2.7745,2.8395,2.7948,2.7135,2.6073,2.4934,2.3553,2.1871,1.9978,1.8371,1.7202,1.5634,1.4505,1.3909,1.3317,1.2766,1.2255,1.2255,1.2255,1.2134,1.2312,1.2409,1.2409,1.3134,1.3502,1.3494,1.3802,1.4013,1.4271,1.3988,1.4222,1.4678,1.4678,1.4555,0.0,0.0,0.0,0.0,0.0,1.1671,1.1564,0.0,0.0,0.0,0.0,0.0,0.0,0.0,2.2824,2.3293,2.3515,2.4118,2.4489,2.4391,2.3878,2.3102,2.2019,2.1585,2.0763,1.9313,1.922,1.9067,1.8655,1.8004,1.6866,1.5215,1.3743,1.2597,1.17,1.094,1.0483,1.0282,1.0316,1.0802,1.1578,1.2035,1.2814,1.3766,1.4454,1.4495,1.4048,1.4599,1.3853,1.2373,1.2565,1.2439,1.221,1.2325,1.1961,1.1565,1.248,0.0,0.0,0.0,0.0,0.0,0.0,0.0,0.0,0.0,0.0,0.0,0.0,0.0,0.0,0.0,0.0,0.0,0.0,0.0,0.0,0.0,0.0,0.0,0.0,2.6971,2.6102,2.6022,2.6458,2.6215,2.4655,2.4337,2.3325,2.1021,1.9995,1.8707,1.6871,1.6069,1.5032,1.3738,1.327,0.0,0.0,0.0,1.3435,1.4279,1.4321,1.4346,1.4346,1.4512,1.4537,1.4537,1.4626,1.4701,1.4735,1.4692,1.4814,1.5087,1.5087,1.5221,1.5267,1.4576,1.3918,1.3413,1.3413,1.3064,1.2659,0.0,0.0,0.0,0.0,0.0,0.0,0.0,2.2824,2.3343,2.3706,2.4327,2.4766,2.486,2.4199,2.3469,2.2752,2.2521,2.2041,2.1218,2.0712,1.986,1.849,1.7927,1.6581,1.4358,1.3484,1.2406,1.1156,1.0803,1.0892,1.1505,1.1777,1.2396,1.3151,1.3646,1.4065,1.4504,1.5013,1.5427,1.5753,1.626,1.5388,1.3795,1.4313,1.3916,1.3199,1.3409,1.2152,1.0505,1.1435,1.1697,1.1877,1.3194,1.5184,0.0,0.0,0.0,0.0,0.0,0.0,0.0,0.0,0.0,0.0,0.0,0.0,0.0,0.0,0.0,0.0,0.0,0.0,0.0,2.615,2.5441,2.4756,2.4195,2.4591,2.4934,2.5044,2.4641,2.3785,2.2298,2.1475,2.0213,1.8113,1.7053,1.6132,1.514,1.4433,1.4024,1.4024,1.4024,1.4148,1.4279,1.4497,1.4647,1.4655,0.0,0.0,1.6187,1.6579,1.6959,1.7254,1.6921,1.7007,1.7387,1.7387,1.6927,1.6219,1.538,1.4953,1.48,1.48,1.4712,1.4665,0.0,0.0,0.0,0.0,0.0,0.0,0.0,2.2824,2.3348,2.3746,2.4393,2.4855,2.4986,2.4429,2.3747,2.2975,2.2596,2.2277,2.2084,2.1797,2.0854,1.9132,1.8419,1.7019,1.4736,1.397,1.2927,1.1623,1.1917,1.218,1.2345,1.3024,1.3908,1.4876,1.5344,1.5943,1.6673,1.7151,1.7284,1.7311,1.777,1.7302,1.6242,1.5877,1.5181,1.4334,1.3963,1.2619,1.1053,1.152,1.1641,1.1798,1.2919,1.4254,1.5729,0.0,0.0,0.0,0.0,0.0,0.0,0.0,0.0,0.0,0.0,0.0,0.0,0.0,0.0,2.8,2.707,0.0,2.5257,2.464,2.4007,2.3468,2.3137,2.3051,2.3404,2.4292,2.4389,2.3788,2.2232,2.192,2.098,1.9076,1.8408,1.7556,1.6429,1.5779,1.5434,1.5434,1.5634,1.5848,1.6133,1.6455,1.6546,1.6356,1.7426,1.793,1.793,1.8221,1.8705,1.9222,1.8175,1.8071,1.8607,1.8429,1.8158,1.7896,1.7458,1.642,1.5188,1.5361,1.532,1.5234,0.0,0.0,0.0,0.0,0.0,0.0,0.0,0.0,2.3522,2.3724,2.4607,2.5144,2.4975,2.4666,2.4153,2.3377,2.2635,2.2464,2.3081,2.2742,2.183,2.0278,1.9327,1.7759,1.5561,1.4883,1.3847,1.2444,1.3348,1.364,1.3538,1.4397,1.5428,1.6631,1.7065,1.7797,1.8799,1.9316,1.9268,1.8757,1.932,1.9451,1.9041,1.7819,1.6683,1.5701,1.493,1.3771,1.2608,1.2328,1.248,1.2867,1.3712,1.4132,1.471,1.6785,1.7466,0.0,0.0,0.0,0.0,0.0,0.0,0.0,0.0,2.9415,2.8202,2.7741,2.7116,2.6256,2.5154,2.4338,2.3757,2.3482,2.2896,2.2551,2.2715,2.2338,2.2404,2.345,2.3728,2.3318,2.1815,2.1954,2.1508,2.0013,1.9862,1.9262,1.8072,1.7687,1.7536,1.7413,1.7605,1.7986,1.8527,1.8775,1.8844,1.8849,1.941,1.9743,1.9828,1.9743,2.0139,2.0805,1.9437,1.9235,1.986,1.943,1.9373,1.9568,1.9568,1.8103,1.5977,1.6127,1.6067,1.6005,0.0,0.0,0.0,0.0,0.0,0.0,0.0,0.0,0.0,2.3605,2.5372,2.6184,2.4955,2.4982,2.5012,2.4781,2.3476,2.3473,2.5464,2.363,2.2391,2.2107,2.0463,1.8519,1.6262,1.5939,1.5007,1.3474,1.3997,1.4735,1.5775,1.6287,1.7172,1.8366,1.8802,1.9097,1.9268,2.0078,2.0449,2.0401,2.1235,2.1762,2.1902,2.0739,1.9117,1.7439,1.7289,1.6425,1.5063,1.4052,1.3722,1.3737,1.2988,1.3582,1.4447,1.4544,1.5987,1.7902,1.96,2.2893,2.6154,2.7172,2.8174,2.9247,0.0,2.9849,2.8729,2.8292,2.6504,2.4668,2.3555,2.2521,2.2052,2.2799,2.2481,2.2445,2.3231,2.3228,2.3238,2.3391,2.2602,2.1904,2.1661,2.2075,2.1916,2.0914,2.1313,2.14,2.0919,2.0864,2.069,2.0365,1.9962,2.0021,2.0456,2.0101,2.0572,2.1753,2.1319,2.1397,2.1879,2.1375,2.1487,2.2026,2.1822,2.1753,2.1901,2.1809,2.1322,2.0613,2.0613,1.992,1.8802,1.8395,1.8481,1.8783,0.0,0.0,0.0,0.0,0.0,0.0,0.0,0.0,0.0,0.0,2.4498,2.506,2.4666,2.4855,2.4996,2.4953,2.4815,2.4997,2.5615,2.494,2.4106,2.3068,2.1889,2.0335,1.8337,1.8081,1.7317,1.5971,1.6828,1.7331,1.7539,1.8024,1.9154,2.0687,2.0882,2.1636,2.2767,2.3152,2.2856,2.2367,2.2941,2.2912,2.2454,2.2236,2.1166,1.9645,1.8715,1.7993,0.0,1.696,1.6886,1.7079,1.6912,1.7127,1.7509,1.7476,1.798,1.9042,2.1154,2.3504,2.5628,2.6974,2.7629,2.8176,2.9037,2.8084,2.6971,2.6581,2.535,2.4082,2.3225,2.2511,2.2066,2.2174,2.2261,2.2489,2.2811,2.3097,2.3546,2.4372,2.4122,2.3581,2.2823,2.3528,2.3718,2.3005,2.2872,2.2746,2.2628,2.216,2.1777,2.1644,2.1662,2.1662,2.1655,2.1662,2.1871,2.2184,2.2465,2.2744,2.2942,2.2733,2.2476,2.2264,2.2752,2.2845,2.2635,2.2635,2.251,2.2335,2.2335,2.2118,2.1523,1.9683,1.9131,1.9268,0.0,0.0,0.0,0.0,0.0,0.0,0.0,0.0,0.0,0.0,2.4233,2.4726,2.4763,2.4639,2.4739,2.5172,2.5685,2.6045,2.609,2.6303,2.5901,2.4692,2.3774,2.2583,2.1073,2.0441,1.9737,1.8862,1.9555,1.9828,1.9747,2.0257,2.1334,2.2767,2.2972,2.3799,2.5182,2.5318,2.4891,2.4207,2.4691,2.4315,2.3622,2.3937,2.3421,2.2197,2.0088,1.9457,1.9598,1.9233,1.9692,2.0482,2.04,2.0363,2.0448,2.054,2.0715,2.115,2.2765,2.4155,2.5433,2.6561,2.6634,2.6563,2.6887,2.5756,2.4563,2.4447,2.3697,2.3076,2.3232,2.2914,2.256,2.2424,2.2856,2.3214,2.3148,2.3631,2.4493,2.5783,2.6189,2.6153,2.5546,2.5661,2.5641,2.515,2.4722,2.4497,2.4644,2.3982,2.3572,2.342,2.3523,2.3383,2.3224,2.3235,2.3317,2.3374,2.3855,2.4147,2.4359,2.4359,2.3998,2.3442,2.4078,2.4157,2.3874,2.4084,2.4057,2.3902,2.4112,2.3847,2.329,2.123,2.0492,2.0471,0.0,0.0,0.0,0.0,0.0,0.0,0.0,0.0,0.0,0.0,0.0,0.0,0.0,2.439,2.4342,2.5829,2.5679,2.6171,2.7727,2.7633,2.7518,2.7483,2.6204,2.5161,2.437,2.2788,2.1913,2.1762,2.1449,2.18,2.2764,2.3329,2.3835,2.4254,2.4824,2.5149,2.5205,2.5588,2.579,2.5755,2.6248,2.6367,2.6378,2.6389,2.6006,2.5065,2.1798,2.1188,2.1749,2.0214,2.1489,2.3423,2.1964,2.1893,2.2293,2.2293,2.3358,2.4279,2.3722,2.4765,2.5906,2.5351,2.4996,2.4707,2.447,2.3013,2.1851,2.2281,2.157,2.1315,2.3122,2.316,2.3152,2.3971,2.4664,2.5051,2.4767,2.5706,2.6748,2.7709,2.8474,2.9205,3.0096,2.8533,2.736,2.7214,2.6969,2.7025,2.7512,2.7296,2.6917,2.6482,2.5613,2.5338,2.567,2.4742,2.4998,2.6333,2.577,2.5862,2.6402,2.6402,2.6402,2.6333,2.6414,2.6414,2.6396,2.6934,2.6257,2.4981,2.5527,2.4815,2.3514,2.3408,2.3396,2.3329,0.0,0.0,0.0,0.0,0.0,0.0,0.0,0.0,0.0,0.0,0.0,0.0,0.0,0.0,0.0,0.0,2.6525,2.7072,2.8165,2.8464,2.8178,2.7306,2.7581,2.7009,2.5461,2.5546,2.5388,2.4874,2.4305,2.4408,2.5135,2.4411,2.491,2.6417,2.6682,2.7275,2.8268,2.8373,2.8219,2.7836,2.7672,2.7323,2.7015,2.6606,2.6371,2.5962,0.0,2.3562,2.3424,2.2841,2.3285,2.4037,2.3833,2.3652,2.3679,2.3987,2.5178,2.616,2.5057,2.5689,2.6422,2.5397,2.5264,2.5035,2.3718,2.2935,2.2429,2.2006,2.1462,2.1581,2.3474,2.3517,2.3577,2.4592,2.5512,2.6077,2.6003,2.693,2.8145,2.9659,3.0416,3.1307,3.234,3.0928,2.9968,2.9893,2.972,2.972,2.9859,2.9194,2.8692,2.8562,2.761,2.7001,2.6816,2.6457,2.6338,2.6533,2.6264,2.6465,2.7005,2.7005,2.7005,2.703,2.7394,2.7344,2.7055,2.7607,2.7491,2.7003,2.689,2.6478,2.5984,2.5632,2.5499,2.5252,0.0,0.0,0.0,0.0,0.0,0.0,0.0,0.0,0.0,0.0,0.0,0.0,0.0,0.0,0.0,0.0,0.0,2.7278,2.7958,2.8801,2.9023,2.8458,2.9022,2.8834,2.7722,2.7868,2.7762,2.7365,2.6672,2.6746,2.7551,2.6922,2.7519,2.9024,2.9226,2.9845,3.0771,3.0771,3.056,3.0171,2.9806,2.9337,2.8674,2.8327,2.7873,0.0,2.6597,2.6229,2.5932,2.4853,2.4865,2.5335,2.5401,2.5483,2.5698,2.6212,2.7413,2.8266,2.7156,2.7301,2.7437,2.65,2.5713,2.482,2.3599,2.2797,2.232,2.208,2.2053,2.2637,2.4735,2.5115,2.5282,2.5755,2.6581,2.7061,2.6852,2.7594,2.8936,3.1185,3.1848,3.2645,3.4044,3.3332,3.2547,3.2079,3.1854,3.1748,3.1748,3.0993,3.0626,3.0626,2.9874,2.9243,2.8877,2.8344,2.7723,2.7042,2.7042,2.7231,2.7582,2.7582,2.7582,2.7595,2.7946,2.7908,2.762,2.8172,2.8285,2.8072,2.772,2.7457,2.7218,2.6666,2.6533,2.6314,0.0,0.0,0.0,0.0,0.0,0.0,0.0,0.0,0.0,0.0,0.0,0.0,0.0,0.0,0.0,0.0,0.0,0.0,2.7345,2.8789,2.9963,3.0738,3.0592,3.0625,3.093,2.9688,2.9118,2.9187,2.8547,2.8814,3.0007,3.0549,3.1154,3.1861,3.2374,3.2581,3.2623,3.2623,3.2579,3.2648,3.2607,3.2046,3.1294,3.1254,3.0345,2.9113,2.9076,2.9271,2.918,2.6184,2.622,2.7301,2.6785,2.7281,2.8247,2.8775,2.9754,3.0505,2.9798,2.9443,2.9139,2.8391,2.6329,2.4345,2.3972,2.258,2.1701,2.2488,2.3227,2.4391,2.6749,2.7731,2.8076,2.7651,2.8052,2.8225,2.7698,2.7964,2.9331,3.2242,3.2593,3.3325,3.5213,3.5439,3.4981,3.3694,3.3381,3.3258,3.3258,3.2862,3.2664,3.2664,3.2111,3.1806,3.1765,3.036,2.9125,2.817,2.817,2.8195,2.8147,2.8147,2.8147,2.8147,2.8185,2.8172,2.8185,2.8737,2.8649,2.8147,2.8109,2.777,2.7218,2.6666,2.6533,2.6533,0.0,0.0,0.0,0.0,0.0,0.0,0.0,0.0,0.0,0.0,0.0,0.0,0.0,0.0,0.0,0.0,0.0,0.0,2.8084,2.9319,3.0136,3.0337,3.116,3.1448,3.1199,3.1145,3.1011,3.0749,2.9983,3.0219,3.1434,3.1014,3.1401,3.2451,3.2611,3.2667,3.2681,3.2681,3.2849,3.3156,3.2786,3.2726,3.2791,3.2413,3.201,3.1604,3.1229,3.1126,3.0937,2.9018,2.862,2.8807,2.7923,2.816,2.875,2.8888,3.0005,3.0954,2.9882,3.0154,3.0249,2.8282,2.727,2.6257,2.4196,2.4137,2.4286,2.3784,2.4337,2.5594,2.7861,2.8904,2.991,3.115,3.1829,3.2131,3.2031,3.1074,3.091,3.2423,3.2593,3.3101,3.4259,3.5067,3.537,3.5026,3.4937,3.4896,3.4896,3.4105,3.3671,3.3671,3.2807,3.2221,3.1765,3.1034,3.0132,2.9112,2.9112,2.9001,2.8725,2.8725,2.8725,2.8737,2.9176,2.9114,2.8762,2.934,2.9239,2.8687,2.8273,2.777,2.7218,2.6666,2.6533,2.6584,0.0,0.0,0.0,0.0,0.0,0.0,0.0,0.0,0.0,0.0,0.0,0.0,0.0,0.0,0.0,0.0,0.0,0.0,0.0,2.8857,2.9807,3.0687,3.1389,3.1852,3.213,3.2144,3.1948,3.152,3.0927,3.1147,3.2143,3.1681,3.1977,3.297,3.3303,3.3437,3.3502,3.3803,3.3951,0.0,0.0,3.3632,3.3297,3.3199,3.2961,3.2552,3.229,3.2444,3.2651,3.2083,3.1293,3.0425,2.9718,2.9841,3.0279,3.0085,3.0834,3.1572,3.0964,3.0951,3.0855,2.9498,2.8773,2.7964,2.6219,2.6327,2.6671,2.5865,2.6595,2.7824,2.913,3.0519,3.1823,3.2676,3.3054,3.3248,3.3276,3.2236,3.1949,3.3073,3.3241,3.3602,3.4543,3.5133,3.5504,3.5504,3.5504,3.5504,3.5504,3.4986,3.4691,3.4691,3.4124,3.3514,3.2788,3.245,3.1791,3.0831,3.0831,3.0722,3.0558,3.0558,3.0558,3.0498,0.0,3.0226,2.9869,2.9795,2.9453,2.89,2.8586,2.7984,2.7243,2.6929,2.6816,2.6829,0.0,0.0,0.0,0.0,0.0,0.0,0.0,0.0,0.0,0.0,0.0,0.0,0.0,0.0,0.0,0.0,0.0,0.0,0.0,0.0,2.9348,3.1311,3.1384,3.1963,3.3178,3.2809,3.2332,3.1789,3.1496,3.1682,3.2319,3.2304,3.2672,3.3326,3.397,3.4338,3.4457,3.5166,3.515,3.469,3.5388,3.4757,3.3507,0.0,3.3794,3.2961,3.2961,3.3533,3.4278,3.4969,3.3884,3.225,3.1796,3.1925,3.2211,3.1707,3.1858,3.2215,3.2215,3.181,3.1412,3.1223,3.0406,2.9455,2.8791,2.8757,2.8688,2.8166,2.933,3.0489,3.0635,3.2393,3.3729,3.3452,3.355,3.3634,3.3564,3.3002,3.2998,3.4131,3.42,3.4457,3.5332,3.5484,3.5504,3.5504,3.5504,3.5504,3.5504,3.5504,3.5504,3.5504,3.5504,3.5067,3.4177,3.4177,3.3739,3.282,3.282,3.2749,3.2593,3.2593,3.2593,3.2522,3.1742,3.1389,3.1315,3.0495,2.9732,2.9063,2.9063,2.8445,2.7394,2.7394,2.7344,2.7231,0.0,0.0,0.0,0.0,0.0,0.0,0.0,0.0,0.0,0.0,2.4457,2.5014,0.0,0.0,0.0,0.0,0.0,0.0,0.0,0.0,0.0,3.1329,3.1384,3.1963,3.3178,3.3105,3.2681,3.1789,3.1726,3.1922,3.2294,3.2312,3.2696,3.3399,3.3533,3.3918,3.448,3.4627,3.4952,3.5443,3.6197,3.5947,3.5141,3.5844,0.0,0.0,3.5001,3.5067,3.5302,3.6023,3.5429,3.4398,3.408,3.3455,3.2816,3.2752,3.2487,3.2215,3.2215,3.2459,3.2513,3.15,3.1033,3.0458,2.8959,2.9378,3.0055,2.9833,3.0785,3.1991,3.3156,3.4086,3.5177,3.6409,3.724,3.7622,3.7486,3.6808,3.6173,3.5695,3.5192,3.4874,3.5096,3.5311,3.5504,3.5504,3.5504,3.5504,3.5504,3.5504,3.5504,3.5504,3.5504,3.5439,3.5213,3.5213,3.4758,3.3739,3.3739,3.338,3.2593,3.2593,3.2593,3.2593,3.2464,0.0,3.2321,3.2177,3.1347,3.0144,3.0144,2.9246,2.7959,2.7959,2.767,2.7394,0.0,0.0,0.0,0.0,0.0,0.0,0.0,2.419,2.4424,2.5045,2.5009,2.5276,2.6249,2.6921,2.7483,0.0,0.0,0.0,0.0,0.0,0.0,0.0,0.0,0.0,3.2885,3.3085,3.2983,3.2533,0.0,3.2124,3.2038,3.2038,3.2144,3.2273,3.2645,3.3018,3.3367,3.3768,3.4162,3.4588,3.525,3.5588,3.5608,0.0,0.0,0.0,3.5504,3.5504,3.5659,3.6717,3.6745,3.616,3.5837,3.5653,3.5452,3.5219,3.4548,3.3882,3.3966,3.4185,3.3973,3.2562,3.2636,3.2619,3.1171,3.1236,3.1592,3.1494,3.2326,3.3239,3.3865,3.4986,3.6156,3.7324,3.8119,3.8769,3.916,3.8488,3.7861,3.7474,3.6704,3.6148,3.5825,3.6193,3.6222,3.5549,3.5818,3.5863,3.5519,3.5504,3.5504,3.5504,3.5504,3.5504,3.5504,3.5504,3.5279,3.4758,3.4758,3.4543,3.4124,3.4124,3.4124,3.4056,3.3533,3.331,3.331,3.282,3.205,3.1135,3.1446,3.0445,2.8853,2.8853,2.8341,2.7745,0.0,0.0,0.0,0.0,0.0,0.0,0.0,2.419,2.4513,2.5389,2.5131,2.5353,2.6615,2.7222,2.8094,0.0,0.0,0.0,0.0,0.0,0.0,0.0,0.0,0.0,3.2596,0.0,0.0,3.3214,3.2809,0.0,0.0,0.0,0.0,0.0,3.1862,3.2138,3.2364,3.2916,3.3403,0.0,0.0,3.5364,3.5899,0.0,0.0,0.0,0.0,3.5958,3.6176,3.7421,3.7802,3.7661,3.7293,3.7564,3.7949,3.7498,3.6743,3.6129,3.6115,3.6022,3.5584,3.4322,3.452,3.4659,3.3395,3.3116,3.3091,3.2913,3.3518,3.4095,3.4245,3.54,3.6547,3.7496,3.8214,3.8984,3.9955,3.9818,3.9548,3.9404,3.8647,3.7896,3.7277,3.7331,3.6985,3.5983,3.6267,3.6207,3.5549,3.5504,3.5504,3.5504,3.5504,3.5504,3.5504,3.5504,3.5504,3.5504,3.5504,3.5504,3.5504,3.5504,3.5504,3.5439,3.4691,3.4312,3.4245,3.3547,3.2821,3.2291,3.2765,3.1817,3.0161,3.0161,2.96,2.8852,0.0,0.0,0.0,0.0,0.0,0.0,0.0,2.419,2.4129,2.3952,2.4486,2.5484,2.7055,2.7918,2.9148,0.0,0.0,0.0,0.0,0.0,0.0,0.0,0.0,0.0,0.0,0.0,0.0,3.3214,3.3154,0.0,0.0,0.0,0.0,0.0,0.0,3.1664,3.2313,3.2357,0.0,0.0,0.0,0.0,0.0,0.0,0.0,0.0,0.0,3.7589,3.7685,3.8444,3.8654,3.8647,3.8472,3.8534,3.8577,3.7906,3.7831,3.7965,3.7965,3.7483,3.6974,3.6838,3.6479,3.5723,3.4527,3.4252,3.4205,3.3927,3.3945,3.4245,3.5213,3.5484,3.6004,3.7355,3.8351,3.9329,4.0639,4.1999,4.259,4.1805,4.1009,4.021,3.9493,3.8167,3.736,3.724,3.6761,3.6207,3.5549,3.5504,3.5504,3.5504,3.5504,3.5504,3.5504,3.5504,3.5504,3.5504,3.5504,3.5504,3.5504,3.5504,3.5504,3.5504,3.5424,3.5359,0.0,3.5279,3.4662,3.3805,3.3848,3.324,3.2299,3.2299,3.1942,3.1543,0.0,0.0,0.0,0.0,0.0,0.0,2.4339,2.4266,2.422,2.4234,2.4019,2.4771,2.7091,2.7879,2.9114,3.1231,0.0,0.0,0.0,0.0,0.0,0.0,0.0,0.0,0.0,0.0,3.3634,3.428,3.428,0.0,0.0,0.0,0.0,0.0,0.0,3.2221,3.1974,3.1754,0.0,0.0,0.0,0.0,0.0,0.0,0.0,0.0,0.0,0.0,3.7911,3.8626,3.8843,3.877,3.8771,3.933,3.9886,3.9461,3.9244,3.926,3.9629,3.951,3.8982,3.8032,3.7517,3.6949,3.6056,3.5218,3.4754,3.4882,3.4905,3.5052,3.5439,3.5831,3.6492,3.7521,3.8364,3.942,4.0866,4.1189,4.1615,4.2684,4.2062,4.122,4.0422,4.0139,3.9512,3.8132,3.706,3.6372,3.6118,3.5729,3.5504,3.5504,3.5504,3.5504,3.5504,3.5504,3.5504,3.5504,3.5504,3.5504,3.5504,3.5504,3.5504,3.5504,3.5504,3.5504,0.0,3.5504,3.5279,3.4905,3.4905,3.4327,3.3407,3.3107,3.2469,3.1806,0.0,0.0,0.0,0.0,0.0,2.4339,2.4478,2.4375,2.4411,2.4722,2.4293,2.4853,2.7291,2.8275,2.952,3.1425,3.147,0.0,0.0,0.0,0.0,0.0,0.0,0.0,0.0,0.0,3.3844,3.4669,3.4669,3.4914,0.0,0.0,3.4753,3.387,0.0,0.0,0.0,0.0,0.0,0.0,0.0,0.0,0.0,0.0,0.0,0.0,0.0,0.0,0.0,0.0,0.0,3.9153,3.8964,3.9666,4.0482,4.0291,4.0624,4.1137,4.1609,4.1655,4.1292,4.0177,3.9098,3.8133,3.7463,3.627,3.5414,3.5493,3.5504,3.5504,3.5504,3.6117,3.6843,3.769,3.8414,3.9458,4.0981,4.0846,4.1199,4.2833,4.2451,4.1804,4.1276,4.1594,4.1084,3.9198,3.7857,3.7065,3.6761,3.5968,3.5504,3.5504,3.5504,3.5504,3.5504,3.5504,3.5504,3.5504,3.5504,3.5504,3.5504,3.5504,3.5504,3.5504,3.5504,3.5504,0.0,3.5504,3.5504,3.5504,3.5504,3.5067,3.4418,3.4032,3.3446,3.2894,0.0,0.0,0.0,0.0,0.0,0.0,2.4495,2.4495,2.4669,2.5127,2.5484,2.6251,2.7814,2.9367,3.0761,3.1968,3.3375,0.0,0.0,0.0,0.0,0.0,0.0,0.0,0.0,0.0,3.3018,3.3807,3.3807,3.4229,3.5009,3.4594,3.4393,3.4375,0.0,0.0,0.0,0.0,0.0,0.0,0.0,0.0,0.0,0.0,0.0,0.0,0.0,0.0,0.0,0.0,0.0,0.0,0.0,3.9454,4.0066,3.9893,4.1773,4.3942,4.3958,4.3859,4.3743,4.3743,4.1538,3.9245,3.8542,3.7404,3.6297,3.5639,3.5504,3.5504,3.5504,3.6117,3.6843,3.769,3.8414,3.9458,4.0981,4.183,4.2286,4.2303,4.2249,4.2219,4.2219,4.2037,4.1609,4.0743,3.942,3.8269,3.7473,3.6193,3.5504,3.5504,3.5504,3.5504,3.5504,3.5504,3.5504,3.5504,3.5504,3.5504,3.5504,3.5504,3.5504,3.5504,3.5504,3.5504,0.0,3.5504,3.5504,3.5504,3.5504,3.5504,3.5504,3.5504,3.5489,3.5489,0.0,0.0,0.0,0.0,0.0,0.0,0.0,2.4752,2.4867,2.5356,2.5383,2.6041,2.7806,2.9142,3.0504,3.196,3.2719,0.0,0.0,0.0,0.0,0.0,0.0,0.0,0.0,0.0,3.3825,3.4633,3.4633,3.5349,3.6707,3.657,3.654,3.6492,3.6031,3.5096,0.0,0.0,0.0,0.0,0.0,0.0,4.007,0.0,0.0,0.0,0.0,0.0,0.0,0.0,0.0,0.0,0.0,0.0,0.0,4.0004,4.091,4.1938,4.2333,4.2417,4.239,4.239,4.0608,3.8831,3.8616,3.7116,3.5759,3.5549,3.5504,3.5668,3.6165,3.6859,3.7674,3.8414,3.9209,4.0037,4.0886,4.2184,4.3573,4.496,4.5115,4.4942,4.4516,4.2941,4.1869,4.1609,4.0309,3.9141,3.835,3.7499,3.6829,3.6275,3.5782,3.5718,3.6228,3.5718,3.5504,3.5504,3.5504,3.5504,3.5504,3.5504,3.5504,3.5504,3.5504,3.5504,3.5504,3.5504,3.5504,3.5504,3.5504,3.5504,3.5504,3.5504,3.5504,3.5504,0.0,0.0,0.0,0.0,0.0,0.0,0.0,2.4943,2.5192,2.603,2.6135,2.6757,2.8407,2.9791,3.0984,3.1996,3.2684,0.0,0.0,0.0,0.0,0.0,0.0,0.0,0.0,3.3532,3.4045,3.4559,3.4559,3.5238,3.656,3.656,3.6725,3.7037,3.6741,3.6049,0.0,0.0,0.0,0.0,0.0,0.0,3.9259,0.0,0.0,0.0,0.0,0.0,0.0,0.0,0.0,0.0,0.0,0.0,0.0,0.0,4.0815,4.1328,4.1812,4.2067,4.222,4.222,4.061,3.8982,3.8676,3.7208,3.5846,3.5554,3.5504,3.5733,3.643,3.7279,3.8035,3.8799,3.961,4.0389,4.1289,4.2541,4.417,4.6253,4.6291,4.601,4.558,4.4009,4.2831,4.252,4.1193,4.0007,3.922,3.8277,3.769,3.7467,3.6461,3.6006,3.6165,3.6006,3.5782,3.5504,3.5782,3.5782,3.5504,3.5504,3.5504,3.5504,3.5504,3.5504,0.0,3.5504,3.5504,3.5504,3.5504,3.5504,3.5504,3.5504,3.5504,3.5504,0.0,0.0,0.0,0.0,0.0,0.0,0.0,2.5022,2.5558,2.7035,2.7494,2.8206,2.958,3.1074,3.2032,3.2216,0.0,0.0,0.0,0.0,0.0,0.0,0.0,0.0,3.377,3.3807,3.3815,3.3815,3.3815,3.4211,3.5046,3.5018,3.5514,3.6376,3.6376,3.6152,0.0,0.0,0.0,0.0,0.0,0.0,0.0,0.0,0.0,0.0,0.0,0.0,0.0,0.0,0.0,0.0,0.0,0.0,0.0,0.0,0.0,0.0,0.0,4.2607,4.2954,4.2954,4.1297,3.9513,3.8777,3.7592,0.0,3.5782,3.5619,3.5846,3.6615,3.7322,3.8035,3.8854,3.9645,4.0641,4.199,4.3097,4.4518,4.6571,4.6239,4.577,4.5614,4.4964,4.4186,4.336,4.2005,4.0803,3.9927,3.8659,3.8206,3.8799,3.7467,3.6399,3.5683,3.6228,3.6228,3.5554,3.6275,3.6212,3.5554,3.5619,3.5619,3.5504,3.5554,3.5569,3.5504,3.5504,3.5504,3.5504,3.5504,3.5504,3.5504,3.5504,3.5504,3.5504,0.0,0.0,0.0,0.0,0.0,0.0,0.0,0.0,0.0,0.0,2.7355,2.8334,3.1006,3.1427,3.2025,0.0,0.0,0.0,0.0,0.0,0.0,0.0,0.0,0.0,3.3788,3.3807,3.3902,3.4099,3.3902,3.4326,3.5379,3.511,3.5789,3.7202,3.7202,3.7283,0.0,0.0,0.0,0.0,0.0,0.0,0.0,0.0,0.0,0.0,3.8463,3.782,0.0,0.0,0.0,0.0,0.0,0.0,0.0,0.0,4.0456,4.1011,4.1745,0.0,4.1406,4.1406,4.0263,3.9086,0.0,3.8146,3.7456,3.7294,3.6753,3.6722,3.8101,3.8076,3.8262,3.961,4.0334,4.099,4.1798,4.4917,4.7591,4.8812,4.8461,4.743,4.5615,4.436,4.358,4.3379,4.2001,4.0875,4.0106,3.9723,3.9119,3.8092,3.823,3.8003,3.7294,3.6243,3.5943,3.6337,3.6492,3.6492,3.6384,3.6995,3.66,3.5504,3.6117,3.5991,3.5504,3.5504,3.5504,3.5504,3.5504,3.5504,3.5504,3.5504,3.5504,3.5504,0.0,0.0,0.0,0.0,0.0,0.0,0.0,0.0,0.0,0.0,0.0,0.0,0.0,0.0,0.0,0.0,0.0,0.0,0.0,0.0,0.0,0.0,0.0,3.3421,3.3788,3.3928,3.4068,3.42,3.4068,3.4309,3.4883,3.4394,3.5159,3.6964,3.7716,3.8125,0.0,0.0,0.0,0.0,3.8272,0.0,0.0,0.0,0.0,0.0,3.751,3.6939,0.0,3.598,3.5859,3.5897,0.0,0.0,0.0,0.0,4.0192,4.0921,4.1335,4.112,4.0699,4.0446,3.9802,3.911,3.852,3.8351,3.8206,3.7863,3.7456,3.7499,3.8674,3.858,3.8707,3.9901,4.0528,4.1506,4.3288,4.612,4.8476,4.9728,4.8583,4.7186,4.6017,4.4354,4.3182,4.2895,4.1847,4.103,4.0625,4.0254,3.9731,3.8887,3.887,3.8525,3.7822,3.7279,3.71,3.7144,3.7483,3.7483,3.716,3.7573,3.7115,3.6006,3.6446,3.6165,3.5504,3.5504,3.5504,3.5504,3.5504,3.5504,3.5504,3.5504,3.5504,3.5504,0.0,0.0,0.0,0.0,0.0,0.0,0.0,0.0,0.0,0.0,0.0,0.0,0.0,0.0,0.0,0.0,0.0,0.0,0.0,0.0,0.0,0.0,0.0,3.3054,3.3605,3.3883,3.4055,3.4083,3.3952,3.3952,3.4041,3.3387,3.4164,3.6252,3.7735,3.8517,0.0,0.0,3.8561,3.8375,3.8122,0.0,0.0,0.0,0.0,0.0,0.0,0.0,0.0,3.4906,3.4641,3.4728,3.5745,0.0,0.0,0.0,0.0,0.0,4.0928,4.0782,4.0583,4.0141,3.9956,3.9566,3.8522,3.8781,3.8999,3.8318,3.8035,3.8206,3.8978,3.8962,3.9139,3.9969,4.0685,4.2235,4.5462,4.6984,4.8259,4.9573,4.7787,4.638,4.6112,4.4218,4.2839,4.2328,4.1493,4.1035,4.1035,4.0426,4.007,4.007,3.9437,3.8799,3.8149,3.8525,3.8469,3.7978,3.858,3.858,3.7978,3.8092,3.7674,3.6783,0.0,0.0,3.5668,3.5569,3.5504,3.5504,3.5504,3.5504,3.5504,3.5504,3.5504,3.5504,0.0,0.0,0.0,0.0,0.0,0.0,0.0,0.0,0.0,0.0,0.0,0.0,0.0,0.0,0.0,0.0,0.0,0.0,0.0,0.0,0.0,3.3807,3.3678,3.3348,3.2816,3.3062,3.3306,3.3504,3.2786,3.2805,3.3523,3.2779,3.3613,3.5729,3.6671,3.7681,3.8707,3.8707,3.9447,4.05,3.9127,0.0,0.0,0.0,0.0,0.0,0.0,0.0,0.0,3.4535,3.4288,3.3917,3.4692,0.0,0.0,0.0,0.0,0.0,4.0084,4.0555,4.1048,4.1137,4.0788,4.0438,4.0435,4.0517,4.0429,3.9868,3.9209,3.8978,3.9782,3.9368,3.9139,3.9969,4.12,4.3337,4.6891,4.781,4.8101,4.8073,4.785,4.6785,4.443,4.3047,4.221,4.2112,4.0949,4.0257,4.0257,4.0138,4.007,4.007,3.9952,3.985,3.9731,3.8541,3.8262,3.8745,3.8854,3.8854,3.8745,3.9437,3.8995,3.7632,0.0,3.716,3.6384,3.5782,3.5504,3.5504,3.5504,3.5504,3.5504,3.5504,3.5504,3.5504,0.0,0.0,0.0,0.0,0.0,0.0,0.0,0.0,0.0,0.0,0.0,0.0,0.0,0.0,0.0,0.0,0.0,0.0,0.0,0.0,3.3808,3.3377,3.351,3.3348,3.2822,3.2756,3.2827,3.2976,3.2539,3.2481,3.2822,3.3184,3.389,3.4907,3.6642,3.7721,3.83,3.8596,3.9129,3.9753,0.0,0.0,0.0,0.0,0.0,0.0,0.0,0.0,0.0,0.0,3.3978,3.3803,3.4321,0.0,0.0,0.0,0.0,0.0,3.8469,3.8872,3.941,4.0352,4.0817,4.0998,4.0813,4.0837,4.0827,4.0577,3.9986,3.9662,4.002,3.9782,3.9885,4.0844,4.1882,4.3369,4.5701,4.6312,4.6561,4.6674,4.6169,4.5312,4.3981,4.2693,4.1782,4.1475,4.0622,4.007,4.007,4.007,4.007,4.007,4.007,4.007,4.007,3.9401,3.9226,3.9542,3.9542,3.9542,3.9542,3.9952,3.9506,3.8358,0.0,3.7338,3.6554,3.5782,3.5504,3.5504,3.5504,3.5504,3.5504,3.5504,3.5504,3.5504,0.0,0.0,0.0,0.0,0.0,0.0,0.0,0.0,0.0,0.0,0.0,0.0,0.0,0.0,0.0,0.0,0.0,0.0,0.0,0.0,3.3844,3.343,3.3272,3.2992,3.2512,3.2334,3.226,3.2305,3.2134,3.1951,3.1822,3.3031,3.377,3.4167,3.6453,3.761,3.7946,3.8465,3.8817,3.8964,0.0,0.0,0.0,0.0,0.0,0.0,0.0,0.0,0.0,0.0,0.0,0.0,0.0,0.0,0.0,3.5314,3.583,3.6376,3.6798,3.7184,3.7819,3.9019,4.0206,4.0979,4.0717,4.0744,4.0833,4.0745,4.0368,4.007,4.007,3.9935,4.026,4.1603,4.221,4.3093,4.467,4.527,4.5586,4.5776,4.4993,4.4257,4.3868,4.2723,4.175,4.1178,4.0577,4.0254,4.0121,4.007,4.007,4.007,4.007,4.007,4.007,4.007,4.007,4.007,4.007,4.007,4.007,3.9901,3.9489,3.8854,3.7905,3.7144,3.6554,3.5782,3.5504,3.5504,3.5504,3.5504,3.5504,3.5504,3.5504,3.5504,0.0,0.0,0.0,0.0,0.0,0.0,0.0,0.0,0.0,0.0,0.0,0.0,0.0,0.0,0.0,0.0,0.0,0.0,0.0,0.0,3.3785,3.454,3.3337,3.2145,3.1073,3.133,3.1447,3.1386,3.0884,3.0535,3.0358,3.1103,3.2206,3.3706,3.5403,3.6791,3.7946,3.8465,3.9129,3.9753,3.9001,0.0,0.0,0.0,0.0,0.0,0.0,0.0,0.0,0.0,0.0,0.0,0.0,0.0,3.499,3.5036,3.565,3.6138,3.5385,3.6321,3.7544,3.7654,3.8854,4.0099,4.0544,4.0612,4.0517,4.0248,4.0121,4.007,4.007,3.9529,3.9679,4.1515,4.1795,4.2699,4.5329,4.6304,4.6529,4.5892,4.573,4.5123,4.3695,4.2975,4.24,4.1768,4.1178,4.0625,4.0121,4.007,4.007,4.007,4.007,4.007,4.007,4.007,4.007,4.007,4.007,4.007,4.007,3.9315,3.8962,3.8799,3.7306,3.6661,3.6554,3.5782,3.5504,3.5504,3.5504,3.5504,3.5504,3.5504,3.5504,3.5504,0.0,0.0,0.0,0.0,0.0,0.0,0.0,0.0,0.0,0.0,0.0,0.0,0.0,0.0,0.0,0.0,0.0,0.0,0.0,3.2465,3.2762,3.2591,3.2279,3.1647,3.0682,3.0781,3.086,3.0848,3.0343,3.0636,3.1778,3.1841,3.2897,3.4731,3.6123,3.6717,3.6738,3.8132,3.8597,3.8414,3.8615,3.8891,0.0,0.0,0.0,0.0,0.0,0.0,0.0,0.0,3.3807,3.3807,3.3807,3.4009,3.4266,3.4266,3.4486,3.478,3.4935,3.5862,3.6743,3.6743,3.7588,3.8834,4.0526,4.0349,3.9858,3.973,3.9911,4.007,4.007,3.9722,3.9779,4.0881,4.1505,4.2427,4.4011,4.4938,4.5371,4.5104,4.4824,4.4382,4.3566,4.3014,4.2616,4.24,4.1446,4.0827,4.0625,4.0286,4.007,4.007,4.007,4.007,4.007,4.007,4.007,4.007,4.007,4.007,4.007,3.9262,3.8908,3.8783,3.7306,3.6615,3.6554,3.5782,3.5504,3.5504,3.5504,3.5504,3.5504,3.5504,3.5504,3.5504,0.0,0.0,0.0,0.0,0.0,0.0,0.0,0.0,0.0,0.0,0.0,0.0,0.0,0.0,0.0,0.0,0.0,0.0,3.1146,3.1844,3.2244,3.2225,3.1968,3.1677,3.1351,3.055,3.0297,3.0564,3.0037,3.0541,3.2038,3.2235,3.3055,3.4446,3.5688,3.5922,3.5449,3.6801,3.7345,3.7345,3.8053,3.8469,0.0,0.0,0.0,0.0,0.0,0.0,0.0,0.0,3.3807,3.3752,3.3495,3.3421,3.3421,3.3421,3.3421,3.3605,3.4412,3.5073,3.5597,3.5947,3.6464,3.7442,3.9577,3.9478,3.9039,3.9458,3.9841,4.007,4.007,3.9692,3.9633,4.0458,4.0962,4.1619,4.2618,4.3359,4.3762,4.3676,4.3409,4.3212,4.3109,4.2795,4.2592,4.2675,4.175,4.1087,4.0903,4.0417,4.007,4.007,4.007,4.007,4.007,4.007,4.007,4.007,4.007,4.007,4.007,3.9262,3.8908,3.8783,3.7306,3.6615,3.6554,3.5782,3.5504,3.5504,3.5504,3.5504,3.5504,3.5504,3.5504,3.5504,0.0,0.0,0.0,0.0,0.0,0.0,0.0,0.0,0.0,0.0,0.0,0.0,0.0,0.0,0.0,0.0,0.0,0.0,3.1641,3.1698,3.2429,3.4083,3.2705,3.2295,3.3154,3.0714,2.9763,3.0475,2.9984,3.0021,3.0637,3.1769,3.235,3.2454,3.3678,3.4185,3.4192,3.4393,3.534,3.6787,3.7272,3.7955,3.8505,0.0,0.0,0.0,0.0,0.0,0.0,0.0,3.3788,3.366,3.2871,3.2614,3.2614,3.2614,3.2614,3.2797,3.3587,3.3788,3.4052,3.5225,3.5491,3.5925,3.7508,3.7827,3.8168,3.9425,3.987,4.0054,4.0054,3.9247,3.9008,4.0334,4.0004,4.0062,4.1361,4.1856,4.1952,4.1642,4.1586,4.1765,4.2228,4.2286,4.2391,4.2678,4.2162,4.1534,4.0949,4.0417,4.0138,4.007,4.007,4.007,4.007,4.007,4.007,4.007,4.007,4.007,4.007,3.9262,3.8908,3.8783,3.7306,3.6615,3.6554,3.5782,3.5504,3.5504,3.5504,3.5504,3.5504,3.5504,3.5504,3.5504,0.0,0.0,0.0,0.0,0.0,0.0,0.0,0.0,0.0,0.0,0.0,0.0,0.0,0.0,0.0,0.0,0.0,0.0,3.0775,3.0794,3.1006,3.1506,3.1181,3.1107,3.1372,3.1222,3.0554,2.9295,3.0135,3.1128,3.2288,3.2349,3.27,3.3298,3.3384,3.2817,3.1793,3.2796,3.3466,3.3916,3.4616,3.5548,3.6458,0.0,0.0,0.0,0.0,0.0,0.0,0.0,0.0,0.0,3.3074,3.3123,3.333,3.2779,3.2999,3.3495,3.3733,3.3947,3.4142,3.4511,3.4731,3.5102,3.5994,3.6795,3.7458,3.7972,3.7906,3.7922,3.8464,3.8134,3.7878,3.8095,3.8295,3.8551,3.8997,3.9928,4.0595,4.0747,4.1045,4.1296,4.1442,4.1479,4.1724,4.2355,4.1847,4.1538,4.1542,4.0967,4.0497,4.0121,4.007,4.007,4.007,4.007,4.007,4.007,4.007,4.007,4.007,3.9262,3.8908,3.8783,3.7306,3.6615,3.6554,3.5782,3.5504,3.5504,3.5504,3.5504,3.5504,3.5504,3.5504,3.5504,0.0,0.0,0.0,0.0,0.0,0.0,0.0,0.0,0.0,0.0,3.0626,0.0,0.0,0.0,0.0,0.0,0.0,0.0,0.0,3.0256,3.0448,3.0448,3.054,3.0606,3.0607,3.1458,3.12,2.9785,3.0875,3.1804,3.2515,3.2128,3.2095,3.2287,3.1706,3.0934,3.0074,3.076,3.1361,3.1943,3.2619,3.3702,3.4864,0.0,0.0,0.0,0.0,0.0,0.0,0.0,0.0,0.0,3.3245,3.3221,3.3382,3.2768,3.2724,3.2908,3.3238,3.3303,3.3361,3.378,3.4331,3.4943,3.5518,3.6306,3.6955,3.7229,3.7137,3.7189,3.7801,3.7672,3.7366,3.6886,3.7001,3.7099,3.708,3.7723,3.8334,3.8729,3.9282,3.9808,4.012,4.0451,4.0965,4.1772,4.127,4.1038,4.1315,4.0725,4.0298,4.0121,4.007,4.007,4.007,4.007,4.007,4.007,4.007,4.007,4.007,3.961,3.9368,3.9315,3.7774,3.6919,3.6554,3.5782,3.5504,3.5504,3.5504,3.5504,3.5504,3.5504,3.5504,3.5504,0.0,0.0,0.0,0.0,0.0,0.0,0.0,0.0,0.0,0.0,3.0644,3.0638,0.0,0.0,0.0,0.0,0.0,0.0,0.0,0.0,3.0429,3.0506,3.0564,3.0607,3.0607,3.1532,3.1788,3.134,3.1931,3.207,3.18,3.1433,3.0849,3.0079,2.9283,2.8912,2.8757,2.8457,2.919,3.0559,3.0959,3.2022,3.3379,3.318,0.0,0.0,0.0,0.0,0.0,0.0,0.0,0.0,3.3406,3.309,3.3055,3.2723,3.2107,3.1659,3.2412,3.2236,3.2088,3.3146,3.4262,3.5207,3.5681,3.6112,3.6461,3.6732,3.6963,3.7188,3.7526,3.737,3.7007,3.6288,3.598,3.5723,3.5375,3.5385,3.5584,3.6069,3.6916,3.7741,3.8524,3.9313,4.012,4.0863,4.0453,4.0231,4.0435,3.994,3.9778,3.9985,3.9969,4.0003,4.007,4.007,4.007,4.007,4.007,4.007,4.007,4.007,4.007,3.9901,3.8486,3.7381,3.6554,3.5958,3.5619,3.5504,3.5554,3.5554,3.5504,3.5504,3.5504,3.5504,0.0,0.0,0.0,0.0,0.0,0.0,0.0,0.0,0.0,0.0,0.0,0.0,0.0,0.0,0.0,0.0,0.0,0.0,0.0,0.0,2.9836,3.0467,3.0602,3.0656,3.0594,3.213,3.248,3.161,3.218,3.2203,3.1781,3.1359,3.0504,2.9308,2.8786,2.8015,2.7182,2.7131,2.7607,2.8405,2.8159,2.9023,3.0591,3.1357,3.2172,0.0,0.0,0.0,0.0,0.0,0.0,0.0,3.3845,3.3767,3.3804,3.3125,3.2631,3.2394,3.2559,3.2362,3.2316,3.3185,3.4262,3.5073,3.4981,3.4815,3.4651,3.4389,3.4588,3.4891,3.5169,3.5152,3.5036,3.4651,3.4532,3.4189,3.3275,3.3695,3.427,3.4739,3.6069,3.7139,3.7704,3.8487,3.9132,3.9511,3.9823,3.9698,3.9146,3.9392,3.9364,3.8922,3.914,3.9495,4.007,4.007,4.007,4.007,4.007,4.007,4.007,4.007,3.9782,3.9139,3.8799,3.7873,3.6676,3.7115,3.66,3.5554,3.6117,3.6006,3.5504,3.5504,3.5504,3.5504,0.0,0.0,0.0,0.0,0.0,0.0,0.0,0.0,0.0,0.0,0.0,0.0,0.0,0.0,0.0,0.0,0.0,0.0,0.0,0.0,2.9737,3.0564,3.0707,3.1119,3.1819,3.275,3.3096,3.2891,3.276,3.2305,3.1544,3.0872,2.9995,2.8935,2.818,2.754,2.6954,2.6791,2.6911,2.7249,2.7023,2.7619,2.8819,2.9591,3.041,3.1254,3.2324,0.0,0.0,0.0,0.0,0.0,0.0,0.0,3.4326,3.3743,3.3105,3.2522,3.2137,3.2113,3.2448,3.3511,3.4538,3.519,3.4774,3.4572,3.4245,3.3543,3.367,3.3876,3.3939,3.3964,3.3812,3.3334,3.3237,3.2965,3.2267,3.2546,3.2965,3.3434,3.4767,3.5747,3.6,3.7314,3.8175,3.8332,3.87,3.8903,3.8854,3.8825,3.8912,3.9084,3.9353,3.9713,4.007,4.007,4.007,4.007,4.007,4.007,4.007,4.007,3.9885,3.9437,3.9086,3.8437,3.77,3.7748,3.7354,3.6662,3.704,3.6935,3.66,3.66,3.6368,3.6006,0.0,0.0,0.0,0.0,0.0,0.0,0.0,0.0,0.0,0.0,0.0,0.0,0.0,0.0,0.0,0.0,0.0,0.0,0.0,0.0,0.0,3.0472,3.0758,3.1493,3.2736,3.2917,3.3186,3.3564,3.2987,3.216,3.1126,3.0355,2.958,2.875,2.7931,2.7512,2.7396,2.6954,2.6808,2.6791,2.6657,2.6995,2.7673,2.8099,2.8762,2.9515,3.0392,3.1374,3.2361,3.2866,0.0,0.0,0.0,0.0,3.4525,3.4389,3.3589,3.2625,3.2114,3.2337,3.2972,3.4136,3.4922,3.5304,3.4813,3.4653,3.4338,3.3382,3.3309,3.3388,3.3321,3.3245,3.3,3.2374,3.2313,3.2162,3.1763,3.1696,3.1861,3.2298,3.3505,3.4312,3.4375,3.6279,3.7477,3.7369,3.7762,3.8235,3.8672,3.8254,3.8312,3.887,3.9525,3.9863,3.9834,4.0003,4.007,4.007,4.007,4.007,4.007,4.007,4.007,4.007,3.9385,3.9032,3.8854,3.8374,3.8035,3.7806,3.7921,3.7921,3.7822,3.7822,3.7397,3.6783,0.0,0.0,0.0,0.0,0.0,0.0,0.0,0.0,0.0,0.0,2.7782,2.7988,0.0,0.0,0.0,0.0,0.0,0.0,2.7022,0.0,0.0,2.9734,3.0487,3.0937,3.1032,3.1767,3.1782,3.0996,3.1635,3.1462,3.0496,3.0151,2.957,2.8796,2.8657,2.8304,2.7794,2.7378,2.721,2.7129,2.6419,2.6399,2.6877,2.7183,2.7842,2.8754,2.9478,3.0492,3.1464,3.156,3.2181,0.0,0.0,0.0,3.4063,3.477,3.4188,3.3426,3.4086,3.4472,3.4811,3.522,3.5243,3.507,3.4754,3.4486,3.408,3.3343,3.2898,3.2737,3.302,3.273,3.2391,3.2347,3.2313,3.2059,3.1353,3.1291,3.1449,3.1861,3.3019,3.3937,3.4344,3.6279,3.7308,3.6855,3.7927,3.8256,3.7465,3.7636,3.7264,3.6174,3.7865,3.8798,3.8771,3.9681,4.007,4.007,4.007,4.007,4.007,4.007,4.007,4.007,4.002,3.9542,3.8978,3.9558,3.9011,3.7863,3.8525,3.8358,3.7822,3.7822,3.7748,3.7632,0.0,0.0,0.0,0.0,0.0,0.0,0.0,0.0,0.0,0.0,0.0,2.6816,0.0,0.0,0.0,2.5723,2.5703,2.6055,2.6894,2.8125,2.9055,2.959,2.9961,3.0566,3.1406,3.1804,3.1533,3.0568,3.1438,3.1136,2.9752,3.0113,2.9927,2.9283,2.895,2.8573,2.8156,2.7794,2.7636,2.7589,2.7238,2.6808,2.6487,2.7028,2.7062,2.7034,2.8202,2.9254,3.0152,3.072,3.1558,3.2458,3.2969,0.0,0.0,0.0,3.4262,3.413,3.4187,3.4272,3.4391,3.4527,3.4827,3.4981,3.451,3.4311,3.4056,3.3616,3.2965,3.2456,3.2348,3.1965,3.1664,3.1664,3.1664,3.1562,3.1241,3.119,3.1351,3.1752,3.2529,3.3229,3.3677,3.5184,3.6197,3.6455,3.7158,3.7729,3.8032,3.7461,3.6864,3.6255,3.7746,3.8309,3.7778,3.931,4.007,4.007,4.007,4.007,4.007,4.007,4.007,4.007,4.007,3.9901,3.961,3.9952,3.9679,3.9119,3.9437,3.9385,3.9102,3.9102,3.8816,3.8414,0.0,0.0,0.0,0.0,0.0,0.0,0.0,0.0,0.0,0.0,0.0,0.0,0.0,0.0,0.0,0.0,2.5703,2.5977,2.6621,2.748,2.8262,2.8906,2.9355,3.0156,3.1367,3.1601,3.126,3.0321,3.0965,3.0571,2.9254,2.9863,3.0002,2.971,2.9245,2.8833,2.854,2.8183,2.8037,2.8002,2.7713,2.7091,2.6394,2.6951,2.6557,2.59,2.7385,2.8298,2.893,2.9751,3.0684,3.1563,3.2039,3.2784,0.0,0.0,0.0,3.5058,3.4413,3.4381,3.4492,3.427,3.4628,3.4889,3.4423,3.4218,3.4043,3.3842,3.3196,3.2533,3.2057,3.1545,3.119,3.119,3.119,3.119,3.119,3.119,3.1329,3.1603,3.2144,3.2648,3.2983,3.4222,3.5275,3.5917,3.6552,3.7339,3.8358,3.7485,3.6939,3.6816,3.772,3.7818,3.7037,3.8871,3.9715,3.9529,3.9715,3.98,3.98,3.98,3.9901,4.007,4.007,3.9969,3.98,3.98,3.9698,3.9546,3.9732,3.9698,3.958,3.9935,3.9596,3.896,0.0,0.0,0.0,0.0,0.0,0.0,0.0,0.0,0.0,0.0,0.0,0.0,2.5742,2.5723,2.5703,2.5703,2.5703,2.5723,2.5762,2.6582,2.709,2.7129,2.8711,0.0,2.9726,3.0527,3.0508,2.955,2.9599,2.9513,2.9292,2.9274,2.9474,2.9798,2.971,2.9398,2.8929,2.854,2.8376,2.827,2.721,2.6745,2.6682,2.6717,2.6446,2.6221,2.7443,2.7933,2.8035,2.8396,2.8957,2.9715,3.0753,3.1811,3.286,0.0,0.0,0.0,3.5633,3.5974,3.6378,3.5608,3.5066,3.4714,3.4674,3.4232,3.3815,3.3788,3.3465,3.3014,3.255,3.175,3.119,3.119,3.119,3.119,3.119,3.119,3.119,3.123,3.1986,3.2517,3.2517,3.4009,3.5009,3.5045,3.6531,3.7496,3.7551,3.7612,3.7494,3.7173,3.7172,3.7039,3.6806,3.8294,3.87,3.8024,3.8717,3.9056,3.9056,3.9056,3.9428,4.007,4.007,3.9681,3.9056,3.9056,3.865,3.8091,3.8768,3.8633,3.8176,3.9563,3.9631,3.9091,0.0,0.0,0.0,0.0,0.0,0.0,0.0,0.0,0.0,0.0,0.0,0.0,0.0,2.5619,2.5644,2.5644,2.5684,2.5703,2.5703,2.5996,2.6426,2.6973,2.8125,2.9023,2.959,3.0365,3.0074,2.8664,2.9235,2.8872,2.7705,2.8235,2.8453,2.8428,2.9301,2.9436,2.8994,2.8839,2.8791,2.8755,2.8342,2.7428,2.6401,2.7183,2.6619,2.5576,2.6986,2.7678,2.7954,2.829,2.892,2.9664,3.0036,3.102,3.2275,3.357,3.4372,3.4949,3.5366,3.5309,3.4979,3.4523,3.4685,3.4908,3.4734,3.4375,3.4068,3.4068,3.3607,3.3045,3.2583,3.2004,3.1507,3.1252,3.119,3.119,3.119,3.119,3.1389,3.1967,3.2316,3.2713,3.3284,3.388,3.4449,3.4954,3.5569,3.6138,3.6688,3.6457,3.6327,3.6339,3.6509,3.6898,3.7499,3.755,3.7922,3.8599,3.8396,3.8531,3.8988,3.8988,3.914,3.9377,3.9377,3.9225,3.8988,3.8988,3.8565,3.7939,3.8193,3.8142,3.7973,3.8481,3.8514,3.8328,0.0,0.0,0.0,0.0,0.0,0.0,0.0,0.0,0.0,2.5466,0.0,0.0,0.0,0.0,2.5601,2.5625,2.5664,2.5699,2.5662,2.5678,2.5915,2.6504,2.7656,2.8555,2.9141,3.0161,2.9875,2.8193,2.8777,2.8305,2.6854,2.7394,2.7653,2.7687,2.8869,2.9139,2.8706,2.8911,2.8994,2.8975,2.8723,2.7821,2.6763,2.7569,2.697,2.5903,2.7203,2.7765,2.7926,2.8156,2.8693,2.9282,2.9381,3.0452,3.2019,3.3833,3.4097,3.3981,3.4725,3.4558,3.423,3.4332,3.4735,3.5034,3.487,3.451,3.42,3.42,3.3768,3.3255,3.2809,3.2332,3.1825,3.1291,3.119,3.119,3.119,3.119,3.1449,3.2179,3.2417,3.2777,3.3522,3.3734,3.4027,3.4578,3.4844,3.5247,3.5844,3.561,3.5608,3.5897,3.6383,3.6876,3.7371,3.7177,3.7296,3.7855,3.7635,3.7922,3.8633,3.8633,3.8903,3.936,3.936,3.9089,3.8616,3.8345,3.7804,3.7161,3.7432,3.7364,3.7195,3.7719,3.7736,3.7567,0.0,0.0,0.0,0.0,0.0,0.0,0.0,0.0,2.5524,2.5601,0.0,0.0,0.0,0.0,0.0,2.5682,2.5703,2.5671,2.5601,2.5601,2.5601,2.5604,2.7265,2.8223,2.8301,2.9877,2.9886,2.8193,2.8193,2.7731,2.6855,2.6796,2.7065,2.7672,2.8402,2.8474,2.807,2.8706,2.898,2.8883,2.8117,2.7787,2.7787,2.7824,2.7547,2.7295,2.8062,2.8156,2.7869,2.7869,2.8102,2.8435,2.8722,3.0076,3.2057,3.4597,3.4578,3.3705,0.0,0.0,0.0,3.5238,3.5285,3.5105,3.5105,3.4656,3.4223,3.42,3.4012,3.3707,3.3273,3.2827,3.2248,3.1368,3.123,3.119,3.119,3.119,3.1351,3.1789,3.223,3.2681,3.3184,3.3578,3.3807,3.3807,3.4523,3.4954,3.4954,3.5266,3.5588,3.5826,3.6712,3.6925,3.6381,3.7084,3.6861,3.5656,3.64,3.7144,3.7872,3.7872,3.865,3.9969,3.9969,3.9174,3.7821,3.711,3.6349,3.569,3.6451,3.6282,3.5791,3.7297,3.7381,3.6857,0.0,0.0,0.0,0.0,0.0,0.0,2.6947,2.6105,2.5537,0.0,0.0,0.0,2.5374,2.5466,2.5541,2.5624,2.5664,2.5671,2.5601,2.5601,2.559,2.5529,2.724,2.8203,2.8223,2.9796,2.981,2.8133,2.8076,2.7315,2.5889,2.5879,2.5959,2.614,2.6724,2.688,2.6794,2.7886,2.8276,2.8117,2.7879,2.7787,2.782,2.8118,2.7633,2.6916,2.7425,2.7542,2.7487,2.7487,2.7819,2.8359,2.8916,2.9851,3.0869,3.1588,3.1596,3.1347,3.1341,0.0,0.0,0.0,0.0,0.0,3.5383,3.5102,3.4794,3.4593,3.4311,3.3899,3.3314,3.3075,3.2809,3.2213,3.162,3.119,3.119,3.119,3.1504,3.2213,3.2417,3.2809,3.355,3.3734,3.3807,0.0,3.4009,3.4137,3.4137,3.4449,3.4663,3.473,3.5723,3.6194,3.6043,3.6493,3.6817,3.6973,3.6259,3.6349,3.7094,3.7094,3.7313,3.7686,3.7686,3.7466,3.711,3.7449,3.6823,3.5639,3.5859,3.5808,3.5673,3.6096,3.6129,3.596,0.0,0.0,0.0,0.0,0.0,2.7688,2.6442,2.5859,2.5543,0.0,0.0,0.0,2.5376,2.5446,2.5542,2.5624,2.5684,2.5664,2.5561,2.5562,2.5494,2.5343,2.676,2.7569,2.7539,2.9156,2.938,2.8099,2.8035,2.7334,2.6022,2.5664,2.5495,2.553,2.6188,2.6173,2.5761,2.6877,2.7568,2.792,2.7831,2.7989,2.8333,2.8567,2.8124,2.7415,2.752,2.7439,2.7255,2.7115,2.7435,2.7968,2.8373,2.9107,2.9887,3.0279,3.0297,3.0215,3.036,3.1623,3.3103,3.3968,0.0,0.0,3.5045,3.5021,3.4956,3.4433,3.4266,3.408,3.3697,3.3382,3.3105,3.2858,3.2179,3.1694,3.1487,3.1329,3.1524,3.2384,3.2484,3.284,3.3707,3.3807,3.3807,3.3807,3.3807,3.3807,3.3807,3.4287,3.4588,3.4588,3.589,3.6448,3.6239,3.6766,3.7115,3.737,3.6606,3.6578,3.7086,3.7335,3.7445,3.7575,3.7799,3.7698,3.7456,3.7887,3.7107,3.5622,3.5622,3.5622,3.5622,3.5622,3.5622,3.5622,0.0,0.0,2.9771,2.8362,2.8025,2.7431,2.5886,2.5556,2.5517,0.0,2.5466,2.5399,2.5438,2.5486,2.555,2.5679,2.5683,2.5637,2.5517,2.5503,2.5384,2.5101,2.611,2.6633,2.6576,2.8286,2.8831,2.8091,2.8035,2.7584,2.6786,2.5909,2.55,2.5522,2.6249,2.6002,2.5091,2.5831,2.6885,2.8016,2.7793,2.8213,2.8994,2.8994,2.8749,2.8368,2.802,2.7619,2.7241,2.6859,2.7026,2.7393,2.7414,2.8013,2.891,2.9728,2.9945,2.992,3.0152,3.1499,3.3012,3.378,3.4658,0.0,3.4447,3.4657,3.4795,3.4108,3.4149,3.433,3.4381,3.3879,3.3477,3.3567,3.3082,3.2523,3.1968,3.1582,3.1657,3.2484,3.2583,3.2903,3.3734,3.3807,3.3807,3.3807,3.3807,3.3807,3.3807,3.4486,3.4862,3.4862,3.6395,3.6985,3.6519,3.7334,3.7559,3.7124,3.7175,3.7294,3.7488,3.7981,3.8269,3.8478,3.8942,3.8757,3.8178,3.8178,3.7213,3.5766,3.5766,3.5766,3.5766,3.5766,3.5766,3.5766,0.0,2.9704,2.9059,2.8917,2.8228,2.742,2.667,2.5952,2.5507,2.5515,2.5398,2.5264,2.5107,2.5332,2.5512,2.5539,2.5636,2.5637,2.5517,2.5503,2.5367,2.5037,2.5939,2.646,2.6447,2.8201,2.8769,2.8012,2.8009,2.7582,2.6776,2.5904,2.5506,2.5503,2.5653,2.5553,2.5243,2.5249,2.6167,2.7593,2.7214,2.7848,2.8994,2.8994,2.8749,2.8368,2.802,2.7619,2.7244,2.6842,2.6785,2.6872,2.685,2.699,2.7174,2.7374,2.845,2.9495,2.912,3.064,3.2368,3.2539,3.3361,0.0,3.4876,3.468,3.4471,3.4841,3.4926,3.5059,3.5484,3.5282,3.5273,3.5903,3.4911,3.3655,3.2539,3.2282,3.2451,3.3014,3.3075,3.3273,3.3734,3.3807,3.3807,3.3807,3.3807,3.3807,3.3807,3.3954,3.4027,3.4027,3.4981,3.5439,3.5334,3.6399,3.6888,3.6786,3.7057,3.7223,3.7249,3.7365,3.7453,3.7461,3.7595,3.7544,3.7403,3.7403,3.72,3.6904,3.6904,3.6904,3.6904,3.6904,3.6904,3.6777,2.9333,2.9238,2.8706,2.8408,2.791,2.7194,2.6128,2.5662,2.5415,2.5307,2.5206,2.5152,2.519,2.5387,2.5517,2.5556,2.5601,2.5612,2.5549,2.5484,2.5329,2.5067,2.5469,2.5725,2.5748,2.7067,2.7821,2.7998,2.799,2.78,2.744,2.6553,2.5937,2.5556,2.5507,2.5466,2.5418,2.5683,2.6473,2.751,2.7073,2.7805,2.9181,2.9044,2.8749,2.8394,2.821,2.7776,2.7247,2.7004,2.636,2.5786,2.6314,2.628,2.6234,2.7158,2.7915,2.8646,2.9564,3.0655,3.1648,3.2054,3.3039,0.0,0.0,3.442,3.4779,3.5249,3.5174,3.5242,3.5951,3.6547,3.6769,3.6362,3.5521,3.4862,3.4626,3.3382,3.2681,3.3136,3.3214,3.3361,3.3762,3.3807,3.3807,3.3807,3.3807,3.3807,3.3807,3.3807,3.3807,3.3807,3.4568,3.499,3.499,3.6407,3.7116,3.7116,3.767,3.7826,3.7542,3.7826,3.7791,3.756,3.7394,3.7569,3.7911,3.7514,3.7587,3.7913,3.7414,3.719,3.719,3.719,3.6925,3.6481,2.8683,2.8746,2.8337,2.7837,2.7594,2.6982,2.5552,2.5363,2.5307,2.5101,2.5068,2.5118,2.5301,2.5408,2.5515,2.5577,2.5587,2.5589,2.5605,2.5484,2.5313,2.5101,2.5045,2.5051,2.5073,2.5956,2.6841,2.7737,2.7758,2.7796,2.7822,2.6954,2.6211,2.5605,2.5535,2.5511,2.5543,2.6304,2.7036,2.7676,2.7371,2.8147,2.9434,2.916,2.8892,2.8597,2.8446,2.7946,2.7282,2.7308,2.6352,2.5248,2.5672,2.558,2.5671,2.7234,2.7564,2.7823,2.969,3.0378,3.0805,3.1835,3.282,3.3597,0.0,0.0,0.0,3.5569,3.5312,3.5308,3.6279,3.7167,3.7543,3.6876,3.6111,3.5899,3.677,3.4783,3.3427,3.3973,3.3894,3.3938,3.4257,3.4284,3.4156,3.3825,3.41,3.4211,3.4045,3.4027,3.4027,3.4027,3.4642,3.4917,3.4752,3.6266,3.7019,3.7019,3.7845,3.8081,3.783,3.8277,3.8227,3.7794,3.7595,3.7863,3.8414,3.7588,3.7826,3.8627,3.7791,3.7487,3.7487,3.7487,3.6934,3.6168,2.8389,2.804,2.7582,2.8202,2.7714,2.6986,2.6263,2.5678,2.5244,2.5041,2.5152,2.5214,2.5065,2.5261,2.544,2.5517,2.5503,2.5538,2.5597,2.5528,2.5369,2.5111,2.5091,2.5056,2.5,2.5977,2.658,2.6755,2.6885,2.6941,2.6926,2.6054,2.5626,2.5605,2.5584,2.5565,2.5553,2.6354,2.7207,2.8071,2.8439,2.9033,2.9643,2.9415,2.933,2.9209,2.8603,2.7946,2.7379,2.7896,2.7568,2.6568,2.4545,2.4513,2.5323,2.5822,2.6716,2.7531,2.7683,2.8505,2.9737,3.1624,3.2025,3.2736,3.5689,0.0,3.4695,3.6008,0.0,3.5773,3.6882,0.0,0.0,3.9509,3.7711,3.6344,3.7426,3.6578,3.6149,3.6927,3.6373,3.5981,3.6009,3.6009,3.5404,3.3917,3.5183,3.5679,3.4899,3.4844,3.4844,3.4844,3.4935,3.4642,3.3935,3.4835,3.5265,3.5284,3.6156,3.6897,3.7546,3.7624,3.7606,3.7528,3.7514,3.7562,3.7551,3.6762,3.7331,3.8707,3.8578,3.8515,3.8515,3.8515,3.8034,3.7229,2.7649,2.7597,2.7424,2.8108,2.7653,2.6956,2.6236,2.555,2.5099,2.501,2.5057,2.5099,2.501,2.5231,2.5428,2.5492,2.5461,2.5498,2.5649,2.5527,2.543,2.5383,2.5201,2.5138,2.5231,2.5526,2.6006,2.6652,2.6712,2.679,2.6857,2.644,2.6045,2.5684,2.6152,2.6358,2.6455,2.7726,2.852,2.8956,2.9561,2.9932,3.0109,2.9608,2.931,2.9093,2.8572,2.8192,2.8014,2.8491,2.7827,2.6692,2.6113,2.5603,2.541,2.6508,2.6873,2.7206,2.8551,2.8969,2.9586,3.1796,3.2228,3.2849,3.5685,3.5375,3.4939,3.6486,0.0,0.0,0.0,0.0,0.0,0.0,3.8174,3.8781,3.9252,3.838,3.7461,3.6851,3.8126,3.8375,3.6753,3.6978,3.6278,3.3981,3.5789,3.6413,3.5064,3.5495,3.5752,3.5752,3.5247,3.4825,3.4504,3.4825,3.499,3.5009,3.5881,3.6468,3.6798,3.6798,3.7055,3.7489,3.7,3.7055,3.7452,3.6615,3.6964,3.7991,3.7991,3.8285,3.8707,3.8707,3.79,3.6743,2.6735,2.7075,2.7304,2.7901,2.7567,2.6946,2.6159,2.5598,2.5266,2.5266,2.5266,2.5197,2.5018,2.5179,2.5349,2.5466,2.5428,2.5466,2.562,2.5531,2.5496,2.5566,2.5362,2.5302,2.5428,2.5302,2.5601,2.6364,2.6361,2.6431,2.6527,2.6466,2.6178,2.5703,2.6309,2.6738,2.709,2.8474,2.9253,2.959,3.0255,3.0481,3.0362,2.9715,2.9332,2.9048,2.8707,2.8496,2.8476,2.8994,2.8041,2.6773,2.7385,2.6731,2.5928,2.6992,2.7113,2.7267,2.9013,2.9124,2.9278,3.1791,3.2391,3.3054,3.5524,3.5365,3.5073,3.6396,3.5918,0.0,0.0,0.0,3.5806,3.6723,0.0,3.9449,4.0367,3.9749,3.8637,3.7124,3.9977,4.0973,3.8201,3.8615,3.7947,3.5298,3.7182,3.7692,3.6017,3.6454,3.6749,3.6749,3.6048,3.5587,3.5367,3.5119,3.499,3.499,3.5422,3.5734,3.5936,3.5936,3.6266,3.678,3.6193,3.6285,3.6743,3.5954,3.6358,3.7489,3.7239,3.779,3.8707,3.8707,3.7826,3.6615,2.5662,2.6377,2.7101,2.7705,2.7457,2.6975,2.6293,2.6067,2.5982,2.5982,2.5982,2.5716,2.5063,2.501,2.5107,2.538,2.5409,2.5428,2.5505,2.5553,2.5576,2.5508,2.5566,2.5561,2.5495,2.5563,2.5563,2.5544,2.5547,2.5551,2.5543,2.5531,2.5567,2.5605,2.5703,2.6211,2.7051,2.789,2.8768,2.966,3.0331,3.0447,3.017,2.9826,2.9551,2.9351,2.9089,2.8725,2.8521,2.9305,2.8475,0.0,0.0,2.7349,2.6971,2.6638,2.7168,2.7869,2.795,2.795,2.8614,3.1394,3.2304,3.3155,3.5707,3.5485,3.4844,3.5429,3.5114,3.4737,3.4748,3.5181,3.6561,3.9807,3.7704,0.0,0.0,4.048,3.9979,3.878,4.2262,4.3706,4.1033,4.1496,4.0967,3.8531,3.9868,4.0052,3.8392,3.801,3.7851,3.7851,3.7552,3.7037,3.6266,3.544,3.499,3.499,3.4247,3.4302,3.5027,3.5027,3.5045,3.5064,3.5045,3.5045,3.5009,3.4211,3.5312,3.7434,3.6633,3.7312,3.8707,3.8707,3.8175,3.7441,2.574,2.5893,2.6127,2.6891,2.6988,2.6877,2.6517,2.6428,2.6358,2.6208,2.6558,2.6698,2.6483,2.6051,2.5937,2.6304,2.5765,2.5447,2.5563,2.5582,2.5589,2.5566,2.5586,2.5581,2.5561,2.5546,2.5521,2.5503,2.5469,2.5751,2.635,2.5781,2.5848,2.6465,2.6523,2.7031,2.793,2.8769,2.9634,3.0479,3.0562,3.0524,3.0355,2.988,2.957,2.9372,2.9089,2.8929,0.0,2.9101,2.8662,2.7966,2.8074,2.7888,2.7637,2.7717,2.7976,2.829,0.0,0.0,2.913,3.1133,3.187,3.2685,3.4914,3.4632,3.4073,3.4989,3.4599,3.4095,3.4092,3.487,3.5874,3.7011,3.8089,3.9208,0.0,4.0509,4.036,3.9948,4.312,4.4997,4.409,4.2514,4.0713,3.865,3.9433,3.9524,3.8452,3.879,3.9043,3.9043,3.7853,3.7111,3.6831,3.5479,3.4689,3.4476,3.4198,3.4109,3.4211,3.4211,3.4504,3.499,3.499,3.499,3.4972,3.4697,3.5092,3.5881,3.6174,3.7081,3.8211,3.8559,3.8193,3.7331,2.5349,2.5207,2.5199,2.597,2.602,2.6148,2.6631,2.6677,2.6626,2.6636,2.6716,2.6767,2.6761,2.6124,2.5857,2.6265,2.5762,2.56,2.5994,2.6072,2.6099,2.6057,2.6087,2.5957,2.5644,2.5588,2.5724,2.6035,2.5661,2.6093,2.7266,2.6082,2.5998,2.6848,2.661,2.7169,2.8301,2.8867,2.9798,3.0884,3.0686,3.0571,3.047,2.9996,2.9731,2.9589,0.0,2.9206,2.9156,2.9156,2.8915,2.859,2.8446,2.8342,2.8308,2.8368,2.8496,2.8658,2.8929,2.8994,0.0,3.0632,3.1344,0.0,3.3781,3.3687,3.3545,3.4518,3.377,3.3112,3.3696,3.4718,3.5513,3.5488,3.8315,4.0496,0.0,4.0508,4.0569,4.0726,4.3618,4.5276,4.446,4.3427,4.182,3.9375,4.0229,4.0342,3.9202,3.9583,3.9806,3.9775,3.8304,3.7543,3.7543,3.5939,3.5004,3.4809,3.4396,3.4099,3.3935,3.3842,3.4082,3.4578,3.4578,3.4578,3.4578,3.4668,3.4913,3.5264,3.621,3.7199,3.8072,3.8312,3.8145,3.7635,2.4599,2.4395,2.4441,2.5095,2.4718,2.489,2.6655,2.6792,2.6809,2.7209,2.6549,2.6078,2.6113,2.5359,2.5018,2.5437,2.5499,2.5868,2.6743,2.6868,2.6929,2.6892,2.6952,2.6601,2.578,2.58,2.6211,2.7051,2.6152,2.6583,2.8213,2.6477,2.6111,2.6882,2.6034,2.6638,2.8261,2.8262,2.9277,3.0879,3.0681,3.061,3.0571,3.0161,3.0013,2.9984,2.9782,2.957,2.9412,2.9412,2.9225,2.8929,2.854,2.8682,2.8929,2.854,2.8682,2.8994,2.8994,2.8994,2.9177,2.9953,3.0742,0.0,0.0,0.0,3.3142,3.3999,3.2737,3.1958,3.3549,3.4609,3.5305,3.5475,3.831,4.0511,4.0504,4.0511,4.0668,4.1146,4.3657,4.4559,4.2563,4.4105,4.397,4.0873,4.2124,4.2297,4.0673,4.0408,4.0257,4.0196,3.8963,3.8278,3.8278,3.6696,3.5885,3.5845,3.4757,3.4223,3.4218,3.3961,3.3842,3.3842,3.3842,3.3842,3.3868,3.4123,3.4708,3.5571,3.666,3.7599,3.8309,3.8065,3.8165,3.8369,2.5483,2.5117,2.4821,2.5137,2.4793,2.5093,2.704,2.6884,2.6826,2.7617,2.7233,2.7123,2.7727,2.6513,2.5882,2.6395,2.5853,2.5871,2.6746,2.6279,2.6221,2.6804,2.6834,2.6765,2.6599,2.7173,2.7599,2.7811,2.7574,2.8025,2.9045,2.7351,2.7304,2.8599,2.719,2.7528,2.9162,2.9164,2.9844,3.0898,3.0739,3.0649,3.0583,0.0,3.0337,3.0241,2.9848,2.957,2.9412,2.9412,2.9225,2.8994,2.8863,2.8929,2.8994,2.8881,2.8929,2.8994,2.8994,2.8994,2.9049,2.925,2.9916,3.0607,0.0,0.0,0.0,0.0,0.0,0.0,0.0,3.2968,3.2547,3.5085,3.8319,4.05,4.05,4.0504,4.0662,4.1135,4.157,4.2591,4.4542,4.2197,4.1104,4.2396,4.1178,4.0764,4.1645,0.0,4.1582,4.1514,3.938,3.818,3.8084,3.6438,3.5496,3.5304,3.5002,3.4755,3.4572,3.4486,3.4483,3.4483,3.4483,3.4483,3.4464,3.4529,3.4703,3.5042,3.6521,3.7747,3.8705,3.9029,3.9209,3.9184,2.6153,2.5488,2.4837,2.4867,2.4684,2.4995,2.6531,2.7002,2.747,2.8341,2.7557,2.7272,2.8166,2.6597,2.5649,2.606,2.5725,2.5893,2.6822,2.6447,2.6583,2.7429,2.742,2.7431,2.7462,2.7875,2.8264,2.8616,2.8303,2.8768,2.9932,2.8252,2.8135,2.9284,2.7967,2.8118,2.94,2.9832,3.0586,3.1465,3.1328,3.1255,0.0,3.1095,3.0814,3.0424,3.0099,2.9848,2.9661,2.9661,2.9455,2.916,2.916,2.9089,2.8994,2.8994,2.8994,2.8994,2.8994,2.8994,2.8994,2.8994,2.9347,2.9839,3.0445,3.0827,3.1467,0.0,3.3696,3.4246,0.0,3.3719,3.3742,3.7122,3.9277,4.0504,4.05,3.9242,3.9031,4.0977,4.0785,4.1001,4.228,4.0707,4.0319,4.1986,4.0873,4.0687,0.0,4.2166,4.1966,4.1485,4.0058,3.8896,3.8099,3.7084,3.6142,3.5273,3.5174,3.5016,3.487,3.4754,3.4694,3.4694,3.4694,3.4902,3.5224,3.5362,3.5609,3.6103,3.7509,3.8687,3.958,3.9872,3.9776,3.9452,2.6362,2.5506,2.4617,2.4388,2.4488,2.4834,2.5597,2.684,2.7955,2.8699,2.7346,2.668,2.7714,2.6003,2.4923,2.5206,2.5395,2.597,2.707,2.6948,2.7314,2.8415,2.8277,2.8233,2.8341,2.8399,2.8814,2.9644,2.8875,2.9332,3.0859,2.9159,2.8782,2.9525,2.857,2.861,2.9434,3.0434,3.1367,3.2168,3.207,3.2015,3.1979,3.1725,3.1168,3.0487,3.0417,3.0241,2.9999,2.9999,2.9746,2.9434,2.9434,2.927,2.9093,2.9093,2.9093,2.9093,2.9093,2.9067,2.9044,2.9089,2.9048,2.9263,3.029,3.0772,3.1347,3.2575,3.3897,3.4969,0.0,0.0,3.7117,4.0027,4.0489,4.0504,4.0504,3.7997,3.7386,4.0712,4.075,0.0,3.8741,3.9753,4.0627,4.1054,4.1149,4.1561,0.0,0.0,4.208,4.1195,4.0776,3.9903,3.8541,3.8065,3.7161,3.582,3.5369,3.5138,3.5138,3.4908,3.485,3.4945,3.4945,3.5418,3.6196,3.6441,3.7043,3.7921,3.8908,3.9777,4.0489,4.0489,4.0046,3.9546,2.5079,2.4836,2.4442,2.3574,2.4413,2.5194,2.5055,2.5368,2.5974,2.6999,2.572,2.5139,2.6236,2.5439,2.4942,2.5321,2.546,2.6188,2.7792,2.6612,2.688,2.9179,2.8539,2.8423,2.9075,2.9752,3.0525,3.1434,3.0606,3.0782,3.1894,3.0106,2.9679,3.0342,2.9398,2.9463,3.0329,3.1351,3.1875,3.2031,3.2129,3.2107,3.1914,3.1104,3.0683,3.0487,3.0417,3.0241,2.9999,2.9999,2.9845,2.9643,2.9643,2.9607,2.957,2.957,2.957,2.957,2.957,2.9455,2.9373,2.9551,2.9286,2.9172,2.9872,3.0,3.0151,3.0759,3.1111,3.2167,3.4983,0.0,3.9806,4.0404,4.0504,4.0496,4.0501,3.9991,3.988,4.053,4.054,4.0463,4.0373,3.9719,4.0354,4.2898,4.2472,4.277,0.0,0.0,4.3359,0.0,4.0948,0.0,0.0,0.0,3.7142,3.7546,3.6099,3.5432,3.5432,3.5383,3.5733,3.6347,3.6347,3.6846,3.7648,3.7679,3.8212,3.9019,3.9204,3.9777,4.0489,4.0489,4.0412,4.0296,2.5724,2.5186,2.4639,2.3879,2.439,2.4948,2.4987,2.4704,2.5176,2.7069,2.6241,2.5696,2.6246,2.5405,2.4883,2.5065,2.533,2.5868,2.6758,2.6504,2.7098,2.8796,2.8777,2.913,2.9956,3.0285,3.0922,3.185,3.1014,3.134,3.2745,3.1417,3.0979,3.1241,3.0263,3.0321,3.1214,3.1681,3.1941,3.2051,3.2559,3.25,3.2051,3.1528,3.1009,3.0544,3.0487,3.0349,3.0209,3.0209,3.0047,2.9861,2.9861,2.978,2.9696,2.9696,2.9696,2.9696,2.9696,2.9644,2.957,2.9678,2.9475,2.9362,2.9791,2.9603,2.9551,3.026,3.04,3.1257,3.411,3.7337,0.0,0.0,3.7909,3.8499,4.0269,3.9001,3.791,3.7907,3.9427,4.0642,4.0974,4.0386,4.043,4.1492,4.1603,4.1768,4.2071,0.0,4.3535,0.0,0.0,0.0,3.9922,0.0,3.7279,3.6757,3.5949,3.5545,3.5493,3.5493,3.5949,3.6699,3.6699,3.745,3.87,3.9123,3.9527,3.9912,3.9912,4.0162,4.0489,4.0489,4.0489,4.0489,2.6561,2.5756,2.5014,2.4009,2.4226,2.4646,2.4851,2.45,2.4941,2.7115,2.6506,2.5961,2.6135,2.5344,2.4809,2.4848,2.5228,2.5657,2.6106,2.666,2.7537,2.8767,2.9152,2.9725,3.0567,3.0481,3.0883,3.1792,3.0983,3.1437,0.0,3.2304,3.1904,3.1731,3.09,3.0842,0.0,0.0,3.1831,3.2048,3.2732,3.2695,3.2168,3.1855,3.1266,3.0602,3.0525,3.0467,3.0417,3.0398,3.0254,3.0089,3.0089,2.9973,2.9848,2.9848,2.9848,2.9848,2.9848,2.9815,2.9782,2.9832,2.9685,2.9607,2.9937,2.9641,2.9516,3.0253,3.097,3.1967,3.3501,3.5912,0.0,0.0,3.5584,3.6064,3.8698,3.6787,3.5227,3.5472,3.7836,3.929,3.8937,4.0146,4.0703,4.008,4.0875,4.1215,4.0797,0.0,0.0,0.0,0.0,3.9607,3.9262,0.0,3.768,3.6428,3.5861,3.5584,3.5526,3.5526,3.6045,3.6988,3.6988,3.7969,3.9604,4.0239,4.0489,4.0489,4.0489,4.0489,4.0489,4.0543,4.0543,4.0543,2.6233,2.5984,2.5331,2.2973,2.3852,2.4719,2.4241,2.4685,2.522,2.5674,2.4456,2.3835,2.4614,2.4764,2.4855,2.4967,2.5231,2.6114,2.7751,2.7276,2.7989,3.0374,2.9847,2.9798,3.0483,3.0498,3.0922,3.1792,3.0983,3.1118,0.0,3.1988,3.171,3.134,0.0,0.0,0.0,3.113,3.1677,3.1918,3.2059,3.2148,3.2109,3.1172,3.0779,3.066,3.0544,3.0506,3.0487,3.0417,3.0379,3.0367,3.0367,3.0355,3.0343,3.0343,3.0343,3.0343,3.0343,3.0169,3.0032,3.0267,3.0002,2.9804,3.0241,3.0297,3.029,3.0379,3.2875,3.4759,3.3939,3.4049,3.5157,0.0,0.0,3.4064,3.437,3.4169,3.4353,3.5391,3.5776,3.4782,3.1705,3.7337,4.1136,4.1066,4.2097,4.3472,4.5198,0.0,0.0,4.3515,4.1875,4.0507,3.9388,3.8663,3.8615,3.9208,3.6755,3.5603,3.5603,3.5545,3.6372,3.7873,3.7873,3.8834,4.0392,4.0469,4.0489,4.0489,4.0489,4.0489,4.0508,4.0639,4.0677,4.0696,2.5556,2.5139,2.462,2.3409,2.3498,2.386,2.4113,2.405,2.4193,2.4988,2.454,2.4198,2.4303,2.4607,2.4814,2.4883,2.5206,2.5947,2.7237,2.7546,2.8392,2.9966,3.0153,3.0321,3.0564,3.0525,3.0941,3.1792,3.1516,3.212,3.3485,0.0,0.0,0.0,0.0,3.04,3.0833,3.1776,3.1763,3.1203,3.2298,3.2207,3.1387,3.0976,3.0769,3.0686,3.0645,3.0564,3.0506,3.0467,3.0417,3.0398,3.0398,3.0398,3.0398,3.0398,3.0398,3.0398,3.0398,3.0311,3.0267,3.0367,3.0253,3.0171,3.0367,3.0398,3.0398,3.0398,3.3111,3.535,3.4905,3.4254,3.4245,3.5549,0.0,3.3799,3.3804,3.3809,3.4956,3.8123,3.4923,3.2705,3.3402,3.4406,3.6736,4.0896,4.214,4.1009,0.0,0.0,0.0,4.5266,0.0,4.1992,4.0488,3.8622,3.7842,3.8147,3.654,3.5738,3.5661,3.5595,3.6632,3.8527,3.92,3.9873,4.0489,4.0489,4.0489,4.0546,4.1085,4.1331,4.1405,4.1466,4.1517,4.1474,2.5447,2.5063,2.4662,2.384,2.352,2.352,2.3998,2.3602,2.3728,2.4974,2.505,2.479,2.4339,2.4591,2.4913,2.5215,2.557,2.6275,2.7431,2.8188,2.8969,2.9863,3.0408,3.0655,3.0576,3.051,3.0794,3.1395,3.1472,3.2143,0.0,0.0,0.0,0.0,3.0334,3.0095,3.0871,3.148,3.1293,3.071,3.1942,3.1824,3.0898,3.0898,3.084,3.074,3.0704,3.0646,3.0564,3.0544,3.0506,3.0448,3.0398,3.0398,3.0398,3.0398,3.0398,3.0398,3.0398,3.0398,3.0398,3.0398,3.0398,3.0398,3.0398,3.0398,3.0398,3.0398,3.3114,3.5503,3.5495,3.4585,3.3915,3.4248,0.0,0.0,3.4295,3.4282,3.5482,3.8651,3.3916,3.1354,3.3763,3.2114,3.3702,4.0496,4.1731,4.014,0.0,0.0,0.0,0.0,0.0,0.0,4.0469,3.8769,3.7695,3.7226,3.634,3.5852,3.5763,3.6208,3.7286,3.8911,4.0046,4.0562,4.0562,4.0508,4.0508,4.062,4.1239,4.1546,4.1659,4.1697,4.1738,4.1712,2.6183,2.6312,2.5971,2.4056,2.4016,2.4137,2.3779,2.3691,2.4248,2.5775,2.5652,2.515,2.4571,2.4685,2.5196,2.6206,2.6518,2.7392,2.906,2.9371,2.9816,3.0566,3.0664,3.064,3.0498,3.0509,3.0467,3.0417,3.0544,0.0,3.0546,0.0,3.0567,3.0588,2.9917,2.9655,2.9732,2.9732,3.006,3.0605,3.0614,3.0739,3.0898,3.0898,3.0898,3.0879,3.0742,3.0691,3.0679,3.0621,3.0602,3.0564,3.0448,3.0398,3.0398,3.0398,3.0398,3.0398,3.0398,3.0398,3.0398,3.0398,3.0398,3.0398,3.0398,3.0398,3.0398,3.0398,3.3121,3.5501,3.5506,3.4571,3.4184,3.5303,0.0,0.0,3.5471,3.5476,3.5501,3.5534,3.2507,3.042,3.0456,3.0735,3.3578,4.0024,4.0954,0.0,0.0,0.0,0.0,4.0677,4.3833,0.0,3.8672,3.9121,3.8672,3.7285,3.6347,3.5899,3.5949,3.7532,3.8522,3.9056,4.0196,4.0696,4.0696,4.0562,4.0581,4.0696,4.0716,4.0761,4.0828,4.0969,4.102,4.1039,2.4577,2.4639,2.4514,2.3523,2.347,2.3584,2.3684,2.3688,2.4176,2.5418,2.5613,2.5798,2.6301,2.5913,2.5806,2.6263,2.597,2.6487,2.8283,2.8435,2.9133,3.0605,3.0684,3.0669,3.0562,3.0578,3.0544,3.0467,0.0,0.0,0.0,3.0896,3.0365,2.9484,2.9276,2.937,2.9734,3.0317,3.0586,3.0641,3.1255,3.1258,3.0898,3.0898,3.0898,3.0898,3.0859,3.0772,3.0691,3.0675,3.0636,3.0595,3.0556,3.0501,3.0467,3.0467,3.0467,3.0487,3.0525,3.0544,3.0506,3.0417,3.0398,3.0455,3.0699,3.0731,3.069,3.0444,3.1263,3.2743,3.507,3.5212,3.5082,3.5434,3.5501,0.0,3.5496,3.5499,3.463,3.23,3.3115,3.3891,3.3877,3.206,3.1656,3.3477,3.5902,0.0,0.0,0.0,0.0,0.0,4.1574,0.0,3.651,3.764,3.8027,3.7559,3.6484,3.5975,3.5982,3.6501,3.8105,4.05,4.0752,4.0803,4.0754,4.0677,4.0696,4.0812,4.1354,4.1678,4.1832,4.1879,4.2296,4.2676,2.4099,2.4041,2.3964,2.3631,2.3566,2.3649,2.3876,2.3896,2.4358,2.5674,2.6024,2.665,2.7983,2.7494,0.0,2.7338,2.6724,2.7046,2.879,2.8664,2.9168,3.0589,3.0694,3.0682,3.0645,3.0634,0.0,3.0544,3.1108,3.1191,3.0845,3.0467,2.9925,2.9251,2.9034,2.9258,2.9851,3.0397,3.0605,3.0606,3.1177,3.118,3.082,3.0879,3.0898,3.0898,3.0898,3.0859,3.0779,3.0787,3.0743,3.0703,3.0645,3.0604,3.0564,3.0544,3.0546,3.055,3.0588,3.0608,3.0569,3.0424,3.0488,3.0635,3.0857,3.0891,3.0832,3.062,3.0482,3.1437,3.487,3.5504,3.5512,3.5492,3.5489,3.5495,3.5502,3.4379,3.2795,3.065,3.2288,3.3576,0.0,3.1841,3.0622,3.0418,3.43,0.0,0.0,0.0,0.0,4.0497,4.0504,3.8888,3.5526,3.6547,3.7061,3.7051,3.6348,3.5996,3.5996,3.5996,3.7901,4.1189,4.1072,4.0961,4.0869,4.0781,4.0789,4.0927,4.1428,4.1718,4.1888,4.1886,4.2442,4.3066,2.4526,2.4357,2.4228,0.0,2.419,0.0,2.419,2.4245,2.4814,2.634,2.6822,2.7678,2.9449,2.9205,2.8989,2.9167,0.0,0.0,3.0217,2.9733,2.9733,3.0564,3.0652,3.0707,3.07,3.0702,3.066,3.0602,3.054,3.0442,3.0271,2.9506,2.9364,2.9678,2.9122,2.9287,2.9999,2.9999,3.0188,3.051,3.0576,3.0634,3.0703,3.0859,3.0937,3.0976,3.0918,3.0937,3.0976,3.0918,3.0897,3.0876,3.0759,3.0715,3.0698,3.0633,3.0607,3.0613,3.0611,3.0617,3.0578,3.0461,3.0843,3.1254,3.1241,3.125,3.125,3.125,3.082,3.1391,3.4564,3.5136,3.522,3.5457,3.531,3.5143,3.5149,3.241,3.04,3.0394,0.0,0.0,3.0394,3.0414,3.0429,0.0,3.534,0.0,0.0,0.0,4.0377,4.0387,4.0463,3.8887,3.5528,3.5805,3.5987,3.5996,3.5996,3.5996,3.6016,3.625,3.8125,4.1191,4.1191,4.1133,4.0996,4.0866,4.0888,4.1003,4.0997,4.1072,4.1211,4.1269,4.1797,4.248,0.0,0.0,2.4559,2.4247,2.419,2.419,2.419,2.4704,2.5315,2.5838,2.721,2.835,2.8954,2.9614,3.0035,3.009,2.8767,2.8343,2.9333,2.9256,2.9602,3.0564,3.0625,3.0648,3.0699,3.0701,3.0679,3.0679,3.0603,3.0477,3.0302,2.9942,2.9758,2.9696,2.9551,2.9674,2.9999,2.9999,3.0188,3.0506,3.0565,3.0652,3.0703,3.0859,3.1309,3.1816,3.1133,3.1328,3.1797,3.1113,3.0897,3.0892,3.0853,3.0845,3.0825,3.0714,3.0678,3.0694,3.0807,3.0832,3.0813,3.0793,3.2799,3.4788,3.4784,3.4785,3.4785,3.4785,3.2648,3.094,3.1513,3.1609,3.2455,3.5085,3.3314,3.1604,3.1609,3.0912,3.04,0.0,3.0386,3.0398,3.0405,3.0624,3.0687,0.0,0.0,3.6381,3.9658,3.936,3.9125,3.9127,4.003,3.8896,3.5528,3.5592,3.5749,3.5996,3.5996,3.5996,3.6094,3.8769,4.043,4.1191,4.1191,4.1172,4.1133,4.1011,4.1038,4.1139,4.1035,4.1072,4.1269,4.1894,4.2656,4.3398,2.4776,2.4957,2.4991,2.4321,2.4653,2.4966,2.4779,2.5616,2.6395,2.6749,2.7867,2.8821,2.9294,2.9986,3.0398,3.0398,2.9198,2.8794,2.964,2.9313,2.9544,3.0506,3.0546,3.0609,3.0703,3.07,3.0706,3.0699,3.0638,3.0529,3.0398,3.0117,3.0018,3.0007,2.9877,2.9973,3.0182,3.0182,3.0286,3.0467,3.0564,3.061,3.0662,3.0838,3.1191,3.1543,3.1074,3.1191,3.1523,3.1055,3.0898,3.0898,3.0898,3.1172,3.1403,3.0925,3.0795,3.0817,3.0874,3.0898,3.0898,3.0898,3.3476,3.5996,3.5996,3.5996,3.5996,3.5996,3.3281,3.0834,3.0656,3.0637,3.1177,3.289,3.1616,3.0407,3.0393,3.0393,3.0452,3.0598,3.0635,3.0627,3.0633,3.0784,3.0768,3.043,3.2993,0.0,3.8544,3.8709,3.8968,3.9515,4.0158,3.8889,3.5537,3.6248,3.6823,3.7187,3.6387,3.6426,3.7285,3.9961,4.1191,4.1191,4.1191,4.1191,4.1191,4.1113,4.1133,4.119,4.111,4.1364,4.1797,4.2246,4.3203,4.4297,2.5314,2.5558,2.5651,2.4764,2.5425,2.5993,2.5726,2.667,2.757,2.7978,2.8578,2.9202,2.9794,3.019,3.0398,3.0398,2.9717,2.9602,3.034,2.9717,2.966,3.0467,3.0501,3.0562,3.0671,3.0679,3.0681,3.067,3.061,3.0554,3.0494,3.0202,3.0182,3.0398,3.015,3.0196,3.0398,3.0398,3.0398,3.0398,3.0525,3.0588,3.0611,3.0792,3.0957,3.1055,3.0937,3.0976,3.1074,3.0937,3.0898,3.0898,3.0898,3.1406,3.1914,3.1426,3.1094,3.0898,3.0898,3.0898,3.1016,3.1543,3.3848,3.5996,3.5996,3.5996,3.5996,3.5996,3.3691,3.1504,3.0996,3.0891,3.0814,3.0511,3.0477,3.046,3.041,0.0,3.0576,3.0858,3.0903,3.0898,3.0898,3.0894,3.0761,3.0413,3.3407,3.6241,3.8591,3.8702,3.9175,4.0188,4.0416,3.9126,3.6285,3.7666,3.8558,3.8854,3.6913,3.6777,3.8281,4.0293,4.1191,4.1191,4.1191,4.1191,4.1191,4.1191,4.1191,4.1191,4.1191,4.1621,4.2246,4.25,4.3535,4.4844,2.6927,2.689,2.6864,2.6525,2.6485,2.6617,2.6956,2.7564,2.7899,2.769,2.8917,2.9669,2.9286,2.9925,3.0398,3.0398,3.0294,3.0256,3.0379,3.0275,3.0294,3.0487,3.0491,3.0535,3.0617,3.0626,3.0617,3.062,3.055,3.0513,3.0506,3.0393,3.0355,3.0398,3.0355,3.0355,3.0398,3.0398,3.0398,3.0398,3.0487,3.051,3.0535,3.0671,3.1191,3.1758,3.1113,3.1367,3.1894,3.1152,3.0898,3.0898,3.0898,3.0996,3.1348,3.2637,3.2012,3.0898,3.0898,3.0898,3.1582,3.4492,3.5605,3.5996,3.5996,3.5996,3.5996,3.5996,3.5586,3.4336,3.1426,3.0898,3.0874,3.0829,3.0823,3.0715,3.0444,0.0,3.0837,3.0882,3.0891,3.0891,3.0901,3.0905,3.0768,3.0442,3.2675,3.5431,3.8525,3.8702,3.8794,3.8987,3.9979,4.0251,3.9726,3.9976,4.013,4.0159,3.7355,3.6133,3.6504,3.9726,4.1191,4.1191,4.1191,4.1191,4.1191,4.1191,4.1191,4.1191,4.1191,4.1289,4.1562,4.2988,4.3672,4.4101,2.7547,2.7661,2.765,2.7009,2.727,2.7569,2.7568,2.8461,2.9025,2.8783,2.9603,3.0286,3.0475,3.0448,3.0775,3.1679,3.1352,3.1275,3.1718,3.091,3.0398,3.0448,3.0448,3.0487,3.0544,3.0578,3.0577,3.0558,3.0516,3.0487,3.0448,3.0398,3.0398,3.0398,3.0398,3.0398,3.0398,3.0398,3.0398,3.0398,3.0467,3.0505,3.0521,3.0598,3.0911,3.1269,3.0918,3.1094,3.1445,3.1035,3.0898,3.0898,3.0898,3.1211,3.166,3.1953,3.1504,3.0898,3.0898,3.0898,3.1719,3.5156,3.5996,3.5996,3.5996,3.5996,3.5996,3.5996,3.5996,3.4961,3.1523,3.0898,3.0898,3.0898,3.4023,0.0,3.1218,3.0801,3.0895,3.0895,3.0898,3.0895,3.0898,3.0742,3.0578,3.0395,3.25,3.4476,3.5974,3.7729,3.8704,3.8704,3.9872,4.0502,4.05,4.05,4.05,4.0481,3.9101,3.8555,3.8867,4.0469,4.1191,4.1191,4.1191,4.1543,4.2109,4.1914,4.1953,4.2129,4.2129,4.1738,4.1289,4.207,4.3516,4.5156,2.8808,2.8799,2.867,2.7886,2.8185,2.8484,2.8327,2.9245,2.9984,3.0146,3.0475,3.1025,3.1891,3.1391,3.1506,3.2795,3.2333,3.2237,3.2852,3.1698,3.091,3.0717,3.0513,3.0417,3.0487,3.0525,3.0525,3.0487,3.0487,3.0448,3.0398,3.0398,3.0398,3.0398,3.0398,3.0398,3.0398,3.0398,3.0398,3.0398,3.0467,3.0487,3.0487,3.0544,3.0599,3.0679,3.0905,3.1046,3.1163,3.1378,3.1306,3.1191,3.1385,3.1822,3.2124,3.1483,3.168,3.209,3.209,3.209,3.2714,3.533,3.6009,3.5996,3.5996,3.5996,3.5996,3.5996,3.5996,3.5195,3.2578,3.1445,3.0897,3.0897,0.0,3.7221,0.0,3.1977,3.1669,3.0872,3.0847,3.087,3.0791,3.0552,3.04,3.041,3.2518,3.3807,3.3799,3.6922,3.8833,3.9104,4.002,4.0504,4.0489,4.0489,4.0489,4.0489,4.0489,4.0688,4.1042,4.1149,4.1191,4.1191,4.1191,4.1699,4.2519,4.2656,4.2851,4.3047,4.2656,4.2207,4.1777,4.1777,4.3359,4.5488,3.1919,3.1089,3.04,3.0344,2.9573,2.9159,2.9747,2.9775,3.0165,3.1392,3.159,3.191,3.2718,3.2756,3.2776,3.2891,3.2852,3.2833,3.2891,3.2776,3.2372,3.1641,3.0833,3.0398,3.0398,3.0398,3.0398,3.0398,3.0398,3.0398,3.0398,3.0398,3.0398,3.0398,3.0398,3.0398,3.0398,3.0398,3.0398,3.0398,3.0398,3.0398,3.0398,3.0487,3.051,3.0644,3.1499,3.1825,3.1942,3.2765,3.2541,3.2063,3.2861,3.2782,3.24,3.2461,3.3965,3.5625,3.5625,3.5625,3.5671,3.5938,3.5996,3.5996,3.5996,3.5996,3.5996,3.5996,3.5996,3.5918,3.5664,3.3047,3.0899,3.0888,0.0,0.0,3.4826,3.5149,3.3993,3.0813,3.0704,3.0785,3.0471,3.0412,3.0393,3.0392,3.2524,3.3795,3.3806,3.6917,3.9218,4.0329,4.0449,4.05,4.0489,4.0489,4.0489,4.0489,4.0489,4.0534,4.0568,4.1007,4.1191,4.1191,4.1191,4.125,4.1445,4.2969,4.3613,4.3496,4.1933,4.2226,4.3516,4.3516,4.3359,4.3437,3.2147,3.1705,3.1347,3.1347,3.0882,3.0567,3.0825,3.093,3.1242,3.1922,3.2123,3.2584,3.359,3.3072,3.314,3.4397,3.3858,3.3767,3.4474,3.4007,3.3333,3.2487,3.166,3.1218,3.1218,3.0679,3.0398,3.0398,3.0398,3.0398,3.0398,3.0398,3.0398,3.0398,3.0398,3.0698,3.1179,3.0641,3.0802,3.1398,3.0686,3.0398,3.0405,3.0436,3.0467,3.0614,3.1523,3.1851,3.2023,3.2913,3.3006,3.2809,3.3131,3.3083,3.2984,3.3409,3.4616,3.5845,3.5966,3.5996,3.5999,3.601,3.5828,3.5698,3.5792,3.5906,3.5996,3.5996,3.5996,3.5996,3.5996,3.3203,3.0894,3.0895,0.0,3.1738,3.5039,3.5495,3.502,3.3718,3.1807,3.0546,3.0407,3.0394,3.1282,3.3405,3.4358,3.5428,3.677,3.8739,4.0041,4.0492,4.0499,4.0492,4.0495,4.0495,4.0495,4.0499,4.0499,4.0515,4.0511,4.0672,4.2085,4.4355,4.4355,4.3164,4.125,4.1894,4.3398,4.5254,4.4609,4.3457,4.2402,4.4531,4.5176,4.5039,3.2762,3.2378,3.2066,3.2066,3.1697,3.1434,3.1513,3.1681,3.1995,3.2505,3.2711,3.3223,3.4357,3.3773,3.3907,3.5364,3.4783,3.4672,3.5455,3.4949,3.4103,3.2949,3.2372,3.2006,3.1833,3.1237,3.0756,3.0398,3.0398,3.0398,3.0398,3.0398,3.0398,3.0398,3.0398,3.0891,3.1679,3.1333,3.1641,3.234,3.2095,3.1525,3.0847,3.109,3.1064,3.1025,3.2148,3.2583,3.2755,3.3632,3.3747,3.3576,3.3877,3.3953,3.4031,3.4428,3.5077,3.5706,3.5862,3.5875,3.5834,3.5834,3.568,3.5522,3.5621,3.5775,3.5923,3.5995,3.5996,3.5996,3.5996,3.4082,3.2504,3.2511,3.1311,3.1591,3.5014,3.5509,3.5495,3.5501,3.3436,3.2007,3.1994,3.1994,3.2966,3.5324,3.5496,3.643,3.8584,3.983,4.0499,4.0508,4.0495,4.1014,4.2104,4.2104,4.2107,4.2091,4.2091,4.2107,4.2104,4.2088,4.3562,4.6094,4.6245,4.4355,4.1289,4.2363,4.418,4.6308,4.6308,4.4863,4.3086,4.5449,4.6308,4.6191,3.4218,3.3358,3.2632,3.2632,3.1953,3.1525,3.1786,3.1831,3.22,3.3275,3.3409,3.3847,3.4994,3.5105,3.5207,3.546,3.5493,3.5493,3.5493,3.5493,3.4737,3.3006,3.291,3.266,3.2134,3.2095,3.1525,3.0398,3.0398,3.0398,3.0398,3.0398,3.0398,3.0398,3.0398,3.0891,3.1737,3.255,3.2897,3.3064,3.479,3.3981,3.1814,3.2583,3.2391,3.1929,3.3603,3.4199,3.4334,3.5218,3.496,3.4466,3.532,3.5603,3.5603,3.5526,3.5565,3.5622,3.568,3.5603,3.5493,3.5493,3.5493,3.5493,3.5493,3.5603,3.577,3.5945,3.5996,3.5996,3.5996,3.5996,3.6009,3.6008,3.2861,3.161,3.5014,3.5501,3.5488,3.5509,3.5489,3.5502,3.5509,3.5495,3.5512,3.5545,3.5533,3.646,3.8587,3.9865,4.0499,4.0508,4.0495,4.2143,4.5558,4.5596,4.5596,4.5596,4.5596,4.5596,4.5596,4.5616,4.5596,4.5626,4.6099,4.4375,4.1504,4.4902,4.6308,4.6308,4.6308,4.6308,4.6308,4.6308,4.6308,4.6308,3.4639,3.4504,3.4486,3.5092,3.4504,3.3962,3.4023,3.3571,3.3666,3.4971,3.4656,3.4737,3.5831,3.5448,3.5089,3.5096,3.5077,3.5188,3.549,3.5499,3.5268,3.4757,3.4712,3.4648,3.4488,3.2141,3.0739,3.0388,3.0412,3.0412,3.0388,3.0412,3.0412,3.0388,3.0405,3.0547,3.0797,3.1046,3.2526,3.4648,3.3949,3.3961,3.4192,3.2653,3.2256,3.2699,3.3795,3.4199,3.4334,3.5218,3.5339,3.5185,3.5435,3.5545,3.5545,3.5526,3.5526,3.5532,3.5556,3.5537,3.5498,3.5493,3.5493,3.5493,3.5493,3.5545,3.5579,3.563,3.5841,3.5996,3.5996,3.5992,3.5997,3.6008,3.4863,3.4339,3.5353,3.5493,3.5498,3.5512,3.5498,3.5498,3.5493,3.5504,3.6479,3.8821,3.8229,3.8381,3.9886,4.029,4.05,4.0495,4.0499,4.2129,4.558,4.5599,4.5601,4.5601,4.5601,4.5601,4.5601,4.5603,4.5584,4.5618,4.6095,4.573,4.4863,4.5879,4.6308,4.6307,4.6298,4.6305,4.631,4.629,4.63,4.63,3.5422,3.5514,3.5679,3.6211,3.5862,3.5514,3.5514,3.511,3.509,3.5968,3.5637,3.5623,3.6377,3.602,3.5698,3.5541,3.5294,3.5243,3.5477,3.5493,3.6088,3.7417,3.6213,3.5494,3.5489,3.3481,3.1751,3.0414,3.1751,3.2429,3.2398,3.1712,3.1034,3.0433,3.1097,3.1027,3.0407,3.0394,3.2359,3.5348,3.3609,3.3667,3.4713,3.3615,3.3295,3.3526,3.4391,3.4718,3.4795,3.5334,3.5493,3.5493,3.5493,3.5815,3.6219,3.6444,3.6488,3.6339,3.5676,3.5984,3.6647,3.731,3.6488,3.5671,3.6339,3.5993,3.5498,3.5498,3.567,3.5841,3.5988,3.6001,3.5958,3.5815,3.5635,3.5498,3.5498,3.6642,3.7469,3.7469,3.631,3.6027,3.7353,3.7473,3.8308,4.0351,3.9806,3.9717,4.0463,4.0501,4.0496,4.0499,4.1822,4.3508,4.5582,4.5601,4.5603,4.5586,4.5586,4.5586,4.5586,4.5586,4.5586,4.5622,4.5905,4.6132,4.63,4.63,4.63,4.6308,4.6294,4.6175,4.6022,4.6015,4.6014,4.6014,3.6376,3.6413,3.6431,3.6505,3.645,3.6413,3.6413,3.634,3.635,3.6434,3.6379,3.6454,3.6768,3.6726,3.6621,3.6494,3.6043,3.5781,3.5781,3.5784,3.7135,4.0214,3.7224,3.5639,3.5935,3.5649,3.3968,3.0855,3.3975,3.5496,3.5477,3.3878,3.2308,3.0913,3.2455,3.227,3.0836,3.0529,3.2193,3.4924,3.3487,3.332,3.4052,3.5026,3.4949,3.441,3.5218,3.5493,3.5493,3.5493,3.5493,3.5493,3.5493,3.6276,3.731,3.7786,3.7926,3.7608,3.6142,3.6733,3.82,4.0048,3.82,3.6353,3.7892,3.681,3.559,3.5893,3.5965,3.6036,3.6343,3.6168,3.5862,3.5547,3.5504,3.5605,3.5888,3.8575,4.0506,4.0506,3.78,3.7151,4.0203,4.0496,4.0499,4.0502,4.049,4.0504,4.0502,4.0511,4.0633,4.0957,4.3987,4.5601,4.5601,4.5603,4.5586,4.5586,4.5586,4.5586,4.5586,4.5586,4.5586,4.5586,4.5586,4.5829,4.6241,4.6241,4.6241,4.6241,4.6241,4.5977,4.5586,4.5586,4.5586,4.5586,3.711,3.7221,3.7422,3.8065,3.7661,3.7221,3.7221,3.6688,3.6601,3.744,3.6994,3.6872,3.7571,3.698,3.6483,3.6352,3.734,3.801,3.801,3.8009,3.8339,3.9077,3.6788,3.6734,3.9372,3.6853,3.5141,3.4384,3.513,3.5509,3.5501,3.511,3.4732,3.4416,3.4777,3.4725,3.4211,3.154,3.0836,3.1597,3.2519,3.3808,3.5085,3.4655,3.4795,3.5238,3.543,3.5493,3.5493,3.5493,3.5493,3.5493,3.5493,3.6276,3.7233,3.7348,3.7373,3.7382,3.7444,3.6761,3.6761,3.9738,3.995,3.9508,3.988,3.7647,3.6238,3.8864,3.9418,3.9432,3.9515,3.7385,3.5586,3.5508,3.5508,3.6421,3.9042,4.0038,4.0496,4.0496,3.9869,3.97,4.0438,4.0489,4.0499,4.0507,4.0504,4.0504,4.0492,4.0507,4.1728,4.441,4.5216,4.5601,4.5603,4.5603,4.5586,4.5586,4.5586,4.5586,4.5586,4.5586,4.5586,4.5586,4.5586,4.5673,4.5754,4.5754,4.5754,4.5754,4.5754,4.5706,4.5586,4.5586,4.5586,4.5586,3.7991,3.8065,3.8212,3.8634,3.8358,3.8065,3.8065,3.7716,3.7658,3.8229,3.7933,3.7822,3.8229,3.7848,3.7534,3.7452,3.8208,3.8702,3.8702,3.871,3.87,3.8713,3.7635,3.7863,3.9596,3.7927,3.6517,3.5488,3.5501,3.549,3.5511,3.5507,3.5494,3.5507,3.5495,3.5495,3.5386,3.359,3.1879,3.0631,3.3128,3.4687,3.5451,3.5001,3.5103,3.5493,3.5493,3.5493,3.5493,3.5493,3.5493,3.5603,3.6142,3.6892,3.7752,3.8541,3.8772,3.8839,3.9127,3.8558,3.8297,4.0053,4.0495,4.0511,4.05,3.9142,3.8377,4.0134,4.05,4.05,4.0496,3.9061,3.7363,3.5748,3.6829,3.8503,4.025,4.05,4.05,4.05,4.0504,4.0489,4.0508,4.0515,4.1171,4.2813,4.2925,4.2928,4.2928,4.2929,4.3752,4.5534,4.5589,4.5603,4.5586,4.5586,4.5586,4.5586,4.5586,4.5586,4.5586,4.5586,4.5586,4.5586,4.5586,4.5586,4.5586,4.5586,4.5586,4.5586,4.5586,4.5586,4.5586,4.5586,4.5586,4.5586,3.8707,3.8707,3.8707,3.8707,3.8707,3.8707,3.8707,3.8707,3.8707,3.8707,3.8707,3.8707,3.8707,3.8707,3.8707,3.8707,3.8707,3.8707,3.8707,3.8707,3.8693,3.8701,3.8692,3.8704,3.8686,3.8705,3.7539,3.5214,3.5202,3.521,3.5207,3.5415,3.5496,3.5489,3.5489,3.5512,3.5509,3.5509,3.3853,3.152,3.4366,3.5509,3.5495,3.5488,3.5493,3.5493,3.5493,3.5685,3.5911,3.582,3.5839,3.6103,3.7026,3.7738,3.8488,3.9884,4.0389,4.0489,4.0508,4.0511,4.0633,4.1226,4.138,4.138,4.1354,4.0912,4.0508,4.0508,4.0508,4.0489,4.0504,4.05,3.958,3.6814,3.87,4.0515,4.05,4.0504,4.0508,4.0508,4.0508,4.0723,4.1319,4.1363,4.2552,4.5374,4.5592,4.5492,4.5239,4.5241,4.5337,4.5587,4.5591,4.5586,4.5586,4.5586,4.5586,4.5586,4.5586,4.5586,4.5586,4.5586,4.5586,4.5586,4.5586,4.5586,4.5586,4.5586,4.5586,4.5586,4.5586,4.5586,4.5586,4.5586,4.5586,4.5586,3.8707,3.8707,3.8707,3.8707,3.8707,3.8707,3.8707,3.8707,3.8707,3.8707,3.8707,3.8707,3.8707,3.8707,3.8707,3.8707,3.8707,3.8707,3.8707,3.8707,3.8701,3.8707,3.8695,3.8688,3.8693,3.8689,3.718,3.4023,3.4017,3.4024,3.4047,3.5036,3.5514,3.5499,3.5499,3.5515,3.5507,3.5495,3.5245,3.4859,3.5303,3.5495,3.5507,3.5507,3.5512,3.5504,3.5504,3.6421,3.7584,3.7127,3.7281,3.77,3.7834,3.845,3.9161,3.9407,3.9965,4.0508,4.0495,4.0499,4.1207,4.4157,4.4906,4.4906,4.4922,4.2624,4.0502,4.0502,4.0499,4.0499,4.0502,4.0508,4.035,3.9884,4.02,4.05,4.0504,4.0492,4.0515,4.0515,4.0502,4.1668,4.4617,4.4908,4.509,4.5569,4.5611,4.5074,4.3855,4.3771,4.4342,4.5569,4.5605,4.5586,4.5586,4.5586,4.5586,4.5586,4.5586,4.5586,4.5586,4.5586,4.5586,4.5586,4.5586,4.5586,4.5586,4.5586,4.5586,4.5586,4.5586,4.5586,4.5586,4.5586,4.5586,4.5586,3.8707,3.8707,3.8707,3.8707,3.8707,3.8707,3.8707,3.8707,3.8707,3.8707,3.8707,3.8695,3.8719,3.8719,3.87,3.8707,3.8707,3.8707,3.8707,3.8707,3.8695,3.8719,3.8695,3.8695,3.8719,3.8719,3.7993,3.6527,3.6538,3.5591,3.3817,3.4317,3.4545,3.4579,3.5226,3.5507,3.5498,3.5498,3.5498,3.5504,3.5498,3.5498,3.5504,3.5504,3.5489,3.5508,3.5508,3.7185,3.936,3.9114,3.8787,3.8484,3.8661,3.8988,3.9469,4.0412,4.0588,4.0495,4.0502,4.1879,4.3717,4.5233,4.5599,4.5601,4.5601,4.4432,4.3357,4.3355,4.3352,4.2777,4.0847,4.2066,4.272,4.0825,4.0492,4.0485,4.0499,4.0511,4.1209,4.3121,4.3355,4.3932,4.5445,4.5591,4.5592,4.5611,4.4874,4.4486,4.4654,4.4657,4.4966,4.5583,4.5598,4.561,4.561,4.5609,4.5586,4.5586,4.5586,4.5586,4.5586,4.5586,4.5586,4.5586,4.5586,4.5586,4.5586,4.5586,4.5586,4.5586,4.5586,4.5586,4.5586,4.5586,4.5586,4.5586]},{"header":{"parameterUnit":"m.s-1","parameterCategory":1,"la1":30.6,"la2":28.766,"lo1":-90.7593,"lo2":-88.6598,"dy":0.0162,"dx":0.0183,"nx":116,"ny":114,"refTime":"2023-08-26T12:00:00:Z","depth":0,"parameterNumber":3,"parameterNumberName":"V-component_of_WINDS"},"data":[0.0,0.0,0.0,0.0,0.0,0.0,0.0,0.0,0.0,0.0,0.0,0.0,0.0,0.0,0.0,0.0,0.0,0.0,0.0,0.0,0.0,0.0,0.0,0.0,0.0,0.0,0.0,0.0,0.0,0.0,0.0,0.0,0.0,0.0,0.0,0.0,0.0,0.0,0.0,0.0,0.0,0.0,0.0,0.0,0.0,0.0,0.0,0.0,0.0,0.0,0.0,0.0,0.0,0.0,0.0,0.0,0.0,0.0,0.0,0.0,0.0,0.0,0.0,0.0,0.0,0.0,0.0,0.0,0.0,0.0,0.0,0.0,0.0,0.0,0.0,0.0,0.0,0.0,0.0,0.0,0.0,0.0,0.0,0.0,0.0,0.0,0.0,0.0,0.0,0.0,0.0,0.0,0.0,0.0,0.0,0.0,0.0,0.0,0.0,0.0,0.0,0.0,0.0,0.0,0.0,0.0,0.0,0.0,0.0,0.0,0.0,0.0,0.0,0.0,0.0,0.0,0.0,0.0,0.0,0.0,0.0,0.0,0.0,0.0,0.0,0.0,0.0,0.0,0.0,0.0,0.0,0.0,0.0,0.0,0.0,0.0,0.0,0.0,0.0,0.0,0.0,0.0,0.0,0.0,0.0,0.0,0.0,0.0,0.0,0.0,0.0,0.0,0.0,0.0,0.0,0.0,0.0,0.0,0.0,0.0,0.0,0.0,0.0,0.0,0.0,0.0,0.0,0.0,0.0,0.0,0.0,0.0,0.0,0.0,0.0,0.0,0.0,0.0,0.0,0.0,0.0,0.0,0.0,0.0,0.0,0.0,0.0,0.0,0.0,0.0,0.0,0.0,0.0,0.0,0.0,0.0,0.0,0.0,0.0,0.0,0.0,0.0,0.0,0.0,0.0,0.0,0.0,0.0,0.0,0.0,0.0,0.0,0.0,0.0,0.0,0.0,0.0,0.0,0.0,0.0,0.0,0.0,0.0,0.0,0.0,0.0,0.0,0.0,0.0,0.0,0.0,0.0,0.0,0.0,0.0,0.0,0.0,0.0,0.0,0.0,0.0,0.0,0.0,0.0,0.0,0.0,0.0,0.0,0.0,0.0,0.0,0.0,0.0,0.0,0.0,0.0,0.0,0.0,0.0,0.0,0.0,0.0,0.0,0.0,0.0,0.0,0.0,0.0,0.0,0.0,0.0,0.0,0.0,0.0,0.0,0.0,0.0,0.0,0.0,0.0,0.0,0.0,0.0,0.0,0.0,0.0,0.0,0.0,0.0,0.0,0.0,0.0,0.0,0.0,0.0,0.0,0.0,0.0,0.0,0.0,0.0,0.0,0.0,0.0,0.0,0.0,0.0,0.0,0.0,0.0,0.0,0.0,0.0,0.0,0.0,0.0,0.0,0.0,0.0,0.0,0.0,0.0,0.0,0.0,0.0,0.0,0.0,0.0,0.0,0.0,0.0,0.0,0.0,0.0,0.0,0.0,0.0,0.0,0.0,0.0,0.0,0.0,0.0,0.0,0.0,0.0,0.0,0.0,0.0,0.0,0.0,0.0,0.0,0.0,0.0,0.0,0.0,0.0,0.0,0.0,0.0,0.0,0.0,0.0,0.0,0.0,0.0,0.0,0.0,0.0,0.0,0.0,0.0,0.0,0.0,0.0,0.0,0.0,0.0,0.0,0.0,0.0,0.0,0.0,0.0,0.0,0.0,0.0,0.0,0.0,0.0,0.0,0.0,0.0,0.0,0.0,0.0,0.0,0.0,0.0,0.0,0.0,0.0,0.0,0.0,0.0,0.0,0.0,0.0,0.0,0.0,0.0,0.0,0.0,0.0,0.0,0.0,0.0,0.0,0.0,0.0,0.0,0.0,0.0,0.0,0.0,0.0,0.0,0.0,0.0,0.0,0.0,0.0,0.0,0.0,0.0,0.0,0.0,0.0,0.0,0.0,0.0,0.0,0.0,0.0,0.0,0.0,0.0,0.0,0.0,0.0,0.0,0.0,0.0,0.0,0.0,0.0,0.0,0.0,0.0,0.0,0.0,0.0,0.0,0.0,0.0,0.0,0.0,0.0,0.0,0.0,0.0,0.0,0.0,0.0,0.0,0.0,0.0,0.0,0.0,0.0,0.0,0.0,0.0,0.0,0.0,0.0,0.0,0.0,0.0,0.0,0.0,0.0,0.0,0.0,0.0,0.0,0.0,0.0,0.0,0.0,0.0,0.0,0.0,0.0,0.0,0.0,0.0,0.0,0.0,0.0,0.0,0.0,0.0,0.0,0.0,0.0,0.0,0.0,0.0,0.0,0.0,0.0,0.0,0.0,0.0,0.0,0.0,0.0,0.0,0.0,0.0,0.0,0.0,0.0,0.0,0.0,0.0,0.0,0.0,0.0,0.0,0.0,0.0,0.0,0.0,0.0,0.0,0.0,0.0,0.0,0.0,0.0,0.0,0.0,0.0,0.0,0.0,0.0,0.0,0.0,0.0,0.0,0.0,0.0,0.0,0.0,0.0,0.0,0.0,0.0,0.0,0.0,0.0,0.0,0.0,0.0,0.0,0.0,0.0,0.0,0.0,0.0,0.0,0.0,0.0,0.0,0.0,0.0,0.0,0.0,0.0,0.0,0.0,0.0,0.0,0.0,0.0,0.0,0.0,0.0,0.0,0.0,0.0,0.0,0.0,0.0,0.0,0.0,0.0,0.0,0.0,0.0,0.0,0.0,0.0,0.0,0.0,0.0,0.0,0.0,0.0,0.0,0.0,0.0,0.0,0.0,0.0,0.0,0.0,0.0,0.0,0.0,0.0,0.0,0.0,0.0,0.0,0.0,0.0,0.0,0.0,0.0,0.0,0.0,0.0,0.0,0.0,0.0,0.0,0.0,0.0,0.0,0.0,0.0,0.0,0.0,0.0,0.0,0.0,0.0,0.0,0.0,0.0,0.0,0.0,0.0,0.0,0.0,0.0,0.0,0.0,0.0,0.0,0.0,0.0,0.0,0.0,0.0,0.0,0.0,0.0,0.0,0.0,0.0,0.0,0.0,0.0,0.0,0.0,0.0,0.0,0.0,0.0,0.0,0.0,0.0,0.0,0.0,0.0,0.0,0.0,0.0,0.0,0.0,0.0,0.0,0.0,0.0,0.0,0.0,0.0,0.0,0.0,0.0,0.0,0.0,0.0,0.0,0.0,0.0,0.0,0.0,0.0,0.0,0.0,0.0,0.0,0.0,0.0,0.0,0.0,0.0,0.0,0.0,0.0,0.0,0.0,0.0,0.0,0.0,0.0,0.0,0.0,0.0,0.0,0.0,0.0,0.0,0.0,0.0,0.0,0.0,0.0,0.0,0.0,0.0,0.0,0.0,0.0,0.0,0.0,0.0,0.0,0.0,0.0,0.0,0.0,0.0,0.0,0.0,0.0,0.0,0.0,0.0,0.0,0.0,0.0,0.0,0.0,0.0,0.0,0.0,0.0,0.0,0.0,0.0,0.0,0.0,0.0,0.0,0.0,0.0,0.0,0.0,0.0,0.0,0.0,0.0,0.0,0.0,0.0,0.0,0.0,0.0,0.0,0.0,0.0,0.0,0.0,0.0,0.0,0.0,0.0,0.0,0.0,0.0,0.0,0.0,0.0,0.0,0.0,0.0,0.0,0.0,0.0,0.0,0.0,0.0,0.0,0.0,0.0,0.0,0.0,0.0,0.0,0.0,0.0,0.0,0.0,0.0,0.0,0.0,0.0,0.0,0.0,0.0,0.0,0.0,0.0,0.0,0.0,0.0,0.0,0.0,0.0,0.0,0.0,0.0,0.0,0.0,0.0,0.0,0.0,0.0,0.0,0.0,0.0,0.0,0.0,0.0,0.0,0.0,0.0,0.0,0.0,0.0,0.0,0.0,0.0,0.0,0.0,0.0,0.0,0.0,0.0,0.0,0.0,0.0,0.0,0.0,0.0,0.0,0.0,0.0,0.0,0.0,0.0,0.0,0.0,0.0,0.0,0.0,0.0,0.0,0.0,0.0,0.0,0.0,0.0,0.0,0.0,0.0,0.0,0.0,0.0,0.0,0.0,0.0,0.0,0.0,0.0,0.0,0.0,0.0,0.0,0.0,0.0,0.0,0.0,0.0,0.0,0.0,0.0,0.0,0.0,0.0,0.0,0.0,0.0,0.0,0.0,0.0,0.0,0.0,0.0,0.0,0.0,0.0,0.0,0.0,0.0,0.0,0.0,0.0,0.0,0.0,0.0,0.0,0.0,0.0,0.0,0.0,0.0,0.0,0.0,0.0,0.0,0.0,0.0,0.0,0.0,0.0,0.0,0.0,0.0,0.0,0.0,0.0,0.0,0.0,0.0,0.0,0.0,0.0,0.0,0.0,0.0,0.0,0.0,0.0,0.0,0.0,0.0,0.0,0.0,0.0,0.0,0.0,0.0,0.0,0.0,0.0,0.0,0.0,0.0,0.0,0.0,0.0,0.0,0.0,0.0,0.0,0.0,0.0,0.0,0.0,0.0,0.0,0.0,0.0,0.0,0.0,0.0,0.0,0.0,0.0,0.0,0.0,0.0,0.0,0.0,0.0,0.0,0.0,0.0,0.0,0.0,0.0,0.0,0.0,0.0,0.0,0.0,0.0,0.0,0.0,0.0,0.0,0.0,0.0,0.0,0.0,0.0,0.0,0.0,0.0,0.0,0.0,0.0,0.0,0.0,0.0,0.0,0.0,0.0,0.0,0.0,0.0,0.0,0.0,0.0,0.0,0.0,0.0,0.0,0.0,0.0,0.0,0.0,0.0,0.0,0.0,0.0,0.0,0.0,0.0,0.0,0.0,0.0,0.0,0.0,0.0,0.0,0.0,0.0,0.0,0.0,0.0,0.0,0.0,0.0,0.0,0.0,0.0,0.0,0.0,0.0,0.0,0.0,0.0,0.0,0.0,0.0,0.0,0.0,0.0,0.0,0.0,0.0,0.0,0.0,0.0,0.0,0.0,0.0,0.0,0.0,0.0,0.0,0.0,0.0,0.0,0.0,0.0,0.0,0.0,0.0,0.0,0.0,0.0,0.0,0.0,0.0,0.0,0.0,0.0,0.0,0.0,0.0,0.0,0.0,0.0,0.0,0.0,0.0,0.0,0.0,0.0,0.0,0.0,0.0,0.0,0.0,0.0,0.0,0.0,0.0,0.0,0.0,0.0,0.0,0.0,0.0,0.0,0.0,0.0,0.0,0.0,0.0,0.0,0.0,0.0,0.0,0.0,0.0,0.0,0.0,0.0,0.0,0.0,0.0,0.0,0.0,0.0,0.0,0.0,0.0,0.0,0.0,0.0,0.0,0.0,0.0,0.0,0.0,0.0,0.0,0.0,0.0,0.0,0.0,0.0,0.0,0.0,0.0,0.0,0.0,0.0,0.0,0.0,0.0,0.0,0.0,0.0,0.0,0.0,0.0,0.0,0.0,0.0,0.0,0.0,0.0,0.0,0.0,0.0,0.0,0.0,0.0,0.0,0.0,0.0,0.0,0.0,0.0,0.0,0.0,0.0,0.0,0.0,0.0,0.0,0.0,0.0,0.0,0.0,0.0,0.0,0.0,0.0,0.0,0.0,0.0,0.0,0.0,0.0,0.0,0.0,0.0,0.0,0.0,0.0,0.0,0.0,0.0,0.0,0.0,0.0,0.0,0.0,0.0,0.0,0.0,0.0,0.0,0.0,0.0,0.0,0.0,0.0,0.0,0.0,0.0,0.0,0.0,0.0,0.0,0.0,0.0,0.0,0.0,0.0,0.0,0.0,0.0,0.0,0.0,0.0,0.0,0.0,0.0,0.0,0.0,0.0,0.0,0.0,0.0,0.0,0.0,0.0,0.0,0.0,0.0,0.0,0.0,0.0,0.0,0.0,0.0,0.0,0.0,0.0,0.0,0.0,0.0,0.0,0.0,0.0,0.0,0.0,0.0,0.0,0.0,0.0,0.0,0.0,0.0,0.0,0.0,0.0,0.0,0.0,0.0,0.0,0.0,0.0,0.0,0.0,0.0,0.0,0.0,0.0,0.0,0.0,0.0,0.0,0.0,0.0,0.0,0.0,0.0,0.0,0.0,0.0,0.0,0.0,0.0,0.0,0.0,-1.0189,-0.9395,0.0,0.0,0.0,0.0,0.0,0.0,0.0,0.0,0.0,0.0,0.0,0.0,0.0,0.0,0.0,0.0,0.0,0.0,0.0,0.0,0.0,0.0,0.0,0.0,0.0,0.0,0.0,0.0,0.0,0.0,0.0,0.0,0.0,0.0,0.0,0.0,0.0,0.0,-1.4775,-1.5224,-1.6314,-1.752,-1.7893,-1.7516,0.0,0.0,0.0,0.0,0.0,0.0,0.0,0.0,0.0,0.0,0.0,0.0,0.0,0.0,0.0,0.0,0.0,0.0,0.0,0.0,0.0,0.0,0.0,0.0,0.0,0.0,0.0,0.0,0.0,0.0,0.0,0.0,0.0,0.0,0.0,0.0,0.0,0.0,0.0,0.0,0.0,0.0,0.0,0.0,0.0,0.0,0.0,0.0,0.0,0.0,0.0,0.0,0.0,0.0,0.0,0.0,0.0,0.0,0.0,0.0,0.0,0.0,0.0,0.0,0.0,0.0,0.0,0.0,0.0,0.0,-1.3091,-1.2248,0.0,0.0,0.0,0.0,0.0,0.0,0.0,0.0,0.0,0.0,0.0,0.0,0.0,0.0,0.0,0.0,0.0,0.0,0.0,0.0,0.0,0.0,0.0,0.0,-1.4443,-1.5397,-1.5419,0.0,0.0,0.0,0.0,0.0,0.0,0.0,0.0,-1.5,-1.5025,-1.5509,-1.5808,-1.6784,-1.8508,-2.0848,-2.1193,-1.9899,-2.0091,0.0,0.0,0.0,0.0,0.0,0.0,0.0,0.0,0.0,0.0,0.0,0.0,0.0,0.0,0.0,0.0,0.0,0.0,0.0,0.0,0.0,0.0,0.0,0.0,0.0,0.0,0.0,0.0,0.0,0.0,0.0,0.0,0.0,0.0,0.0,0.0,0.0,0.0,0.0,0.0,0.0,0.0,0.0,0.0,0.0,0.0,0.0,0.0,0.0,0.0,0.0,0.0,0.0,0.0,0.0,0.0,0.0,0.0,0.0,0.0,0.0,0.0,0.0,-1.8206,-1.8844,-2.0502,-1.9911,-1.9399,-1.8955,-1.7112,-1.6285,-1.6303,-1.6222,0.0,0.0,0.0,0.0,0.0,0.0,0.0,0.0,0.0,0.0,0.0,0.0,0.0,0.0,0.0,0.0,0.0,0.0,0.0,0.0,0.0,-1.3863,-1.4586,-1.5714,-1.5575,-1.57,0.0,0.0,0.0,0.0,0.0,0.0,-1.541,-1.5,-1.5127,-1.5829,-1.7908,-1.9923,-2.1802,-2.2848,-2.3938,-2.4976,-2.347,-2.2596,-2.2192,0.0,0.0,0.0,0.0,0.0,0.0,0.0,0.0,0.0,0.0,0.0,0.0,0.0,0.0,0.0,0.0,0.0,0.0,0.0,0.0,0.0,0.0,0.0,0.0,0.0,0.0,0.0,0.0,0.0,0.0,0.0,0.0,0.0,0.0,0.0,0.0,0.0,0.0,0.0,0.0,0.0,-1.8903,-1.804,0.0,0.0,0.0,0.0,0.0,0.0,0.0,0.0,0.0,0.0,0.0,0.0,0.0,-1.7121,-1.7513,-1.8883,-2.0374,-2.1993,-2.2028,-2.2644,-2.3779,-2.3678,-2.3577,-2.3514,-2.3218,0.0,-1.9153,-1.8758,0.0,0.0,0.0,0.0,0.0,0.0,0.0,0.0,0.0,0.0,0.0,0.0,0.0,0.0,0.0,0.0,0.0,0.0,0.0,0.0,0.0,-1.41,-1.478,-1.6148,-1.6202,-1.6437,-1.7087,0.0,0.0,0.0,0.0,-1.5806,-1.541,-1.5421,-1.6428,-1.8446,-2.1045,-2.2907,-2.4063,-2.5314,-2.6105,-2.6472,-2.6767,-2.6048,-2.4617,-2.4168,0.0,0.0,0.0,0.0,0.0,0.0,0.0,0.0,0.0,0.0,0.0,0.0,0.0,0.0,0.0,0.0,0.0,0.0,0.0,0.0,0.0,0.0,0.0,0.0,0.0,0.0,0.0,0.0,0.0,0.0,0.0,0.0,0.0,0.0,0.0,0.0,0.0,0.0,0.0,-1.8629,-1.8966,-1.926,-1.9412,-1.9723,0.0,0.0,0.0,0.0,0.0,0.0,0.0,0.0,0.0,-1.7224,-1.8389,-1.9434,-2.0328,-2.1241,-2.2411,-2.3865,-2.4379,-2.5111,-2.5916,-2.6232,-2.6245,-2.6092,-2.6311,-2.5458,-2.3936,-2.311,-2.279,-2.2662,0.0,0.0,0.0,0.0,-1.8508,-1.9073,0.0,0.0,0.0,0.0,0.0,0.0,0.0,0.0,0.0,0.0,0.0,0.0,-1.3937,-1.4348,-1.5225,-1.6803,-1.7062,-1.7518,-1.8321,-1.796,0.0,0.0,-1.6698,-1.6312,-1.5968,-1.6782,-1.8545,-2.1258,-2.3795,-2.5381,-2.5989,-2.708,-2.7401,-2.7153,-2.8585,-2.8234,-2.656,-2.6562,-2.5571,-2.3979,0.0,0.0,0.0,0.0,0.0,0.0,0.0,0.0,0.0,0.0,0.0,0.0,0.0,0.0,0.0,0.0,0.0,0.0,0.0,0.0,0.0,0.0,0.0,0.0,0.0,0.0,0.0,0.0,0.0,0.0,0.0,0.0,0.0,0.0,0.0,0.0,0.0,-1.8393,-1.9167,-1.995,-2.0052,-2.047,0.0,0.0,0.0,0.0,0.0,0.0,-1.7564,-1.8991,-1.982,-1.9909,-2.0914,-2.191,-2.2844,-2.3548,-2.4451,-2.5568,-2.633,-2.6996,-2.7606,-2.8012,-2.8049,-2.7817,-2.8067,-2.8031,-2.7727,-2.6708,-2.6052,-2.5731,-2.5477,-2.5148,-2.4736,-2.3719,-2.3747,-2.4315,0.0,0.0,0.0,0.0,0.0,0.0,0.0,0.0,0.0,0.0,0.0,-1.3123,-1.3747,-1.4647,-1.5947,-1.7937,-1.8091,-1.8795,-2.0371,-1.9006,-1.8273,-1.8507,-1.7203,-1.681,-1.7468,-1.9619,-2.1664,-2.3513,-2.5575,-2.6988,-2.7769,-2.7397,-2.7452,-2.7838,-2.7945,-2.7913,-2.7859,-2.8602,-2.8049,-2.6591,-2.638,0.0,0.0,0.0,0.0,0.0,0.0,0.0,0.0,0.0,0.0,0.0,0.0,0.0,0.0,0.0,0.0,0.0,0.0,0.0,0.0,0.0,0.0,0.0,0.0,0.0,0.0,0.0,0.0,0.0,0.0,0.0,0.0,0.0,0.0,0.0,0.0,0.0,0.0,-1.9235,-2.0354,0.0,0.0,0.0,0.0,-1.9277,-1.9752,-1.9604,-1.8602,-2.0273,-2.1293,-2.1299,-2.3436,-2.4592,-2.4684,-2.6152,-2.7105,-2.7553,-2.8049,-2.8504,-2.8929,-2.8929,-2.8929,-2.891,-2.8929,-2.8929,-2.8876,-2.8382,-2.852,-2.8991,-2.856,-2.8763,-2.9132,-2.7885,-2.7444,-2.7364,0.0,0.0,0.0,0.0,0.0,0.0,0.0,0.0,0.0,-1.2187,-1.2187,-1.2389,-1.2903,-1.4132,-1.5576,-1.7219,-1.8104,-1.9128,-2.04,-1.9922,-1.9452,-1.9056,-1.834,-1.8406,-1.9458,-2.2085,-2.4045,-2.5252,-2.7484,-2.8391,-2.8034,-2.7849,-2.7384,-2.6719,-2.779,-2.8354,-2.8582,-2.9929,-3.0039,-2.9323,-2.9326,-2.817,0.0,0.0,0.0,0.0,0.0,0.0,0.0,0.0,0.0,0.0,0.0,0.0,0.0,0.0,0.0,0.0,0.0,0.0,0.0,0.0,0.0,0.0,0.0,0.0,0.0,0.0,0.0,0.0,0.0,0.0,0.0,0.0,0.0,0.0,0.0,0.0,0.0,-2.0095,-2.0572,0.0,-2.2605,-2.2113,-2.1534,-2.1146,-2.1358,-2.1342,-2.0948,-2.2394,-2.35,-2.4084,-2.5257,-2.6185,-2.6811,-2.7549,-2.8013,-2.8165,-2.8572,-2.8863,-2.8994,-2.8994,-2.9089,-2.9246,-2.9067,-2.9384,-3.0039,-3.021,-3.0441,-3.0718,-3.1314,-3.1702,-3.1844,-3.1269,-3.1254,-3.1474,0.0,0.0,0.0,0.0,0.0,0.0,0.0,0.0,-1.1814,-1.1814,-1.1616,-1.1763,-1.2499,-1.3626,-1.5094,-1.6921,-1.8126,-1.9276,-2.047,-2.0694,-2.0573,-2.0138,-2.0019,-2.038,-2.1118,-2.383,-2.5639,-2.6429,-2.8431,-2.8795,-2.7699,-2.7699,-2.7099,-2.6054,-2.7447,-2.8282,-2.8798,-3.0779,-3.154,-3.1466,-3.175,-3.1054,-2.97,0.0,0.0,0.0,0.0,0.0,0.0,0.0,0.0,0.0,0.0,0.0,0.0,0.0,0.0,0.0,0.0,0.0,0.0,0.0,0.0,0.0,0.0,0.0,0.0,0.0,0.0,0.0,0.0,0.0,0.0,0.0,0.0,0.0,0.0,-1.7792,-1.8427,-2.0072,-2.0441,-2.1328,-2.3298,-2.3141,-2.2936,-2.2861,-2.3198,-2.3338,-2.3098,-2.4414,-2.5451,-2.6084,-2.6779,-2.7455,-2.8047,-2.8438,-2.859,-2.8608,-2.8863,-2.8994,-2.8994,-2.8994,-2.9089,-2.9246,-2.9067,-2.9572,-3.0506,-3.1151,-3.1549,-3.1928,-3.3276,-3.3807,-3.3789,-3.3662,-3.381,-3.4038,0.0,0.0,0.0,0.0,0.0,0.0,0.0,-1.2246,-1.1765,-1.1756,-1.1166,-1.1249,-1.2522,-1.3184,-1.458,-1.7097,-1.8116,-1.9279,-2.0777,-2.1142,-2.1477,-2.1729,-2.2219,-2.2523,-2.2569,-2.492,-2.6478,-2.7161,-2.8384,-2.8283,-2.6935,-2.6935,-2.6597,-2.6064,-2.6852,-2.7681,-2.8623,-3.1129,-3.2507,-3.3038,-3.3635,-3.3469,-3.2711,0.0,0.0,0.0,0.0,0.0,0.0,0.0,0.0,0.0,0.0,0.0,0.0,0.0,0.0,0.0,0.0,0.0,0.0,0.0,0.0,0.0,0.0,0.0,0.0,0.0,0.0,0.0,0.0,0.0,0.0,0.0,0.0,0.0,-1.7383,-1.76,-1.8076,-1.897,-1.9929,-2.1251,-2.3046,-2.3949,-2.4343,-2.4234,-2.5234,-2.557,-2.4906,-2.6303,-2.7126,-2.7126,-2.7958,-2.842,-2.842,-2.8834,-2.903,-2.903,-2.9049,-2.9067,-2.9067,-2.9007,-2.9007,-2.9025,-2.9007,-2.9465,-3.0271,-3.1084,-3.1873,-3.2771,-3.4348,-3.4954,-3.4954,-3.4981,-3.4981,-3.4871,0.0,0.0,0.0,0.0,0.0,0.0,0.0,-1.1841,-1.0897,-1.0351,-0.9703,-0.94,-0.979,-1.1258,-1.3054,-1.513,-1.6659,-1.8248,-1.9852,-2.0024,-2.0789,-2.2304,-2.2903,-2.4204,-2.635,-2.6673,-2.7517,-2.8907,-2.898,-2.8489,-2.7546,-2.7546,-2.7163,-2.6466,-2.7281,-2.8515,-3.0074,-3.1385,-3.3125,-3.5078,-3.5248,-3.4892,-3.4336,0.0,0.0,0.0,0.0,0.0,0.0,0.0,0.0,0.0,0.0,0.0,0.0,0.0,0.0,0.0,0.0,0.0,0.0,0.0,0.0,0.0,0.0,0.0,0.0,0.0,0.0,0.0,0.0,0.0,0.0,0.0,-1.8754,-1.867,-1.757,-1.6908,-1.683,-1.7599,-1.8588,-1.975,-2.1202,-2.3083,-2.4443,-2.4886,-2.6147,-2.6819,-2.6621,-2.7274,-2.7798,-2.8013,-2.828,-2.854,-2.8839,-2.952,-2.9879,-2.9879,-3.0173,-3.0314,-3.027,-2.9394,-2.929,-2.9779,-2.9219,-2.9765,-3.1005,-3.1249,-3.1984,-3.3117,-3.3845,-3.4137,-3.4146,-3.4345,-3.4427,-3.4457,0.0,0.0,0.0,0.0,0.0,0.0,0.0,-1.1692,-1.0543,-0.9783,-0.8881,-0.8271,-0.8252,-0.9804,-1.1652,-1.3548,-1.5564,-1.7284,-1.8548,-1.958,-2.1093,-2.3259,-2.3923,-2.5171,-2.7267,-2.7388,-2.7975,-2.9088,-2.9034,-2.8594,-2.7787,-2.7787,-2.7464,-2.6891,-2.7651,-2.8718,-3.0003,-3.1111,-3.282,-3.4822,-3.5509,-3.5914,-3.6251,-3.7516,-3.7665,-3.7252,-3.7265,-3.7156,-3.6794,-3.5421,0.0,0.0,0.0,0.0,0.0,0.0,0.0,0.0,0.0,0.0,0.0,0.0,0.0,0.0,0.0,0.0,0.0,0.0,0.0,0.0,0.0,0.0,0.0,0.0,-1.9065,-1.8802,-1.7916,-1.7043,-1.6873,-1.7752,-1.8282,-1.9329,-2.1213,-2.3391,-2.4941,-2.5503,-2.7216,-2.8164,-2.8049,-2.8723,-2.9186,-2.9404,-2.9404,-2.9404,-2.9475,-2.9909,-3.0143,-3.0143,-3.0388,-3.0505,-3.0487,-2.9768,-2.9713,-3.0088,-2.966,-3.0154,-3.1299,-3.1299,-3.1937,0.0,0.0,0.0,0.0,0.0,-3.4629,-3.4067,0.0,0.0,0.0,0.0,0.0,0.0,0.0,-1.1692,-1.0493,-0.968,-0.8423,-0.7545,-0.7399,-0.8691,-1.0346,-1.2205,-1.4628,-1.6442,-1.7313,-1.9559,-2.1934,-2.4312,-2.4894,-2.5726,-2.6893,-2.7565,-2.8128,-2.8598,-2.8876,-2.8608,-2.7871,-2.7962,-2.7778,-2.7443,-2.8182,-2.878,-2.9354,-3.0822,-3.2179,-3.3502,-3.5029,-3.6565,-3.8079,-3.8961,-3.9452,-3.9626,-3.9693,-3.9743,-3.9677,-3.8989,0.0,0.0,0.0,0.0,0.0,0.0,0.0,0.0,0.0,0.0,0.0,0.0,0.0,0.0,0.0,0.0,0.0,0.0,0.0,0.0,0.0,0.0,0.0,0.0,-1.9062,-1.8532,-1.8476,-1.7846,-1.7682,-1.8494,-1.859,-1.9572,-2.2055,-2.4041,-2.5397,-2.5979,-2.8115,-2.9343,-2.913,-3.0159,0.0,0.0,0.0,-3.0534,-3.0106,-3.0194,-3.0247,-3.0247,-3.0254,-3.0307,-3.0307,-3.0156,-3.0141,-3.0211,-3.0124,-3.0542,-3.1278,-3.1278,-3.1734,-3.2555,-3.3723,-3.4885,-3.5875,-3.5875,-3.4942,-3.3634,0.0,0.0,0.0,0.0,0.0,0.0,0.0,-1.1692,-1.0332,-0.904,-0.767,-0.6578,-0.5968,-0.7688,-0.9482,-1.0913,-1.3332,-1.5649,-1.7647,-1.9741,-2.1961,-2.4315,-2.4902,-2.6535,-2.9439,-2.8429,-2.8533,-2.9838,-2.9282,-2.8748,-2.8297,-2.8967,-2.9026,-2.8692,-2.9432,-3.0163,-3.0928,-3.1833,-3.3084,-3.4568,-3.5474,-3.6922,-3.8688,-4.0142,-4.1292,-4.2182,-4.2853,-4.345,-4.3757,-4.2674,-4.2178,-4.1762,-4.0606,-3.8794,0.0,0.0,0.0,0.0,0.0,0.0,0.0,0.0,0.0,0.0,0.0,0.0,0.0,0.0,0.0,0.0,0.0,0.0,0.0,-1.9527,-1.9877,-2.0047,-1.9592,-1.8869,-1.8282,-1.7863,-1.8317,-1.9261,-2.0793,-2.2729,-2.452,-2.611,-2.7827,-2.8954,-2.9397,-2.9924,-3.0247,-3.0247,-3.0247,-3.0168,-3.0106,-3.0737,-3.1055,-3.1073,0.0,0.0,-3.1428,-3.0535,-3.0438,-3.0967,-3.037,-3.0523,-3.1206,-3.1206,-3.1502,-3.2004,-3.261,-3.3001,-3.3241,-3.3241,-3.3045,-3.2745,0.0,0.0,0.0,0.0,0.0,0.0,0.0,-1.1692,-1.0273,-0.8878,-0.7458,-0.6312,-0.5597,-0.7063,-0.882,-1.0531,-1.3244,-1.589,-1.8286,-1.937,-2.1129,-2.3838,-2.4443,-2.5835,-2.8308,-2.7866,-2.8365,-2.989,-2.9311,-2.9224,-2.962,-2.9776,-2.9827,-2.9837,-3.0608,-3.129,-3.1858,-3.2599,-3.374,-3.5104,-3.5836,-3.7317,-3.9211,-4.0306,-4.1427,-4.2532,-4.362,-4.4373,-4.4749,-4.4147,-4.4216,-4.4417,-4.3615,-4.26,-4.1243,0.0,0.0,0.0,0.0,0.0,0.0,0.0,0.0,0.0,0.0,0.0,0.0,0.0,0.0,-2.2776,-2.2614,0.0,-2.215,-2.1609,-2.1616,-2.1599,-2.1295,-2.0664,-1.9813,-1.8809,-1.8715,-1.9349,-2.1005,-2.2898,-2.4565,-2.578,-2.8078,-2.9508,-2.9638,-3.0473,-3.0956,-3.0956,-3.1358,-3.1272,-3.0663,-3.1443,-3.1616,-3.1252,-3.1117,-3.1055,-3.1055,-3.0476,-3.0227,-3.0318,-3.0549,-3.0679,-3.0814,-3.1443,-3.2094,-3.262,-3.2835,-3.2755,-3.257,-3.2942,-3.2854,-3.2484,0.0,0.0,0.0,0.0,0.0,0.0,0.0,0.0,-1.0411,-0.9047,-0.7758,-0.6678,-0.5823,-0.7015,-0.8791,-1.0963,-1.36,-1.6098,-1.8359,-1.8747,-2.0091,-2.2819,-2.3655,-2.4782,-2.6286,-2.6989,-2.808,-2.9494,-2.9289,-2.9757,-3.0767,-3.0525,-3.0609,-3.0952,-3.176,-3.2273,-3.256,-3.3457,-3.4406,-3.5462,-3.6335,-3.7766,-3.9476,-4.0021,-4.1035,-4.2276,-4.3361,-4.4009,-4.4336,-4.4455,-4.5001,-4.5623,-4.5559,-4.5513,-4.4939,-4.2341,-4.0899,0.0,0.0,0.0,0.0,0.0,0.0,0.0,0.0,-2.5345,-2.5393,-2.6096,-2.6185,-2.6142,-2.6048,-2.5424,-2.4709,-2.4105,-2.3504,-2.3049,-2.2915,-2.2436,-2.173,-2.0656,-1.9822,-2.0004,-2.191,-2.3645,-2.4961,-2.5731,-2.8366,-2.9946,-2.9928,-3.0946,-3.1637,-3.1905,-3.2423,-3.2281,-3.1453,-3.1873,-3.1832,-3.1215,-3.0615,-3.0402,-3.0533,-3.0402,-3.0141,-2.9852,-3.0806,-3.0933,-3.0582,-3.1707,-3.2563,-3.322,-3.322,-3.2997,-3.2757,-3.3248,-3.3125,-3.2634,0.0,0.0,0.0,0.0,0.0,0.0,0.0,0.0,0.0,-0.9717,-0.886,-0.788,-0.6628,-0.7997,-1.0042,-1.2627,-1.3828,-1.5171,-1.6695,-1.8132,-1.9464,-2.0796,-2.2627,-2.4244,-2.565,-2.6925,-2.8077,-2.906,-2.9677,-3.0211,-3.0629,-3.1288,-3.1792,-3.2133,-3.2897,-3.3245,-3.3372,-3.4776,-3.5419,-3.5694,-3.7153,-3.8269,-3.9109,-3.9628,-4.0996,-4.2625,-4.2792,-4.3068,-4.3439,-4.3899,-4.4535,-4.5286,-4.644,-4.6596,-4.6171,-4.5095,-4.3628,-4.1669,-3.8676,-3.6108,-3.4239,-3.4314,-3.1845,-3.0023,0.0,-3.0909,-2.9491,-3.0207,-3.0089,-2.9529,-2.8447,-2.7199,-2.6165,-2.5544,-2.4858,-2.4175,-2.364,-2.3534,-2.3442,-2.3289,-2.2114,-2.1904,-2.3331,-2.4197,-2.5435,-2.7133,-2.8155,-2.9186,-3.0296,-3.05,-3.1112,-3.2276,-3.1791,-3.1731,-3.2265,-3.1704,-3.1377,-3.1357,-3.0731,-3.0701,-3.1246,-3.0669,-3.0686,-3.1166,-3.131,-3.1357,-3.1278,-3.1438,-3.1911,-3.2512,-3.2512,-3.2827,-3.3233,-3.2678,-3.2832,-3.3199,0.0,0.0,0.0,0.0,0.0,0.0,0.0,0.0,0.0,0.0,-0.9098,-0.8324,-0.7365,-0.8802,-1.029,-1.1372,-1.2987,-1.436,-1.5391,-1.6743,-1.8248,-1.9965,-2.1138,-2.2585,-2.4333,-2.5584,-2.6923,-2.8372,-2.9593,-3.0632,-3.1479,-3.2349,-3.3009,-3.3594,-3.391,-3.4292,-3.4725,-3.5313,-3.5877,-3.6322,-3.7436,-3.8321,-3.9088,-3.9705,-4.066,-4.1654,-4.1546,-4.1629,0.0,-4.1977,-4.2595,-4.3359,-4.4346,-4.4618,-4.4449,-4.4084,-4.3141,-4.1783,-3.9784,-3.8168,-3.6942,-3.6287,-3.5048,-3.4029,-3.4148,-3.3469,-3.2719,-3.2533,-3.2739,-3.2694,-3.182,-3.0842,-2.9957,-2.9292,-2.8238,-2.7403,-2.7186,-2.6453,-2.5922,-2.5795,-2.5198,-2.4526,-2.3737,-2.4577,-2.5658,-2.6817,-2.8625,-2.9912,-3.0441,-3.0783,-3.1246,-3.1788,-3.1965,-3.1965,-3.1804,-3.1965,-3.1822,-3.139,-3.0779,-3.0597,-3.0864,-3.0582,-3.0795,-3.1357,-3.1029,-3.13,-3.2028,-3.2028,-3.2449,-3.3113,-3.3113,-3.3258,-3.3461,-3.3084,-3.3136,-3.3372,0.0,0.0,0.0,0.0,0.0,0.0,0.0,0.0,0.0,0.0,-0.9302,-0.8756,-0.8165,-0.9335,-1.0247,-1.0427,-1.2114,-1.3414,-1.4166,-1.5571,-1.7062,-1.8607,-1.9949,-2.143,-2.2997,-2.4687,-2.6311,-2.7964,-2.9544,-3.0974,-3.2224,-3.3056,-3.3813,-3.4561,-3.4707,-3.5117,-3.5632,-3.5824,-3.6216,-3.6747,-3.7481,-3.8167,-3.8737,-3.9254,-3.9564,-3.9839,-4.0289,-4.0338,-4.0182,-4.0098,-4.0375,-4.0857,-4.1595,-4.1982,-4.2158,-4.2113,-4.1548,-4.0845,-4.0237,-3.9807,-3.9352,-3.8647,-3.8573,-3.829,-3.6837,-3.6614,-3.6416,-3.5241,-3.5633,-3.5875,-3.4769,-3.3971,-3.329,-3.2627,-3.1315,-3.039,-3.0441,-2.9444,-2.8551,-2.8137,-2.784,-2.6847,-2.4886,-2.5438,-2.6092,-2.6619,-2.8818,-3.0251,-3.0433,-3.1254,-3.1856,-3.2234,-3.2376,-3.2333,-3.1966,-3.2127,-3.1946,-3.1444,-3.0809,-3.063,-3.0761,-3.0761,-3.0994,-3.1393,-3.0957,-3.1341,-3.2264,-3.24,-3.2809,-3.3355,-3.3493,-3.3587,-3.3572,-3.3485,-3.3439,-3.3406,0.0,0.0,0.0,0.0,0.0,0.0,0.0,0.0,0.0,0.0,0.0,0.0,0.0,-0.9546,-1.0083,-1.0831,-1.1567,-1.2273,-1.3003,-1.4925,-1.6048,-1.6108,-1.939,-2.1395,-2.1943,-2.4869,-2.694,-2.8106,-2.9658,-3.1134,-3.251,-3.3163,-3.3882,-3.4638,-3.5288,-3.5584,-3.5664,-3.6374,-3.6662,-3.6782,-3.7486,-3.7831,-3.7847,-3.7863,-3.7488,-3.7161,-3.9122,-3.9434,-3.8836,-3.8624,-3.8176,-3.7851,-3.8625,-3.9293,-3.9808,-3.9808,-3.9261,-3.9043,-4.0474,-4.1013,-4.1458,-4.2824,-4.3078,-4.2794,-4.196,-4.1731,-4.1095,-3.8984,-3.9115,-3.9054,-3.7003,-3.6007,-3.5313,-3.4716,-3.3332,-3.2353,-3.2571,-3.1886,-3.1042,-3.0107,-2.9358,-2.8575,-2.7578,-2.7077,-2.6886,-2.6978,-2.842,-2.9622,-3.0288,-3.1679,-3.3091,-3.4357,-3.3079,-3.2724,-3.3454,-3.2099,-3.1427,-3.1522,-3.0848,-3.0821,-3.1465,-3.1465,-3.1465,-3.1522,-3.148,-3.148,-3.1597,-3.2242,-3.257,-3.2703,-3.3268,-3.3536,-3.3582,-3.3585,-3.3569,-3.3473,0.0,0.0,0.0,0.0,0.0,0.0,0.0,0.0,0.0,0.0,0.0,0.0,0.0,0.0,0.0,0.0,-1.0987,-1.1701,-1.2174,-1.3501,-1.4435,-1.4749,-1.6819,-1.839,-1.9274,-2.2502,-2.4517,-2.5312,-2.8711,-3.0823,-3.1741,-3.3445,-3.4603,-3.5216,-3.5408,-3.5546,-3.5538,-3.583,-3.6446,-3.7277,-3.7058,-3.7607,-3.8403,-3.7998,-3.7662,-3.7423,0.0,-3.6631,-3.6069,-3.6026,-3.5856,-3.5805,-3.6525,-3.6596,-3.6462,-3.6937,-3.7861,-3.8967,-4.01,-4.111,-4.208,-4.3115,-4.3758,-4.4024,-4.3683,-4.3592,-4.3086,-4.1388,-4.0792,-3.9954,-3.7934,-3.6915,-3.6133,-3.5449,-3.4478,-3.3831,-3.3888,-3.3256,-3.2235,-3.0712,-3.0682,-2.997,-2.8113,-2.797,-2.7946,-2.7998,-2.9333,-3.0243,-3.0518,-3.1582,-3.243,-3.2856,-3.3051,-3.3048,-3.2821,-3.2382,-3.195,-3.1482,-3.13,-3.1539,-3.2183,-3.2183,-3.2183,-3.2213,-3.2647,-3.2587,-3.2243,-3.2901,-3.3201,-3.3197,-3.2912,-3.2844,-3.2813,-3.2369,-3.2201,-3.2321,0.0,0.0,0.0,0.0,0.0,0.0,0.0,0.0,0.0,0.0,0.0,0.0,0.0,0.0,0.0,0.0,0.0,-1.0952,-1.1509,-1.2523,-1.3226,-1.365,-1.535,-1.6815,-1.7917,-2.0621,-2.2481,-2.3475,-2.7023,-2.9189,-3.0067,-3.2227,-3.3532,-3.4133,-3.4371,-3.4484,-3.4476,-3.4476,-3.5001,-3.5798,-3.5365,-3.5906,-3.7033,-3.6585,-3.649,0.0,-3.5618,-3.4649,-3.3795,-3.3896,-3.3912,-3.3928,-3.4171,-3.4281,-3.4413,-3.5102,-3.6544,-3.8199,-3.9328,-4.0859,-4.2452,-4.3456,-4.4536,-4.524,-4.4854,-4.4742,-4.4283,-4.2871,-4.1695,-4.0421,-3.864,-3.741,-3.6444,-3.5776,-3.4798,-3.4327,-3.4837,-3.4076,-3.2996,-3.1596,-3.1709,-3.1114,-2.8948,-2.8848,-2.8795,-2.8381,-2.9704,-3.0526,-3.0526,-3.1676,-3.2273,-3.2273,-3.2601,-3.262,-3.2213,-3.232,-3.2316,-3.2228,-3.2228,-3.2452,-3.2871,-3.2871,-3.2871,-3.2886,-3.3305,-3.326,-3.2916,-3.3574,-3.3709,-3.3455,-3.3036,-3.2721,-3.2437,-3.1779,-3.1482,-3.164,0.0,0.0,0.0,0.0,0.0,0.0,0.0,0.0,0.0,0.0,0.0,0.0,0.0,0.0,0.0,0.0,0.0,0.0,-1.1048,-1.1851,-1.2488,-1.2811,-1.4756,-1.6455,-1.7678,-1.9372,-2.0962,-2.2599,-2.4707,-2.6403,-2.7617,-2.963,-3.0883,-3.1446,-3.2093,-3.2439,-3.2481,-3.2481,-3.2579,-3.2648,-3.2607,-3.3185,-3.4002,-3.3959,-3.4149,-3.439,-3.4345,-3.3377,-3.2124,-3.2479,-3.2524,-3.2393,-3.178,-3.2512,-3.3664,-3.4292,-3.5459,-3.6842,-3.8311,-4.0339,-4.2397,-4.3928,-4.5375,-4.6272,-4.5563,-4.5288,-4.4741,-4.3429,-4.1903,-4.0394,-3.8921,-3.7477,-3.626,-3.5552,-3.4333,-3.3937,-3.5292,-3.4379,-3.3299,-3.2667,-3.2593,-3.1901,-3.0075,-2.9869,-2.9352,-2.8273,-2.9533,-3.0342,-3.0342,-3.1734,-3.2522,-3.2522,-3.1971,-3.1668,-3.1626,-3.1853,-3.2489,-3.3423,-3.3423,-3.3453,-3.3544,-3.3544,-3.3544,-3.3544,-3.3589,-3.3574,-3.3589,-3.4247,-3.4143,-3.3544,-3.3499,-3.3095,-3.2437,-3.1779,-3.1482,-3.1482,0.0,0.0,0.0,0.0,0.0,0.0,0.0,0.0,0.0,0.0,0.0,0.0,0.0,0.0,0.0,0.0,0.0,0.0,-1.1561,-1.1475,-1.1418,-1.1494,-1.3067,-1.4498,-1.547,-1.7891,-1.9661,-2.074,-2.3007,-2.469,-2.5797,-2.696,-2.8027,-2.8963,-2.9106,-2.9802,-3.0878,-3.0878,-3.186,-3.3301,-3.2786,-3.3012,-3.3661,-3.3128,-3.3003,-3.3014,-3.2481,-3.2092,-3.1758,-3.2086,-3.2207,-3.2276,-3.2839,-3.3559,-3.4262,-3.4427,-3.5759,-3.7383,-3.8419,-3.9835,-4.1444,-4.3137,-4.3853,-4.4354,-4.5267,-4.4922,-4.404,-4.2688,-4.111,-3.9037,-3.5982,-3.5377,-3.4866,-3.355,-3.3394,-3.3564,-3.3902,-3.3912,-3.3585,-3.2707,-3.2593,-3.2105,-3.0983,-3.0216,-2.9679,-2.939,-2.9707,-2.9936,-2.9936,-3.0979,-3.1536,-3.1536,-3.2099,-3.2081,-3.1626,-3.1169,-3.1476,-3.2474,-3.2474,-3.3069,-3.4233,-3.4233,-3.4233,-3.4247,-3.4771,-3.4696,-3.4277,-3.4966,-3.4846,-3.4188,-3.3694,-3.3095,-3.2437,-3.1779,-3.1482,-3.1541,0.0,0.0,0.0,0.0,0.0,0.0,0.0,0.0,0.0,0.0,0.0,0.0,0.0,0.0,0.0,0.0,0.0,0.0,0.0,-1.1367,-1.1293,-1.1169,-1.197,-1.3031,-1.4221,-1.6202,-1.7618,-1.8567,-2.086,-2.2423,-2.3246,-2.442,-2.5436,-2.6226,-2.6372,-2.6956,-2.774,-2.7989,-2.8997,0.0,0.0,-3.109,-3.2155,-3.206,-3.2249,-3.2552,-3.215,-3.1744,-3.1531,-3.1943,-3.1983,-3.2061,-3.3296,-3.4177,-3.4832,-3.5538,-3.6746,-3.7961,-3.8409,-3.9616,-4.0946,-4.1933,-4.2458,-4.2855,-4.3421,-4.3172,-4.2477,-4.1392,-3.9615,-3.7602,-3.5495,-3.4647,-3.3829,-3.2676,-3.2767,-3.2959,-3.2987,-3.2947,-3.2654,-3.2078,-3.196,-3.1609,-3.0696,-3.0139,-2.9792,-2.9792,-2.9792,-2.9792,-2.9792,-3.0279,-3.0558,-3.0558,-3.1132,-3.1389,-3.1388,-3.1064,-3.1378,-3.2348,-3.2348,-3.2801,-3.3642,-3.3642,-3.3642,-3.3723,0.0,-3.4618,-3.436,-3.5195,-3.51,-3.4442,-3.4068,-3.335,-3.2467,-3.2093,-3.1958,-3.1973,0.0,0.0,0.0,0.0,0.0,0.0,0.0,0.0,0.0,0.0,0.0,0.0,0.0,0.0,0.0,0.0,0.0,0.0,0.0,0.0,-1.1561,-1.1396,-1.1423,-1.211,-1.3658,-1.4522,-1.5508,-1.6636,-1.8645,-1.999,-2.0589,-2.1892,-2.2771,-2.3335,-2.3676,-2.3932,-2.4239,-2.4623,-2.5421,-2.6498,-2.7032,-2.8398,-3.0038,0.0,-3.1375,-3.2249,-3.2249,-3.1683,-3.1136,-3.1625,-3.1736,-3.183,-3.3506,-3.4536,-3.5307,-3.6798,-3.7799,-3.8392,-3.8392,-3.9458,-4.0569,-4.069,-4.128,-4.1677,-4.1117,-4.0879,-4.0593,-3.967,-3.771,-3.6015,-3.5711,-3.4285,-3.3001,-3.2445,-3.2117,-3.2058,-3.2413,-3.187,-3.1451,-3.1413,-3.1338,-3.1026,-3.0176,-2.9907,-2.9792,-2.9792,-2.9792,-2.9792,-2.9792,-2.9792,-2.9792,-2.9792,-2.9792,-3.0216,-3.1044,-3.1044,-3.1462,-3.2393,-3.2393,-3.2464,-3.2593,-3.2593,-3.2593,-3.2664,-3.3449,-3.3808,-3.3876,-3.4773,-3.4812,-3.433,-3.433,-3.36,-3.2647,-3.2647,-3.2587,-3.2452,0.0,0.0,0.0,0.0,0.0,0.0,0.0,0.0,0.0,0.0,-0.9695,-1.0297,0.0,0.0,0.0,0.0,0.0,0.0,0.0,0.0,0.0,-1.1403,-1.1423,-1.211,-1.3658,-1.3882,-1.4807,-1.6636,-1.7047,-1.7786,-1.9023,-1.9223,-1.9646,-2.0068,-2.0149,-2.1092,-2.2606,-2.2703,-2.3798,-2.5515,-2.5938,-2.6843,-2.8078,-2.8512,0.0,0.0,-3.0292,-3.0216,-3.0151,-3.0631,-3.1345,-3.2217,-3.3784,-3.4947,-3.5813,-3.6057,-3.7208,-3.8392,-3.8392,-3.9028,-3.9793,-4.05,-4.0811,-4.0974,-4.0976,-4.0435,-3.9346,-3.7338,-3.6045,-3.4608,-3.2441,-3.2206,-3.2093,-3.165,-3.0698,-3.0602,-3.2016,-3.1576,-3.1445,-3.2423,-3.2106,-3.1817,-3.1601,-3.056,-2.9792,-2.9792,-2.9792,-2.9792,-2.9792,-2.9792,-2.9792,-2.9792,-2.9792,-2.9869,-3.0075,-3.0075,-3.0482,-3.1462,-3.1462,-3.1815,-3.2593,-3.2593,-3.2593,-3.2593,-3.2749,0.0,-3.289,-3.3031,-3.3178,-3.3332,-3.3332,-3.3348,-3.332,-3.332,-3.2976,-3.2647,0.0,0.0,0.0,0.0,0.0,0.0,0.0,-0.8804,-0.9071,-0.9802,-1.0104,-1.0276,-1.0208,-1.074,-1.1174,0.0,0.0,0.0,0.0,0.0,0.0,0.0,0.0,0.0,-1.2706,-1.3367,-1.4171,-1.5084,0.0,-1.6456,-1.7577,-1.7577,-1.791,-1.8633,-1.8848,-1.9449,-2.0348,-2.0592,-2.1659,-2.3221,-2.3777,-2.4803,-2.6349,0.0,0.0,0.0,-2.9792,-2.9792,-2.9789,-2.9733,-3.0561,-3.1992,-3.3565,-3.458,-3.5452,-3.6312,-3.7537,-3.8634,-3.856,-3.881,-3.9254,-3.9854,-3.9591,-3.9047,-3.8493,-3.8062,-3.7154,-3.4824,-3.3621,-3.2663,-3.1442,-3.1226,-3.1016,-3.0225,-2.9916,-2.9748,-2.9913,-3.0206,-3.0523,-3.1028,-3.1487,-3.1562,-3.1279,-3.0912,-3.0394,-2.9829,-3.0055,-3.0093,-2.9804,-2.9792,-2.9792,-2.9792,-2.9792,-2.9792,-2.9792,-2.9792,-2.9998,-3.0482,-3.0482,-3.0696,-3.1132,-3.1132,-3.1132,-3.1206,-3.1683,-3.1888,-3.1888,-3.2393,-3.2472,-3.2382,-3.2706,-3.2792,-3.2757,-3.2757,-3.2892,-3.3066,0.0,0.0,0.0,0.0,0.0,0.0,0.0,-0.8804,-0.9226,-1.0516,-1.0474,-1.0243,-1.0017,-1.0723,-1.1067,0.0,0.0,0.0,0.0,0.0,0.0,0.0,0.0,0.0,-1.1864,0.0,0.0,-1.3673,-1.4522,0.0,0.0,0.0,0.0,0.0,-1.8211,-1.8555,-1.8592,-1.9004,-1.9872,0.0,0.0,-2.3075,-2.4904,0.0,0.0,0.0,0.0,-2.9118,-2.9034,-2.8714,-2.9402,-3.077,-3.2418,-3.3822,-3.508,-3.6212,-3.7554,-3.8574,-3.856,-3.846,-3.8494,-3.8793,-3.8171,-3.7168,-3.5969,-3.5669,-3.5023,-3.277,-3.1669,-3.1106,-3.097,-3.0637,-3.0127,-2.9032,-2.9059,-2.8978,-2.8237,-2.8797,-2.9398,-2.9558,-3.0604,-3.11,-3.0592,-3.1048,-3.1035,-3.0193,-3.0432,-3.0382,-2.9829,-2.9792,-2.9792,-2.9792,-2.9792,-2.9792,-2.9792,-2.9792,-2.9792,-2.9792,-2.9792,-2.9792,-2.9792,-2.9792,-2.9792,-2.9869,-3.0558,-3.0895,-3.097,-3.1696,-3.1833,-3.1594,-3.2058,-3.2236,-3.2202,-3.2202,-3.2587,-3.3044,0.0,0.0,0.0,0.0,0.0,0.0,0.0,-0.8804,-0.9081,-0.9799,-1.0143,-1.0491,-1.0931,-1.135,-1.1482,0.0,0.0,0.0,0.0,0.0,0.0,0.0,0.0,0.0,0.0,0.0,0.0,-1.3673,-1.3818,0.0,0.0,0.0,0.0,0.0,0.0,-1.8281,-1.8562,-1.8682,0.0,0.0,0.0,0.0,0.0,0.0,0.0,0.0,0.0,-2.6812,-2.688,-2.7295,-2.7572,-2.795,-2.9654,-3.2622,-3.535,-3.504,-3.6373,-3.7965,-3.7965,-3.7647,-3.7299,-3.7323,-3.6799,-3.6036,-3.483,-3.4552,-3.3908,-3.1776,-3.1241,-3.097,-3.0075,-2.9907,-2.9679,-2.9054,-2.7992,-2.7667,-2.8588,-2.8196,-2.819,-2.9272,-3.0345,-3.0854,-3.0441,-3.1045,-3.1348,-3.1248,-3.0846,-3.0382,-2.9829,-2.9792,-2.9792,-2.9792,-2.9792,-2.9792,-2.9792,-2.9792,-2.9792,-2.9792,-2.9792,-2.9792,-2.9792,-2.9792,-2.9792,-2.9792,-2.9856,-2.9934,0.0,-2.9998,-3.0532,-3.1249,-3.1288,-3.182,-3.2582,-3.2582,-3.2222,-3.182,0.0,0.0,0.0,0.0,0.0,0.0,-0.8262,-0.8533,-0.9116,-1.0038,-1.0444,-1.1158,-1.2705,-1.2485,-1.1985,-1.1444,0.0,0.0,0.0,0.0,0.0,0.0,0.0,0.0,0.0,0.0,-1.2492,-1.3159,-1.3159,0.0,0.0,0.0,0.0,0.0,0.0,-1.7404,-1.7451,-1.7966,0.0,0.0,0.0,0.0,0.0,0.0,0.0,0.0,0.0,0.0,-2.6423,-2.5931,-2.6447,-2.7273,-2.6897,-2.897,-3.1869,-3.3703,-3.4873,-3.5818,-3.7117,-3.733,-3.7317,-3.7538,-3.6389,-3.5063,-3.4216,-3.3567,-3.2551,-3.0725,-3.0343,-3.0203,-2.9869,-2.9275,-2.851,-2.7638,-2.649,-2.5722,-2.5784,-2.6114,-2.6897,-2.8118,-2.9315,-3.0224,-3.0738,-3.136,-3.1712,-3.1855,-3.1097,-3.052,-3.0306,-2.998,-2.9792,-2.9792,-2.9792,-2.9792,-2.9792,-2.9792,-2.9792,-2.9792,-2.9792,-2.9792,-2.9792,-2.9792,-2.9792,-2.9792,-2.9792,-2.9792,0.0,-2.9792,-2.9998,-3.0343,-3.0343,-3.0908,-3.1702,-3.128,-3.1355,-3.1668,0.0,0.0,0.0,0.0,0.0,-0.8321,-0.7777,-0.8156,-0.8825,-0.9926,-1.05,-1.1589,-1.3459,-1.326,-1.2683,-1.1984,-1.1299,0.0,0.0,0.0,0.0,0.0,0.0,0.0,0.0,0.0,-1.2318,-1.2619,-1.2619,-1.3141,0.0,0.0,-1.4752,-1.5258,0.0,0.0,0.0,0.0,0.0,0.0,0.0,0.0,0.0,0.0,0.0,0.0,0.0,0.0,0.0,0.0,0.0,-2.5915,-2.5062,-2.5882,-2.7822,-3.1197,-3.2604,-3.3461,-3.4914,-3.5734,-3.6212,-3.6494,-3.5358,-3.4035,-3.3437,-3.2515,-3.1332,-3.0047,-2.9792,-2.9792,-2.9792,-2.8858,-2.7763,-2.6637,-2.5546,-2.4537,-2.39,-2.4664,-2.5619,-2.6506,-2.7832,-2.9001,-2.9715,-3.0638,-3.1383,-3.1883,-3.0931,-3.0419,-3.0846,-3.0181,-2.9792,-2.9792,-2.9792,-2.9792,-2.9792,-2.9792,-2.9792,-2.9792,-2.9792,-2.9792,-2.9792,-2.9792,-2.9792,-2.9792,-2.9792,-2.9792,0.0,-2.9792,-2.9792,-2.9792,-2.9792,-3.0216,-3.0719,-3.0242,-3.0513,-3.1079,0.0,0.0,0.0,0.0,0.0,0.0,-0.7723,-0.7723,-0.8075,-0.9084,-1.0231,-1.1482,-1.2676,-1.3461,-1.3696,-1.316,-1.1655,0.0,0.0,0.0,0.0,0.0,0.0,0.0,0.0,0.0,-1.2017,-1.2305,-1.2305,-1.2458,-1.2829,-1.3802,-1.4246,-1.4238,0.0,0.0,0.0,0.0,0.0,0.0,0.0,0.0,0.0,0.0,0.0,0.0,0.0,0.0,0.0,0.0,0.0,0.0,0.0,-2.4059,-2.3837,-2.7162,-2.9522,-3.1055,-3.1067,-3.2306,-3.3565,-3.3565,-3.3338,-3.293,-3.234,-3.1386,-3.0457,-2.9905,-2.9792,-2.9792,-2.9792,-2.8858,-2.7763,-2.6637,-2.5546,-2.4537,-2.39,-2.415,-2.4414,-2.4424,-2.589,-2.6896,-2.6896,-2.8488,-2.9954,-3.1122,-3.0248,-3.0169,-3.1304,-3.0369,-2.9792,-2.9792,-2.9792,-2.9792,-2.9792,-2.9792,-2.9792,-2.9792,-2.9792,-2.9792,-2.9792,-2.9792,-2.9792,-2.9792,-2.9792,-2.9792,0.0,-2.9792,-2.9792,-2.9792,-2.9792,-2.9792,-2.9792,-2.9792,-2.9779,-2.9779,0.0,0.0,0.0,0.0,0.0,0.0,0.0,-0.6632,-0.7307,-0.83,-0.9239,-1.0521,-1.2599,-1.2671,-1.2713,-1.3075,-1.2152,0.0,0.0,0.0,0.0,0.0,0.0,0.0,0.0,0.0,-1.2311,-1.2605,-1.2605,-1.2866,-1.336,-1.3673,-1.3753,-1.3826,-1.4833,-1.5626,0.0,0.0,0.0,0.0,0.0,0.0,-2.3135,0.0,0.0,0.0,0.0,0.0,0.0,0.0,0.0,0.0,0.0,0.0,0.0,-2.4395,-2.6188,-2.8287,-2.9779,-3.0536,-3.094,-3.094,-3.0879,-3.0749,-3.0579,-3.0325,-3.0005,-2.9829,-2.9792,-2.9534,-2.8767,-2.7775,-2.6625,-2.5546,-2.4382,-2.3232,-2.2199,-2.2548,-2.2804,-2.2539,-2.5007,-2.7138,-2.8088,-2.8964,-2.959,-2.9954,-2.9018,-2.8963,-3.0097,-2.8515,-2.7879,-2.8597,-2.9365,-2.9443,-2.8688,-2.9443,-2.9792,-2.9792,-2.9792,-2.9792,-2.9792,-2.9792,-2.9792,-2.9792,-2.9792,-2.9792,-2.9792,-2.9792,-2.9792,-2.9792,-2.9792,-2.9792,-2.9792,-2.9792,-2.9792,-2.9792,0.0,0.0,0.0,0.0,0.0,0.0,0.0,-0.5873,-0.6574,-0.7711,-0.8681,-1.0137,-1.2352,-1.2493,-1.2676,-1.309,-1.2465,0.0,0.0,0.0,0.0,0.0,0.0,0.0,0.0,-1.2204,-1.2392,-1.2579,-1.2579,-1.2826,-1.3307,-1.3307,-1.3367,-1.348,-1.4104,-1.484,0.0,0.0,0.0,0.0,0.0,0.0,-2.2666,0.0,0.0,0.0,0.0,0.0,0.0,0.0,0.0,0.0,0.0,0.0,0.0,0.0,-2.3092,-2.4466,-2.7024,-2.8375,-2.9017,-2.9017,-2.9101,-2.9242,-2.9677,-2.9464,-2.9287,-2.9702,-2.9792,-2.9456,-2.8335,-2.7209,-2.6141,-2.4957,-2.38,-2.2735,-2.1608,-2.191,-2.2022,-2.1568,-2.3842,-2.5767,-2.6715,-2.75,-2.8215,-2.868,-2.7785,-2.7754,-2.8889,-2.7429,-2.6637,-2.6849,-2.8359,-2.9028,-2.8767,-2.9028,-2.9365,-2.9792,-2.9365,-2.9365,-2.9792,-2.9792,-2.9792,-2.9792,-2.9792,-2.9792,0.0,-2.9792,-2.9792,-2.9792,-2.9792,-2.9792,-2.9792,-2.9792,-2.9792,-2.9792,0.0,0.0,0.0,0.0,0.0,0.0,0.0,-0.5433,-0.5901,-0.7244,-0.8471,-0.9988,-1.1876,-1.2713,-1.3105,-1.3016,0.0,0.0,0.0,0.0,0.0,0.0,0.0,0.0,-1.2291,-1.2305,-1.2224,-1.2224,-1.2224,-1.2452,-1.2669,-1.2746,-1.2926,-1.324,-1.324,-1.3787,0.0,0.0,0.0,0.0,0.0,0.0,0.0,0.0,0.0,0.0,0.0,0.0,0.0,0.0,0.0,0.0,0.0,0.0,0.0,0.0,0.0,0.0,0.0,-2.5601,-2.7233,-2.7233,-2.7594,-2.8184,-2.9221,-2.8715,0.0,-2.9365,-2.9624,-2.9287,-2.8096,-2.7116,-2.6141,-2.4872,-2.3704,-2.2644,-2.1742,-2.1722,-2.1713,-2.1347,-2.2552,-2.3447,-2.3493,-2.4796,-2.6157,-2.7358,-2.6503,-2.6498,-2.7698,-2.6819,-2.5891,-2.4957,-2.6849,-2.8438,-2.9546,-2.8688,-2.8688,-2.9702,-2.8597,-2.8676,-2.9702,-2.9624,-2.9624,-2.9792,-2.9702,-2.9714,-2.9792,-2.9792,-2.9792,-2.9792,-2.9792,-2.9792,-2.9792,-2.9792,-2.9792,-2.9792,0.0,0.0,0.0,0.0,0.0,0.0,0.0,0.0,0.0,0.0,-0.733,-0.8595,-1.0374,-1.1361,-1.2054,0.0,0.0,0.0,0.0,0.0,0.0,0.0,0.0,0.0,-1.2298,-1.2305,-1.1922,-1.1162,-1.1922,-1.2071,-1.1581,-1.2433,-1.3026,-1.354,-1.354,-1.4218,0.0,0.0,0.0,0.0,0.0,0.0,0.0,0.0,0.0,0.0,-2.0559,-2.0964,0.0,0.0,0.0,0.0,0.0,0.0,0.0,0.0,-2.006,-1.9452,-2.036,0.0,-2.2834,-2.2834,-2.4193,-2.5626,0.0,-2.6462,-2.6964,-2.7221,-2.7947,-2.7924,-2.5942,-2.6047,-2.5808,-2.38,-2.2473,-2.1338,-2.0161,-1.9298,-1.9228,-2.0719,-2.1957,-2.3005,-2.3746,-2.4716,-2.5415,-2.568,-2.4864,-2.4804,-2.5921,-2.4702,-2.4563,-2.6058,-2.5786,-2.6119,-2.7221,-2.87,-2.9106,-2.8518,-2.8255,-2.8255,-2.8426,-2.7626,-2.8211,-2.9792,-2.8858,-2.9015,-2.9792,-2.9792,-2.9792,-2.9792,-2.9792,-2.9792,-2.9792,-2.9792,-2.9792,-2.9792,0.0,0.0,0.0,0.0,0.0,0.0,0.0,0.0,0.0,0.0,0.0,0.0,0.0,0.0,0.0,0.0,0.0,0.0,0.0,0.0,0.0,0.0,0.0,-1.2164,-1.2298,-1.1848,-1.1316,-1.0783,-1.1316,-1.1396,-1.1082,-1.2518,-1.332,-1.3454,-1.3728,-1.4255,0.0,0.0,0.0,0.0,-1.704,0.0,0.0,0.0,0.0,0.0,-1.8702,-1.8923,0.0,-1.903,-1.8967,-1.9187,0.0,0.0,0.0,0.0,-1.8529,-1.7265,-1.7439,-1.8848,-2.0403,-2.0943,-2.2063,-2.3268,-2.4304,-2.5144,-2.5891,-2.6389,-2.6964,-2.6871,-2.5115,-2.5294,-2.5136,-2.3387,-2.212,-2.0581,-1.8486,-1.7244,-1.7047,-1.8469,-2.0,-2.1504,-2.2693,-2.3459,-2.4183,-2.4766,-2.416,-2.4048,-2.4652,-2.3712,-2.3637,-2.4893,-2.4882,-2.5378,-2.6483,-2.7209,-2.7452,-2.736,-2.686,-2.686,-2.7371,-2.6801,-2.7464,-2.9028,-2.8347,-2.8767,-2.9792,-2.9792,-2.9792,-2.9792,-2.9792,-2.9792,-2.9792,-2.9792,-2.9792,-2.9792,0.0,0.0,0.0,0.0,0.0,0.0,0.0,0.0,0.0,0.0,0.0,0.0,0.0,0.0,0.0,0.0,0.0,0.0,0.0,0.0,0.0,0.0,0.0,-1.2031,-1.2231,-1.1255,-1.0656,-1.0502,-1.0461,-1.0461,-1.057,-1.2483,-1.3457,-1.3464,-1.4015,-1.421,0.0,0.0,-1.4706,-1.5602,-1.5499,0.0,0.0,0.0,0.0,0.0,0.0,0.0,0.0,-1.6463,-1.6338,-1.6565,-1.8213,0.0,0.0,0.0,0.0,0.0,-1.4897,-1.6684,-1.8709,-1.9904,-2.0359,-2.1148,-2.3261,-2.3998,-2.4607,-2.5724,-2.6141,-2.5891,-2.4713,-2.4702,-2.4457,-2.3309,-2.1747,-1.9695,-1.6772,-1.5493,-1.51,-1.5868,-1.7748,-1.9449,-2.0893,-2.1926,-2.2898,-2.3948,-2.3835,-2.3691,-2.3691,-2.334,-2.3135,-2.3135,-2.4049,-2.4957,-2.5975,-2.5378,-2.5462,-2.6224,-2.5294,-2.5294,-2.6224,-2.6058,-2.6625,-2.7844,0.0,0.0,-2.9534,-2.9714,-2.9792,-2.9792,-2.9792,-2.9792,-2.9792,-2.9792,-2.9792,-2.9792,0.0,0.0,0.0,0.0,0.0,0.0,0.0,0.0,0.0,0.0,0.0,0.0,0.0,0.0,0.0,0.0,0.0,0.0,0.0,0.0,0.0,-1.2305,-1.2258,-1.2138,-1.1944,-1.1062,-1.0103,-0.9134,-0.9092,-0.9098,-0.9139,-1.1287,-1.2987,-1.4435,-1.4816,-1.4653,-1.4088,-1.4088,-1.4455,-1.5042,-1.4532,0.0,0.0,0.0,0.0,0.0,0.0,0.0,0.0,-1.6288,-1.6171,-1.5996,-1.664,0.0,0.0,0.0,0.0,0.0,-1.4589,-1.5062,-1.5963,-1.7356,-1.8588,-1.9832,-2.1386,-2.1771,-2.218,-2.3367,-2.4382,-2.4713,-2.3551,-2.4125,-2.4457,-2.3309,-2.0318,-1.7399,-1.5462,-1.4162,-1.3793,-1.5042,-1.671,-1.8076,-1.8745,-2.0763,-2.2208,-2.2392,-2.2933,-2.3242,-2.3242,-2.3174,-2.3135,-2.3135,-2.3299,-2.3474,-2.3637,-2.5389,-2.5808,-2.5041,-2.4872,-2.4872,-2.5041,-2.4049,-2.4723,-2.6719,0.0,-2.7371,-2.8426,-2.9365,-2.9792,-2.9792,-2.9792,-2.9792,-2.9792,-2.9792,-2.9792,-2.9792,0.0,0.0,0.0,0.0,0.0,0.0,0.0,0.0,0.0,0.0,0.0,0.0,0.0,0.0,0.0,0.0,0.0,0.0,0.0,0.0,-1.1476,-1.1411,-1.0888,-1.0755,-1.1222,-0.9625,-0.8643,-0.8375,-0.8113,-0.8023,-0.8107,-1.167,-1.4385,-1.6277,-1.5648,-1.524,-1.4894,-1.4334,-1.4242,-1.4469,0.0,0.0,0.0,0.0,0.0,0.0,0.0,0.0,0.0,0.0,-1.4074,-1.4088,-1.5012,0.0,0.0,0.0,0.0,0.0,-1.4001,-1.4148,-1.4441,-1.549,-1.6907,-1.8361,-1.9686,-2.0695,-2.148,-2.2031,-2.3086,-2.3714,-2.3222,-2.3551,-2.326,-2.1489,-1.8537,-1.5785,-1.3646,-1.2193,-1.1933,-1.3383,-1.4779,-1.6269,-1.7993,-1.9682,-2.0946,-2.159,-2.2517,-2.3135,-2.3135,-2.3135,-2.3135,-2.3135,-2.3135,-2.3135,-2.3135,-2.4145,-2.4392,-2.3877,-2.3877,-2.3877,-2.3877,-2.3299,-2.3973,-2.563,0.0,-2.7128,-2.8176,-2.9365,-2.9792,-2.9792,-2.9792,-2.9792,-2.9792,-2.9792,-2.9792,-2.9792,0.0,0.0,0.0,0.0,0.0,0.0,0.0,0.0,0.0,0.0,0.0,0.0,0.0,0.0,0.0,0.0,0.0,0.0,0.0,0.0,-1.0347,-1.03,-0.9384,-0.9227,-1.0095,-0.8287,-0.7522,-0.7756,-0.683,-0.6937,-0.8082,-1.2432,-1.5479,-1.7222,-1.6325,-1.5868,-1.5621,-1.4573,-1.4128,-1.4182,0.0,0.0,0.0,0.0,0.0,0.0,0.0,0.0,0.0,0.0,0.0,0.0,0.0,0.0,0.0,-1.4,-1.3754,-1.324,-1.3394,-1.3534,-1.3672,-1.4202,-1.5434,-1.6974,-1.8556,-1.9872,-2.0918,-2.1551,-2.2492,-2.3135,-2.3135,-2.3057,-2.2202,-1.9844,-1.7268,-1.4628,-1.2283,-1.0555,-1.0315,-1.2159,-1.3008,-1.4594,-1.728,-1.8466,-1.9579,-2.0755,-2.2031,-2.2775,-2.3047,-2.3135,-2.3135,-2.3135,-2.3135,-2.3135,-2.3135,-2.3135,-2.3135,-2.3135,-2.3135,-2.3135,-2.3135,-2.3387,-2.3963,-2.4872,-2.6295,-2.736,-2.8176,-2.9365,-2.9792,-2.9792,-2.9792,-2.9792,-2.9792,-2.9792,-2.9792,-2.9792,0.0,0.0,0.0,0.0,0.0,0.0,0.0,0.0,0.0,0.0,0.0,0.0,0.0,0.0,0.0,0.0,0.0,0.0,0.0,0.0,-0.929,-0.9417,-0.8544,-0.8238,-0.8544,-0.7957,-0.7477,-0.6958,-0.4892,-0.5866,-0.9718,-1.3202,-1.5275,-1.5987,-1.6415,-1.6285,-1.5621,-1.4573,-1.4242,-1.4469,-1.4195,0.0,0.0,0.0,0.0,0.0,0.0,0.0,0.0,0.0,0.0,0.0,0.0,0.0,-1.2822,-1.2925,-1.3064,-1.3153,-1.2879,-1.322,-1.3572,-1.3612,-1.4142,-1.5493,-1.837,-1.9154,-1.9981,-2.2425,-2.3047,-2.3135,-2.3135,-2.2822,-2.1881,-1.9802,-1.6992,-1.439,-1.2464,-1.0054,-0.9361,-1.1869,-1.2253,-1.3259,-1.5688,-1.7145,-1.8326,-1.9588,-2.0755,-2.1943,-2.3047,-2.3135,-2.3135,-2.3135,-2.3135,-2.3135,-2.3135,-2.3135,-2.3135,-2.3135,-2.3135,-2.3135,-2.3135,-2.4211,-2.4702,-2.4957,-2.7105,-2.8004,-2.8176,-2.9365,-2.9792,-2.9792,-2.9792,-2.9792,-2.9792,-2.9792,-2.9792,-2.9792,0.0,0.0,0.0,0.0,0.0,0.0,0.0,0.0,0.0,0.0,0.0,0.0,0.0,0.0,0.0,0.0,0.0,0.0,0.0,-0.8245,-0.7941,-0.79,-0.7082,-0.6583,-0.6522,-0.6332,-0.6138,-0.5996,-0.6519,-0.8066,-1.0402,-1.3762,-1.6045,-1.7316,-1.7133,-1.683,-1.6357,-1.4733,-1.4048,-1.3981,-1.4055,-1.4155,0.0,0.0,0.0,0.0,0.0,0.0,0.0,0.0,-1.2305,-1.2305,-1.2305,-1.2378,-1.2472,-1.2472,-1.2552,-1.2659,-1.2802,-1.3053,-1.3373,-1.3373,-1.3681,-1.4423,-1.6168,-1.7754,-1.9011,-2.0026,-2.1783,-2.3135,-2.3135,-2.2246,-2.1039,-1.9499,-1.698,-1.4402,-1.2102,-1.11,-1.0893,-1.1875,-1.2747,-1.3887,-1.5642,-1.6943,-1.787,-1.8326,-2.0215,-2.148,-2.1943,-2.2677,-2.3135,-2.3135,-2.3135,-2.3135,-2.3135,-2.3135,-2.3135,-2.3135,-2.3135,-2.3135,-2.3135,-2.4296,-2.4787,-2.4946,-2.7105,-2.8096,-2.8176,-2.9365,-2.9792,-2.9792,-2.9792,-2.9792,-2.9792,-2.9792,-2.9792,-2.9792,0.0,0.0,0.0,0.0,0.0,0.0,0.0,0.0,0.0,0.0,0.0,0.0,0.0,0.0,0.0,0.0,0.0,0.0,-0.7478,-0.706,-0.678,-0.6776,-0.6069,-0.5372,-0.4685,-0.4498,-0.4731,-0.5389,-0.7489,-0.9192,-1.0487,-1.3933,-1.6211,-1.7362,-1.7406,-1.7327,-1.7003,-1.4962,-1.4056,-1.4056,-1.3944,-1.4001,0.0,0.0,0.0,0.0,0.0,0.0,0.0,0.0,-1.2305,-1.2285,-1.2191,-1.2164,-1.2164,-1.2164,-1.2164,-1.2231,-1.2525,-1.2766,-1.2868,-1.2641,-1.2644,-1.2984,-1.3918,-1.595,-1.7997,-1.9032,-2.1296,-2.3135,-2.3135,-2.1776,-2.0303,-1.9297,-1.6758,-1.4229,-1.2221,-1.1821,-1.1828,-1.2215,-1.3064,-1.4145,-1.5584,-1.6427,-1.7208,-1.7677,-1.9579,-2.0935,-2.1293,-2.2403,-2.3135,-2.3135,-2.3135,-2.3135,-2.3135,-2.3135,-2.3135,-2.3135,-2.3135,-2.3135,-2.3135,-2.4296,-2.4787,-2.4946,-2.7105,-2.8096,-2.8176,-2.9365,-2.9792,-2.9792,-2.9792,-2.9792,-2.9792,-2.9792,-2.9792,-2.9792,0.0,0.0,0.0,0.0,0.0,0.0,0.0,0.0,0.0,0.0,0.0,0.0,0.0,0.0,0.0,0.0,0.0,0.0,-0.5579,-0.5589,-0.5718,-0.601,-0.584,-0.4971,-0.3119,-0.2552,-0.326,-0.5442,-0.7129,-0.8608,-0.9807,-1.3731,-1.5517,-1.548,-1.6975,-1.7701,-1.7516,-1.5044,-1.4458,-1.505,-1.4028,-1.3814,-1.4015,0.0,0.0,0.0,0.0,0.0,0.0,0.0,-1.2298,-1.2251,-1.1964,-1.187,-1.187,-1.187,-1.187,-1.1937,-1.2225,-1.2298,-1.2142,-1.136,-1.1105,-1.1155,-1.1916,-1.4049,-1.6794,-2.0196,-2.21,-2.3125,-2.3125,-2.1532,-1.9983,-1.9238,-1.6366,-1.3892,-1.314,-1.1903,-1.1634,-1.2831,-1.3012,-1.3671,-1.5265,-1.5391,-1.6061,-1.7569,-1.8772,-2.0034,-2.1203,-2.2403,-2.3057,-2.3135,-2.3135,-2.3135,-2.3135,-2.3135,-2.3135,-2.3135,-2.3135,-2.3135,-2.3135,-2.4296,-2.4787,-2.4946,-2.7105,-2.8096,-2.8176,-2.9365,-2.9792,-2.9792,-2.9792,-2.9792,-2.9792,-2.9792,-2.9792,-2.9792,0.0,0.0,0.0,0.0,0.0,0.0,0.0,0.0,0.0,0.0,0.0,0.0,0.0,0.0,0.0,0.0,0.0,0.0,-0.5426,-0.543,-0.5467,-0.5555,-0.5709,-0.4857,-0.2883,-0.3903,-0.4976,-0.6093,-0.7583,-0.8999,-1.0413,-1.3815,-1.5509,-1.5615,-1.6736,-1.6902,-1.6374,-1.5119,-1.4725,-1.5012,-1.4872,-1.4724,-1.4453,0.0,0.0,0.0,0.0,0.0,0.0,0.0,0.0,0.0,-1.1147,-1.1486,-1.2131,-1.1931,-1.2011,-1.2191,-1.2278,-1.1855,-1.1341,-1.0964,-1.0453,-1.0231,-1.1263,-1.2939,-1.542,-1.9348,-2.1012,-2.1894,-2.2207,-2.0921,-1.9404,-1.8171,-1.6453,-1.451,-1.2389,-1.2877,-1.3288,-1.275,-1.3733,-1.4624,-1.5084,-1.5097,-1.5393,-1.6047,-1.7227,-1.8494,-1.9926,-2.1212,-2.2217,-2.3047,-2.3135,-2.3135,-2.3135,-2.3135,-2.3135,-2.3135,-2.3135,-2.3135,-2.3135,-2.4296,-2.4787,-2.4946,-2.7105,-2.8096,-2.8176,-2.9365,-2.9792,-2.9792,-2.9792,-2.9792,-2.9792,-2.9792,-2.9792,-2.9792,0.0,0.0,0.0,0.0,0.0,0.0,0.0,0.0,0.0,0.0,-0.1873,0.0,0.0,0.0,0.0,0.0,0.0,0.0,0.0,-0.5335,-0.5369,-0.5369,-0.5522,-0.4779,-0.288,-0.4631,-0.5924,-0.6603,-0.7841,-0.912,-1.0408,-1.3637,-1.5052,-1.5056,-1.633,-1.6622,-1.6159,-1.5169,-1.4959,-1.5236,-1.5037,-1.4917,-1.4889,0.0,0.0,0.0,0.0,0.0,0.0,0.0,0.0,0.0,-1.0562,-1.0955,-1.1576,-1.1846,-1.1911,-1.1977,-1.2098,-1.1386,-1.0519,-1.0086,-0.944,-0.9118,-1.0269,-1.2501,-1.5307,-1.8258,-1.985,-2.0933,-2.1714,-2.0667,-1.9245,-1.829,-1.696,-1.5367,-1.3131,-1.3823,-1.4142,-1.2959,-1.3814,-1.4489,-1.4603,-1.4723,-1.491,-1.5204,-1.6361,-1.7737,-1.9265,-2.0527,-2.1766,-2.3047,-2.3135,-2.3135,-2.3135,-2.3135,-2.3135,-2.3135,-2.3135,-2.3135,-2.3135,-2.38,-2.4125,-2.4211,-2.6449,-2.7695,-2.8176,-2.9365,-2.9792,-2.9792,-2.9792,-2.9792,-2.9792,-2.9792,-2.9792,-2.9792,0.0,0.0,0.0,0.0,0.0,0.0,0.0,0.0,0.0,0.0,0.0,-0.1271,0.0,0.0,0.0,0.0,0.0,0.0,0.0,0.0,-0.5365,-0.5379,-0.5389,-0.4643,-0.3082,-0.4924,-0.6179,-0.6805,-0.7887,-0.8969,-0.995,-1.302,-1.4303,-1.4106,-1.5817,-1.6524,-1.6519,-1.529,-1.5115,-1.5655,-1.485,-1.4932,-1.53,-1.4255,0.0,0.0,0.0,0.0,0.0,0.0,0.0,0.0,-0.9975,-1.0275,-1.0581,-1.1508,-1.1607,-1.1523,-1.1797,-1.0943,-0.981,-0.8959,-0.8305,-0.8128,-0.9228,-1.2346,-1.5477,-1.7031,-1.853,-2.0086,-2.1448,-2.0608,-1.947,-1.8991,-1.7743,-1.628,-1.4834,-1.4657,-1.4377,-1.3396,-1.3528,-1.383,-1.4021,-1.4309,-1.4603,-1.5075,-1.6037,-1.7389,-1.9071,-2.0131,-2.1373,-2.2969,-2.3076,-2.3096,-2.3135,-2.3135,-2.3135,-2.3135,-2.3135,-2.3135,-2.3135,-2.3135,-2.3135,-2.3387,-2.5473,-2.7035,-2.8176,-2.9118,-2.9624,-2.9792,-2.9702,-2.9702,-2.9792,-2.9792,-2.9792,-2.9792,0.0,0.0,0.0,0.0,0.0,0.0,0.0,0.0,0.0,0.0,0.0,0.0,0.0,0.0,0.0,0.0,0.0,0.0,0.0,0.0,-0.5127,-0.5372,-0.5396,-0.4582,-0.2811,-0.5017,-0.6093,-0.5859,-0.6987,-0.8403,-0.9944,-1.1491,-1.2713,-1.3589,-1.4747,-1.5449,-1.5693,-1.535,-1.554,-1.6071,-1.6422,-1.6088,-1.5419,-1.6323,-1.4746,0.0,0.0,0.0,0.0,0.0,0.0,0.0,-0.8282,-0.9206,-1.0739,-1.0683,-1.1236,-1.179,-1.185,-1.0437,-0.8886,-0.8814,-0.8305,-0.8097,-0.9128,-1.0644,-1.2612,-1.5581,-1.7339,-1.8748,-2.0101,-2.0091,-1.9421,-1.8327,-1.7881,-1.7046,-1.534,-1.5267,-1.5079,-1.4124,-1.4481,-1.4536,-1.3817,-1.4008,-1.4631,-1.5763,-1.5287,-1.6443,-1.9624,-1.9213,-2.0057,-2.2585,-2.2598,-2.2803,-2.3135,-2.3135,-2.3135,-2.3135,-2.3135,-2.3135,-2.3135,-2.3135,-2.3551,-2.4457,-2.4957,-2.6273,-2.8016,-2.7464,-2.8211,-2.9702,-2.8858,-2.9028,-2.9792,-2.9792,-2.9792,-2.9792,0.0,0.0,0.0,0.0,0.0,0.0,0.0,0.0,0.0,0.0,0.0,0.0,0.0,0.0,0.0,0.0,0.0,0.0,0.0,0.0,-0.5243,-0.5389,-0.377,-0.2859,-0.2924,-0.4968,-0.5985,-0.58,-0.6294,-0.7236,-0.8526,-1.0405,-1.1514,-1.2059,-1.3821,-1.4643,-1.4864,-1.5235,-1.5537,-1.5811,-1.6157,-1.6107,-1.5729,-1.6067,-1.4996,-1.3347,-1.3472,0.0,0.0,0.0,0.0,0.0,0.0,0.0,-1.0168,-1.0477,-1.1238,-1.1837,-1.1697,-1.0125,-0.8392,-0.766,-0.7262,-0.748,-0.8993,-0.9669,-1.0962,-1.4152,-1.588,-1.7447,-1.93,-1.9609,-1.9325,-1.8382,-1.8234,-1.7712,-1.6087,-1.5962,-1.5724,-1.4798,-1.4668,-1.4443,-1.3909,-1.3858,-1.4178,-1.481,-1.505,-1.6015,-1.8118,-1.8727,-1.9827,-2.1665,-2.2265,-2.2698,-2.3135,-2.3135,-2.3135,-2.3135,-2.3135,-2.3135,-2.3135,-2.3135,-2.3377,-2.4049,-2.4542,-2.5441,-2.6521,-2.6554,-2.7139,-2.8131,-2.7533,-2.7706,-2.8211,-2.8211,-2.8542,-2.9028,0.0,0.0,0.0,0.0,0.0,0.0,0.0,0.0,0.0,0.0,0.0,0.0,0.0,0.0,0.0,0.0,0.0,0.0,0.0,0.0,0.0,-0.4486,-0.1612,-0.0825,-0.2505,-0.4773,-0.5926,-0.5918,-0.5817,-0.6106,-0.6687,-0.9064,-1.0258,-1.0607,-1.2655,-1.3717,-1.4034,-1.4864,-1.5167,-1.5235,-1.5468,-1.5743,-1.5897,-1.5336,-1.5132,-1.5038,-1.3611,-1.2438,-1.1301,-0.9735,0.0,0.0,0.0,0.0,-0.917,-1.0024,-1.0833,-1.1313,-1.1058,-0.9732,-0.8068,-0.6481,-0.6315,-0.7022,-0.8841,-0.9448,-1.0335,-1.315,-1.4743,-1.6375,-1.8566,-1.9097,-1.9053,-1.8691,-1.8562,-1.8197,-1.6978,-1.6853,-1.6498,-1.5579,-1.483,-1.4388,-1.4238,-1.3836,-1.3641,-1.3879,-1.4875,-1.574,-1.6415,-1.8246,-1.9626,-2.0668,-2.1796,-2.2553,-2.2998,-2.3096,-2.3135,-2.3135,-2.3135,-2.3135,-2.3135,-2.3135,-2.3135,-2.3135,-2.4135,-2.4628,-2.4872,-2.5641,-2.6141,-2.6472,-2.6307,-2.6307,-2.6483,-2.6483,-2.7046,-2.7844,0.0,0.0,0.0,0.0,0.0,0.0,0.0,0.0,0.0,0.0,-0.0788,0.0,0.0,0.0,0.0,0.0,0.0,0.0,-0.0708,0.0,0.0,-0.0844,-0.0266,-0.0135,-0.0406,-0.4253,-0.6106,-0.5745,-0.5721,-0.5689,-0.5652,-0.6753,-0.8409,-1.0481,-1.0857,-1.1796,-1.3183,-1.4025,-1.4392,-1.4501,-1.5796,-1.6019,-1.5596,-1.6495,-1.5994,-1.4809,-1.4939,-1.3337,-1.1142,-1.0867,-0.9152,0.0,0.0,0.0,-0.7786,-0.8107,-0.8683,-0.927,-0.9373,-0.8595,-0.7479,-0.6528,-0.693,-0.7936,-0.9069,-0.997,-1.1156,-1.3302,-1.4561,-1.5703,-1.7189,-1.8142,-1.8701,-1.8582,-1.8562,-1.8416,-1.792,-1.7794,-1.7432,-1.6498,-1.5838,-1.511,-1.4313,-1.3836,-1.4042,-1.4984,-1.4559,-1.5166,-1.7074,-1.745,-1.8275,-1.9743,-2.1205,-2.2175,-2.2611,-2.291,-2.3135,-2.3135,-2.3135,-2.3135,-2.3135,-2.3135,-2.3135,-2.3135,-2.3222,-2.3877,-2.4713,-2.3887,-2.4734,-2.6389,-2.5378,-2.563,-2.6483,-2.6483,-2.6554,-2.6719,0.0,0.0,0.0,0.0,0.0,0.0,0.0,0.0,0.0,0.0,0.0,0.0,0.0,0.0,0.0,0.0,0.0,0.0,0.0,-0.1474,-0.165,-0.0065,0.0,0.0,0.0,-0.1806,-0.3245,-0.4228,-0.5261,-0.563,-0.538,-0.5785,-0.7116,-0.9163,-1.011,-1.1183,-1.2389,-1.3183,-1.3554,-1.3606,-1.4255,-1.448,-1.4456,-1.5214,-1.5233,-1.4678,-1.4215,-1.3332,-1.2182,-1.0728,-0.9198,-0.7868,-0.7309,0.0,0.0,0.0,-0.8305,-0.8986,-0.8365,-0.7834,-0.7388,-0.7025,-0.7403,-0.8237,-0.9814,-1.049,-1.123,-1.2652,-1.4163,-1.5568,-1.666,-1.7628,-1.8281,-1.8281,-1.8281,-1.8223,-1.8037,-1.8008,-1.7647,-1.6706,-1.5865,-1.4969,-1.4035,-1.3418,-1.3444,-1.4085,-1.4543,-1.4957,-1.5462,-1.727,-1.8379,-1.8673,-2.0816,-2.2006,-2.2142,-2.281,-2.3135,-2.3135,-2.3135,-2.3135,-2.3135,-2.3135,-2.3135,-2.3135,-2.3135,-2.3387,-2.38,-2.3299,-2.3724,-2.4563,-2.4049,-2.4135,-2.4553,-2.4553,-2.4967,-2.5546,0.0,0.0,0.0,0.0,0.0,0.0,0.0,0.0,0.0,0.0,0.0,0.0,0.0,0.0,0.0,0.0,0.0,0.0,0.0,0.0,0.0,0.0,0.0,0.0,0.0,0.0,-0.075,-0.232,-0.4628,-0.5459,-0.4699,-0.5199,-0.624,-0.7822,-0.9221,-1.0494,-1.1531,-1.2328,-1.2704,-1.2687,-1.2849,-1.3067,-1.3376,-1.3658,-1.4121,-1.443,-1.3357,-1.312,-1.2956,-1.0828,-0.9528,-0.8605,-0.7692,-0.7418,0.0,0.0,0.0,-0.8417,-0.7472,-0.7151,-0.7096,-0.7206,-0.7677,-0.8537,-1.0115,-1.0789,-1.1391,-1.215,-1.3665,-1.5084,-1.607,-1.7217,-1.8008,-1.8008,-1.8008,-1.8008,-1.8008,-1.8008,-1.7725,-1.707,-1.5939,-1.4879,-1.4171,-1.3308,-1.2839,-1.3073,-1.4214,-1.4614,-1.3961,-1.6886,-1.8316,-1.7857,-2.0374,-2.1724,-2.1708,-2.2556,-2.293,-2.2822,-2.293,-2.2978,-2.2978,-2.2978,-2.3037,-2.3135,-2.3135,-2.3076,-2.2978,-2.2978,-2.292,-2.2832,-2.2939,-2.292,-2.2852,-2.3057,-2.3557,-2.4227,0.0,0.0,0.0,0.0,0.0,0.0,0.0,0.0,0.0,0.0,0.0,0.0,-0.0168,0.0,0.0,0.0,0.0,0.0,0.0,0.0,0.0,0.0,0.0,0.0,0.0,0.0,-0.0067,-0.0193,-0.3963,-0.4807,-0.2885,-0.4571,-0.5997,-0.7154,-0.7822,-0.9058,-1.0744,-1.1531,-1.1826,-1.1927,-1.24,-1.2614,-1.2655,-1.2672,-1.3185,-1.3796,-1.3237,-1.3025,-1.285,-1.1981,-1.0611,-0.9156,-0.8384,-0.7637,-0.6985,0.0,0.0,0.0,-0.6443,-0.6424,-0.6496,-0.6359,-0.7774,-0.9221,-0.9372,-1.0875,-1.2224,-1.2298,-1.3098,-1.4099,-1.5092,-1.6793,-1.8008,-1.8008,-1.8008,-1.8008,-1.8008,-1.8008,-1.8008,-1.794,-1.6298,-1.5163,-1.5163,-1.374,-1.2829,-1.2842,-1.3386,-1.3647,-1.3667,-1.6062,-1.7384,-1.7334,-1.9869,-2.1277,-2.125,-2.2109,-2.2344,-2.1953,-2.2353,-2.2549,-2.2549,-2.2549,-2.2764,-2.3135,-2.3135,-2.291,-2.2549,-2.2549,-2.2314,-2.1992,-2.2383,-2.2305,-2.2041,-2.2842,-2.2881,-2.2683,0.0,0.0,0.0,0.0,0.0,0.0,0.0,0.0,0.0,0.0,0.0,0.0,0.0,0.0559,0.0,0.0,0.0,0.0,0.0,0.0,0.0,0.0,0.0,0.0,0.0,0.2257,0.3294,0.2886,-0.0446,-0.1766,-0.127,-0.2657,-0.4252,-0.5848,-0.7374,-0.9,-1.0624,-1.0926,-1.1052,-1.1038,-1.1236,-1.1361,-1.148,-1.246,-1.3055,-1.3385,-1.3676,-1.3425,-1.2887,-1.2081,-1.0312,-0.8436,-0.8189,-0.7162,-0.6128,-0.5995,-0.6061,-0.6162,-0.6157,-0.6146,-0.6325,-0.6945,-0.769,-0.8542,-0.9145,-1.0346,-1.1316,-1.1316,-1.2565,-1.4027,-1.5021,-1.6219,-1.7285,-1.7862,-1.8008,-1.8008,-1.8008,-1.8008,-1.7579,-1.6376,-1.5587,-1.4736,-1.3448,-1.2836,-1.2538,-1.2808,-1.2946,-1.3153,-1.3353,-1.4822,-1.6079,-1.7042,-1.8904,-2.0453,-2.165,-2.168,-2.1894,-2.2285,-2.2168,-2.2246,-2.251,-2.251,-2.2598,-2.2734,-2.2734,-2.2646,-2.251,-2.251,-2.2266,-2.1904,-2.2051,-2.2021,-2.1924,-2.2217,-2.2236,-2.2129,0.0,0.0,0.0,0.0,0.0,0.0,0.0,0.0,0.0,-0.449,0.0,0.0,0.0,0.0,0.1118,0.0112,0.0,-0.0449,-0.1457,-0.1514,-0.1075,-0.0058,0.0,0.0,0.0,0.357,0.5133,0.4528,0.2518,0.0927,-0.0293,-0.1615,-0.3151,-0.4944,-0.6665,-0.8424,-1.0095,-1.0451,-1.0624,-1.0618,-1.0454,-1.0471,-1.061,-1.1631,-1.222,-1.2564,-1.3195,-1.3243,-1.2948,-1.2389,-1.0871,-0.9233,-0.8913,-0.7522,-0.6007,-0.5966,-0.5935,-0.5915,-0.5967,-0.6016,-0.619,-0.6907,-0.7462,-0.8008,-0.8613,-0.9814,-1.0783,-1.0783,-1.2124,-1.352,-1.4522,-1.5508,-1.6567,-1.7794,-1.8008,-1.8008,-1.8008,-1.8008,-1.7432,-1.5869,-1.5376,-1.4593,-1.2952,-1.2445,-1.2385,-1.2585,-1.2768,-1.2916,-1.3046,-1.4207,-1.5483,-1.6834,-1.7942,-1.9299,-2.0929,-2.0714,-2.1101,-2.1855,-2.1728,-2.1894,-2.2305,-2.2305,-2.2461,-2.2725,-2.2725,-2.2568,-2.2295,-2.2139,-2.1826,-2.1455,-2.1611,-2.1572,-2.1475,-2.1777,-2.1787,-2.1689,0.0,0.0,0.0,0.0,0.0,0.0,0.0,0.0,-0.4386,-0.4399,0.0,0.0,0.0,0.0,0.0,0.028,0.0,-0.1289,-0.4284,-0.4514,-0.32,-0.0279,-0.0059,0.0,0.0,0.347,0.5068,0.4528,0.4528,0.2976,0.0059,-0.1463,-0.2964,-0.4569,-0.5779,-0.7298,-0.8985,-1.0095,-1.0548,-1.0584,-1.0234,-1.0114,-1.0114,-1.0127,-1.0643,-1.1376,-1.1767,-1.2389,-1.307,-1.307,-1.2512,-1.1633,-1.0739,-0.8838,-0.6814,-0.6023,-0.5786,-0.5792,0.0,0.0,0.0,-0.6213,-0.7019,-0.7783,-0.7783,-0.9286,-1.0708,-1.0783,-1.1545,-1.2519,-1.3528,-1.453,-1.5728,-1.7657,-1.794,-1.8008,-1.8008,-1.8008,-1.7647,-1.6636,-1.572,-1.4807,-1.3745,-1.2806,-1.2305,-1.2305,-1.2565,-1.2808,-1.2808,-1.407,-1.5382,-1.6801,-1.7119,-1.7811,-1.8939,-1.9408,-1.991,-2.0586,-2.1016,-2.1445,-2.1865,-2.1865,-2.2314,-2.3076,-2.3076,-2.2617,-2.1836,-2.1426,-2.0986,-2.0605,-2.1045,-2.0947,-2.0664,-2.1533,-2.1582,-2.1279,0.0,0.0,0.0,0.0,0.0,0.0,0.0588,-0.1197,-0.2347,0.0,0.0,0.0,0.2611,0.2845,0.2066,0.0168,0.0,-0.1289,-0.4284,-0.4514,-0.411,-0.3304,-0.1189,0.0,0.0,0.228,0.3858,0.4771,0.4761,0.3657,0.1583,0.0056,-0.1986,-0.4492,-0.4893,-0.5713,-0.6929,-0.8592,-0.9667,-1.0234,-1.0147,-1.0114,-1.0194,-1.1005,-1.173,-1.2338,-1.3228,-1.3657,-1.3855,-1.3855,-1.2899,-1.1458,-1.0027,-0.8701,-0.7625,-0.6858,-0.6142,-0.5668,-0.5809,0.0,0.0,0.0,0.0,0.0,-0.6718,-0.7702,-0.8836,-0.9593,-1.049,-1.1755,-1.3375,-1.3954,-1.4522,-1.5799,-1.7079,-1.8008,-1.8008,-1.8008,-1.7373,-1.5799,-1.5376,-1.4522,-1.2879,-1.2445,-1.2305,0.0,-1.2378,-1.2425,-1.2425,-1.3744,-1.4713,-1.5101,-1.6374,-1.7167,-1.7482,-1.8594,-1.937,-1.9866,-2.0514,-2.0986,-2.1416,-2.1416,-2.1543,-2.1758,-2.1758,-2.1631,-2.1426,-2.1621,-2.126,-2.0576,-2.0703,-2.0674,-2.0596,-2.084,-2.0859,-2.0762,0.0,0.0,0.0,0.0,0.0,0.3953,0.1501,-0.0,-0.0446,0.0,0.0,0.0,0.2947,0.3181,0.2291,0.0168,0.0,-0.1008,-0.3365,-0.4163,-0.4668,-0.5041,-0.3049,-0.1264,-0.0,0.1592,0.3347,0.5081,0.488,0.4207,0.3138,0.1008,-0.128,-0.3588,-0.4206,-0.4969,-0.5888,-0.7076,-0.8363,-0.9682,-0.9992,-1.0187,-1.0383,-1.1037,-1.1721,-1.2421,-1.3348,-1.3906,-1.4264,-1.4569,-1.3828,-1.2525,-1.1105,-0.9952,-0.8924,-0.8113,-0.6995,-0.6079,-0.6246,-0.6004,-0.5837,-0.5989,0.0,0.0,-0.6179,-0.7046,-0.791,-0.8426,-0.9745,-1.1156,-1.2265,-1.315,-1.3882,-1.4458,-1.5869,-1.6941,-1.7364,-1.7725,-1.7295,-1.5446,-1.5234,-1.445,-1.2519,-1.2305,-1.2305,-1.2305,-1.2305,-1.2305,-1.2305,-1.3248,-1.3712,-1.3712,-1.4866,-1.5754,-1.6229,-1.7144,-1.8002,-1.8632,-1.9056,-1.9654,-2.0557,-2.0061,-2.0226,-2.0721,-2.031,-2.0044,-1.9916,-2.0145,-2.0357,-2.0566,-2.0566,-2.0566,-2.0566,-2.0566,-2.0566,-2.0566,0.0,0.0,0.5383,0.4937,0.4942,0.4468,0.2778,0.1228,0.1226,0.0,0.2845,0.2558,0.4428,0.4379,0.3137,0.0504,0.0112,-0.0615,-0.212,-0.3641,-0.4934,-0.5795,-0.5194,-0.3447,-0.058,0.0926,0.2776,0.5016,0.488,0.474,0.4422,0.1585,-0.0612,-0.2289,-0.3806,-0.4819,-0.5391,-0.5667,-0.689,-0.8766,-0.957,-1.0199,-1.0624,-1.0624,-1.1108,-1.1896,-1.2696,-1.3545,-1.4332,-1.5196,-1.5058,-1.4336,-1.3519,-1.2181,-1.0737,-0.9947,-0.8375,-0.6976,-0.71,-0.6623,-0.6118,-0.6261,-0.6345,0.0,-0.6307,-0.6972,-0.7555,-0.7405,-0.8991,-1.0496,-1.0594,-1.2164,-1.3441,-1.3477,-1.4385,-1.5426,-1.6289,-1.7148,-1.701,-1.5234,-1.5021,-1.4307,-1.2445,-1.2305,-1.2305,-1.2305,-1.2305,-1.2305,-1.2305,-1.2552,-1.2775,-1.2775,-1.3247,-1.4012,-1.5033,-1.5464,-1.6137,-1.7114,-1.7236,-1.7989,-1.9308,-1.832,-1.8665,-1.9817,-1.8888,-1.8279,-1.7904,-1.7904,-1.8859,-2.0235,-2.0235,-2.0235,-2.0235,-2.0235,-2.0235,-2.0235,0.0,0.5841,0.5978,0.5164,0.4914,0.4773,0.4403,0.2899,0.2007,0.2569,0.34,0.4284,0.5222,0.3729,0.24,0.1842,0.0671,-0.0615,-0.212,-0.3641,-0.4816,-0.555,-0.6407,-0.5806,-0.3658,-0.1848,0.0188,0.2512,0.4186,0.4863,0.4481,0.2608,0.0334,-0.2287,-0.3834,-0.4563,-0.4736,-0.5309,-0.6041,-0.688,-0.832,-0.9589,-1.0624,-1.0624,-1.1108,-1.1896,-1.2696,-1.3545,-1.441,-1.5811,-1.6173,-1.6066,-1.6293,-1.4961,-1.3254,-1.2837,-1.085,-0.8737,-0.8764,-0.8425,-0.807,-0.8113,-0.7702,0.0,-0.7732,-0.7056,-0.6389,-0.6536,-0.7503,-0.866,-0.9591,-1.0787,-1.1717,-1.1926,-1.3314,-1.4634,-1.5346,-1.5658,-1.5305,-1.4099,-1.3954,-1.3528,-1.2445,-1.2305,-1.2305,-1.2305,-1.2305,-1.2305,-1.2305,-1.2358,-1.2385,-1.2385,-1.2732,-1.3074,-1.3299,-1.4706,-1.5468,-1.571,-1.679,-1.7456,-1.7767,-1.7523,-1.7564,-1.7868,-1.7631,-1.7507,-1.7441,-1.7441,-1.7644,-1.79,-1.79,-1.79,-1.79,-1.79,-1.79,-1.7937,0.5172,0.5882,0.6233,0.5651,0.5552,0.5348,0.4784,0.3492,0.2952,0.3895,0.4615,0.5003,0.5011,0.4021,0.2738,0.1228,0.179,0.1286,-0.0948,-0.2286,-0.3616,-0.4929,-0.5939,-0.6295,-0.5944,-0.3443,-0.0789,0.1958,0.4183,0.509,0.4653,0.2967,0.1019,-0.1228,-0.3471,-0.449,-0.4539,-0.4934,-0.5266,-0.5659,-0.7763,-0.9169,-0.9977,-1.0428,-1.1108,-1.1834,-1.2266,-1.3174,-1.4488,-1.6226,-1.6712,-1.6666,-1.7499,-1.6582,-1.5146,-1.4899,-1.3017,-1.0996,-1.1053,-1.0556,-0.9978,-1.0184,-0.963,0.0,0.0,-0.771,-0.676,-0.6374,-0.7076,-0.7974,-0.8631,-0.9622,-1.037,-1.0513,-1.1713,-1.2775,-1.3292,-1.4429,-1.4807,-1.381,-1.3673,-1.331,-1.2372,-1.2305,-1.2305,-1.2305,-1.2305,-1.2305,-1.2305,-1.2305,-1.2305,-1.2305,-1.2667,-1.2822,-1.2822,-1.3884,-1.4434,-1.4434,-1.5315,-1.5959,-1.6519,-1.5959,-1.6041,-1.6429,-1.5777,-1.5561,-1.5703,-1.5539,-1.5569,-1.5801,-1.6854,-1.7342,-1.7342,-1.7342,-1.7218,-1.7108,0.5251,0.6045,0.6542,0.6363,0.6371,0.5982,0.4678,0.379,0.3895,0.5622,0.55,0.5167,0.4746,0.4595,0.3416,0.067,0.2633,0.3142,0.1006,-0.0445,-0.2215,-0.4426,-0.5039,-0.5841,-0.7012,-0.4635,-0.17,0.1757,0.4148,0.5214,0.4968,0.3071,0.1431,-0.0112,-0.2571,-0.3984,-0.4504,-0.4461,-0.4585,-0.5005,-0.727,-0.8538,-0.9139,-1.004,-1.073,-1.1337,-1.171,-1.281,-1.4506,-1.6327,-1.6869,-1.695,-1.8227,-1.7746,-1.6592,-1.6526,-1.4888,-1.3122,-1.3219,-1.2505,-1.1748,-1.2061,-1.1703,-1.0998,0.0,0.0,0.0,-0.6994,-0.7184,-0.7585,-0.7711,-0.8581,-0.9274,-0.9365,-1.0184,-1.0975,-1.1594,-1.3265,-1.4275,-1.3726,-1.3608,-1.3283,-1.2553,-1.2478,-1.2432,-1.2311,-1.2412,-1.2452,-1.2392,-1.2385,-1.2385,-1.2385,-1.2694,-1.2795,-1.2735,-1.32,-1.3474,-1.3474,-1.3774,-1.4428,-1.5284,-1.4406,-1.4483,-1.527,-1.4056,-1.3781,-1.3981,-1.3681,-1.3768,-1.425,-1.6041,-1.669,-1.669,-1.669,-1.6541,-1.6292,0.6034,0.6861,0.739,0.7491,0.7426,0.6728,0.4808,0.4412,0.4622,0.5437,0.5003,0.4787,0.5328,0.4853,0.3802,0.212,0.2287,0.291,0.394,0.1394,-0.1441,-0.4371,-0.4594,-0.4984,-0.5714,-0.5997,-0.3972,0.0409,0.348,0.5115,0.5295,0.3199,0.1399,-0.0,-0.0335,-0.2012,-0.4448,-0.3762,-0.4005,-0.5013,-0.6175,-0.7239,-0.8221,-0.9134,-0.953,-0.9773,-1.1267,-1.281,-1.4405,-1.5702,-1.6728,-1.7752,-1.9437,-1.881,-1.7567,-1.8081,-1.6212,-1.4028,-1.4029,-1.3596,-1.3162,-1.3018,-1.302,-1.2978,-1.2551,0.0,-0.9216,-0.8728,0.0,-0.6549,-0.6669,0.0,0.0,-0.8759,-0.949,-1.0507,-1.198,-1.2062,-1.2359,-1.344,-1.3419,-1.3185,-1.3106,-1.3106,-1.2886,-1.2345,-1.2806,-1.2986,-1.2788,-1.2768,-1.2768,-1.2768,-1.2802,-1.2694,-1.2351,-1.2679,-1.2923,-1.2929,-1.316,-1.3521,-1.3851,-1.3694,-1.3687,-1.3845,-1.3654,-1.3579,-1.3667,-1.338,-1.3587,-1.4088,-1.4328,-1.4496,-1.4496,-1.4496,-1.422,-1.3919,0.613,0.6945,0.767,0.8259,0.7864,0.716,0.6178,0.5489,0.5164,0.5487,0.5269,0.5164,0.5487,0.4904,0.4255,0.3583,0.3522,0.3811,0.4465,0.2233,0.0055,-0.1831,-0.3542,-0.4659,-0.4904,-0.5776,-0.4352,-0.064,0.1868,0.3884,0.5342,0.3422,0.1593,0.0,0.0,-0.069,-0.1908,-0.2426,-0.3628,-0.5171,-0.488,-0.548,-0.6675,-0.856,-0.9594,-1.0231,-1.1399,-1.2258,-1.2989,-1.4205,-1.5345,-1.6437,-1.7448,-1.7679,-1.7545,-1.7132,-1.5988,-1.4771,-1.4391,-1.3895,-1.3639,-1.4156,-1.4433,-1.4283,-1.3253,-1.2267,-1.11,-0.9776,0.0,0.0,0.0,0.0,0.0,0.0,-0.8376,-0.931,-1.0243,-1.0554,-1.1275,-1.2599,-1.248,-1.2284,-1.203,-1.2283,-1.2403,-1.2284,-1.3026,-1.3253,-1.2849,-1.2919,-1.3013,-1.3013,-1.2916,-1.2761,-1.2559,-1.2761,-1.2822,-1.2829,-1.306,-1.3273,-1.3394,-1.3394,-1.3487,-1.3552,-1.3467,-1.3487,-1.3539,-1.3327,-1.3454,-1.3828,-1.3828,-1.3935,-1.4088,-1.4088,-1.3794,-1.3373,0.6604,0.7318,0.8088,0.8998,0.8231,0.7346,0.6887,0.6323,0.5949,0.5949,0.5949,0.5817,0.5546,0.5066,0.4698,0.449,0.4484,0.449,0.4518,0.3135,0.1615,0.0056,-0.2107,-0.3669,-0.4484,-0.5148,-0.4399,-0.2075,0.0575,0.3011,0.5096,0.3367,0.1658,0.0,0.0,0.0,-0.0059,-0.1119,-0.3075,-0.5284,-0.3916,-0.4148,-0.5627,-0.8032,-0.946,-1.0358,-1.1163,-1.1586,-1.1941,-1.2909,-1.4057,-1.507,-1.5811,-1.63,-1.6518,-1.5979,-1.5262,-1.4575,-1.4072,-1.3658,-1.3653,-1.4404,-1.5018,-1.4977,-1.3459,-1.3047,-1.242,-1.0608,-0.9708,0.0,0.0,0.0,-0.7774,-0.6889,0.0,-0.8205,-0.8949,-0.9543,-1.0353,-1.1705,-1.1652,-1.1363,-1.1044,-1.1438,-1.1692,-1.164,-1.2351,-1.2612,-1.2139,-1.2552,-1.2833,-1.2833,-1.2942,-1.2953,-1.2872,-1.2869,-1.2822,-1.2822,-1.2893,-1.3006,-1.308,-1.308,-1.32,-1.3387,-1.3173,-1.3206,-1.3373,-1.3086,-1.3233,-1.3552,-1.3554,-1.3754,-1.4088,-1.4088,-1.3768,-1.3327,0.7784,0.838,0.8871,0.9879,0.8657,0.7165,0.6191,0.662,0.7023,0.7023,0.7023,0.6651,0.5614,0.5487,0.5222,0.4532,0.448,0.4484,0.4497,0.4448,0.3084,0.0111,-0.0112,-0.1507,-0.4438,-0.4507,-0.4507,-0.4389,0.0,0.2968,0.4504,0.2965,0.1396,0.0,0.0,0.0,-0.0,-0.0061,-0.2138,-0.523,-0.3456,-0.3806,-0.5592,-0.7367,-0.8613,-0.9466,-1.0301,-1.117,-1.1887,-1.2289,-1.3202,0.0,0.0,-1.516,-1.4341,-1.5071,-1.4218,-1.307,-1.3033,-1.3033,-1.304,-1.3165,-1.4214,-1.4848,-1.3528,-1.3003,-1.2596,-1.1426,-0.9903,-0.858,-0.7942,-0.7799,-0.7605,-0.684,-0.6733,0.0,0.0,-0.916,-0.9506,-1.0937,-1.093,-1.0796,-1.0612,-1.0925,-1.0786,-1.0144,-1.0589,-1.0732,-1.0287,-1.1349,-1.1934,-1.1934,-1.3022,-1.348,-1.32,-1.2899,-1.2822,-1.2822,-1.2465,-1.2485,-1.2835,-1.2835,-1.2842,-1.2849,-1.2842,-1.2842,-1.2829,-1.2452,-1.2852,-1.3532,-1.3333,-1.3581,-1.4088,-1.4088,-1.3895,-1.3627,0.7381,0.8288,0.9188,0.9721,0.8964,0.8153,0.7855,0.8017,0.8311,0.8833,0.7993,0.7216,0.6726,0.6194,0.5454,0.4579,0.4485,0.4487,0.4507,0.4511,0.3142,0.0112,0.0,-0.0502,-0.1507,-0.246,-0.2514,-0.1504,-0.0,0.214,0.4765,0.4026,0.2375,0.0,0.0,0.0,0.0,0.0,-0.1423,-0.354,-0.2943,-0.3816,-0.5557,-0.7312,-0.8549,-0.9402,-1.0301,-1.0744,0.0,-1.1171,-1.1799,-1.2671,-1.3091,-1.3302,-1.333,-1.3072,-1.2602,-1.2081,0.0,0.0,-1.1475,-1.1873,-1.3038,-1.3874,-1.3141,-1.2777,-1.2655,-1.2305,-1.1075,-0.9776,-0.8976,-0.8856,-0.8447,-0.6943,-0.6802,-0.709,0.0,-0.7782,-0.7937,-0.8582,-0.8675,-0.8951,-0.9573,-0.9815,-0.9962,-0.9996,-1.0474,-1.059,-1.0213,-1.0757,-1.1011,-1.1011,-1.1123,-1.1081,-1.0997,-1.0678,-1.0854,-1.1452,-1.136,-1.1745,-1.2452,-1.2452,-1.2559,-1.2822,-1.2822,-1.2822,-1.2815,-1.2714,-1.2772,-1.306,-1.3166,-1.2949,-1.2785,-1.3749,-1.3901,-1.3587,0.7328,0.8251,0.9172,0.9452,0.9599,0.9647,0.9693,0.9908,1.0154,1.0291,0.9395,0.8311,0.7359,0.6635,0.5732,0.4572,0.4023,0.3655,0.3653,0.4188,0.361,0.1708,0.0569,0.0,0.0,-0.0949,-0.0955,0.0,0.1064,0.2685,0.4746,0.4599,0.348,0.1583,0.1628,0.1008,0.0,0.0,-0.065,-0.1821,-0.2415,-0.3754,-0.5579,-0.6994,-0.7897,-0.8484,0.0,-0.9843,-1.011,-1.011,-1.0667,-1.1406,-1.171,-1.1958,-1.2089,-1.1896,-1.1586,-1.1288,-1.0744,-1.0624,0.0,-1.1149,-1.2032,0.0,-1.2546,-1.2178,-1.1879,-1.2054,-1.0972,-0.973,-0.8793,-0.8817,-0.8362,-0.6898,-0.6756,-0.6868,0.0,-0.7143,-0.7245,-0.7364,-0.7495,-0.7882,-0.8441,-0.8737,-0.8889,-0.9,-0.938,-0.9499,-0.9141,-0.9229,-0.9557,-1.0009,-1.0085,-1.006,-1.006,-0.963,-0.979,-1.0394,-1.068,-1.1162,-1.1768,-1.215,-1.2405,-1.2585,-1.2585,-1.2585,-1.2585,-1.2277,-1.2107,-1.2229,-1.2116,-1.1729,-1.1549,-1.2912,-1.3041,-1.241,0.7521,0.84,0.9138,0.9508,1.0748,1.1739,1.1728,1.2281,1.243,1.1479,1.1133,0.9945,0.7426,0.6854,0.6064,0.4657,0.3074,0.2149,0.1987,0.3299,0.4145,0.438,0.1471,-0.0174,-0.0281,-0.0169,-0.0114,-0.0,0.2864,0.4329,0.4405,0.449,0.4545,0.4559,0.4532,0.2917,0.0185,0.0062,0.0,-0.0135,-0.1944,-0.3758,-0.5459,-0.6342,-0.6654,-0.6785,-0.7702,-0.8549,-0.9274,-0.9274,-0.9849,-1.0744,-1.1531,-1.1226,-1.0744,-1.1531,-1.1226,-1.0624,-1.0624,-1.0624,-1.0692,-1.0902,-1.1189,0.0,0.0,0.0,-1.037,-1.0638,-0.9619,-0.8488,-0.7668,-0.7673,-0.7504,-0.6655,-0.6669,-0.6779,-0.7051,-0.7234,-0.7354,-0.7348,-0.7502,-0.7557,-0.7409,-0.7777,-0.7753,-0.7207,-0.7428,-0.7458,-0.6989,-0.7034,-0.7643,-0.8819,-0.9715,-1.0257,-1.0257,-0.9747,-0.9531,-0.9605,-1.0296,-1.0708,-1.0789,-1.1694,-1.215,-1.215,-1.215,-1.215,-1.2077,-1.1087,-1.086,-1.1045,-1.0253,-1.0075,-1.0444,-1.1638,-1.1305,-1.0371,0.7067,1.0148,1.3059,1.4586,1.4824,1.4855,1.4911,1.4749,1.4114,1.2731,1.1771,1.0276,0.782,0.7228,0.6393,0.4952,0.3232,0.1186,-0.1285,-0.1895,-0.0687,0.264,-0.0293,-0.2636,-0.3975,-0.2676,-0.1446,-0.0303,0.0481,0.153,0.2797,0.3966,0.4753,0.5171,0.5162,0.4483,0.3194,0.0955,0.0,-0.0135,-0.1947,-0.3763,-0.5393,0.0,-0.576,-0.5947,-0.7442,-0.8549,-0.9274,-0.9274,-0.9849,-1.0624,-1.0863,-1.0744,-1.0624,-1.087,-1.0744,-1.0624,-1.0624,-1.0624,-1.0645,-1.0719,-1.0889,-1.0989,0.0,0.0,0.0,0.0,0.0,0.0,0.0,-0.7839,-0.7664,-0.682,-0.6843,-0.6959,-0.6959,-0.7051,-0.717,-0.7068,-0.6956,-0.7127,-0.7654,-0.7346,-0.7248,-0.7571,-0.7168,-0.6183,-0.4561,0.0,-0.7238,-0.7507,-0.7655,-0.7681,-0.7662,-0.7331,-0.7545,-0.8313,-0.8484,-0.8988,-0.9669,-0.997,-1.0051,-1.0051,-1.0051,-1.0051,-1.0045,-0.982,-0.9706,-0.98,-0.9871,-0.9586,-0.9292,-1.0549,-1.0781,-1.0499,0.7499,1.175,1.5976,1.8569,1.8941,1.8495,1.7312,1.6791,1.5701,1.3442,1.2486,1.1019,0.8544,0.7438,0.6276,0.483,0.3159,0.1131,-0.1347,-0.3658,-0.3677,-0.0838,-0.2761,-0.4345,-0.54,-0.4415,-0.347,-0.2566,-0.0988,0.0251,0.1307,0.3719,0.4645,0.4246,0.4931,0.5085,0.4525,0.1368,0.0,-0.0069,-0.1094,-0.3078,0.0,-0.5413,-0.5433,-0.5502,-0.6535,-0.7442,-0.8156,-0.8156,-0.9005,-1.004,-1.004,-1.0301,-1.0624,-1.0624,-1.0624,-1.0624,-1.0624,-1.0624,-1.0624,-1.0624,-1.0681,-1.064,-0.9892,-0.8985,-0.8358,0.0,-0.7547,-0.6734,0.0,-0.7167,-0.7249,-0.688,-0.6926,-0.7051,-0.6959,-0.7008,-0.697,-0.6949,-0.6917,-0.7045,-0.755,-0.7361,-0.72,-0.7309,-0.7207,-0.6171,0.0,-0.3875,-0.4503,-0.5554,-0.6524,-0.6946,-0.6632,-0.6539,-0.6699,-0.7176,-0.7557,-0.8084,-0.8694,-0.9069,-0.9296,-0.9296,-0.9296,-0.9352,-0.9356,-0.8899,-0.8796,-0.8834,-0.866,-0.8312,-0.8053,-0.8839,-0.9,-0.8927,0.94,1.3849,1.8382,2.1482,2.2538,2.2068,1.9289,1.8361,1.688,1.3689,1.2897,1.167,0.9005,0.7456,0.6041,0.4615,0.3118,0.1532,0.0059,-0.2951,-0.4693,-0.4628,-0.4859,-0.5105,-0.5381,-0.5392,-0.5405,-0.5427,-0.2273,-0.0448,0.0067,0.371,0.4559,0.3103,0.4525,0.5109,0.4926,0.1462,0.0,0.0,0.0,-0.1888,-0.4708,-0.4954,-0.5216,-0.5376,-0.5432,-0.5947,-0.6719,-0.6719,-0.7762,-0.9139,-0.9139,-0.9652,-1.0231,-1.0231,-1.0231,-1.0231,-1.0231,-1.0364,-1.0428,-1.0301,-1.0358,-1.0219,-0.9478,-0.8606,-0.7888,-0.7371,-0.6589,-0.593,0.0,0.0,-0.6796,-0.7058,-0.7139,-0.7051,-0.7051,-0.6871,-0.6845,-0.6996,-0.7002,0.0,-0.7355,-0.7368,-0.7255,-0.6962,-0.7441,-0.6397,0.0,0.0,-0.0918,-0.3061,-0.5549,-0.6857,-0.6709,-0.6712,-0.6552,-0.6397,-0.7196,-0.7629,-0.7629,-0.8542,-0.8932,-0.8956,-0.8956,-0.8995,-0.9025,-0.8162,-0.7874,-0.7974,-0.7211,-0.7014,-0.7139,-0.7139,-0.7061,-0.6973,1.5069,1.8546,2.1153,2.2964,2.42,2.4013,2.1399,1.9203,1.6627,1.3168,1.2131,1.0606,0.7772,0.6935,0.6046,0.4636,0.307,0.1487,-0.0243,-0.0697,-0.2234,-0.5145,-0.3631,-0.3616,-0.5389,-0.538,-0.5382,-0.5401,-0.4779,-0.2896,0.007,0.3697,0.5233,0.4942,0.525,0.5328,0.5143,0.1506,0.0,0.0,0.0,-0.035,-0.1114,-0.2585,-0.4108,-0.5376,-0.5432,-0.5947,-0.6719,-0.6719,-0.7372,-0.8221,-0.8221,-0.835,-0.8479,-0.8479,-0.8479,-0.8479,-0.8479,-0.9005,-0.9332,-0.8613,-0.9023,-0.9128,-0.7587,-0.7064,-0.6753,-0.6049,-0.5766,-0.5962,-0.7038,0.0,-0.7918,-0.8312,-0.7598,-0.6868,-0.6596,-0.6692,-0.6763,-0.6782,-0.6602,-0.659,-0.7119,-0.7004,-0.7115,-0.7757,-0.7012,-0.4873,0.0,0.0,-0.0189,0.0,-0.2953,0.0,0.0,0.0,-0.6549,-0.662,-0.6609,-0.6567,-0.6567,-0.6718,-0.6865,-0.6983,-0.6983,-0.7079,-0.7148,-0.6983,-0.6996,-0.7144,-0.7001,-0.7014,-0.7139,-0.7139,-0.7126,-0.7105,1.6546,1.9152,2.1044,2.276,2.3553,2.3163,2.0874,1.8785,1.635,1.3202,1.2446,1.124,0.8718,0.7345,0.6204,0.5328,0.4125,0.2377,-0.0058,-0.0058,-0.0769,-0.2519,-0.2518,-0.2933,-0.3944,-0.4932,-0.5383,-0.5401,-0.4428,-0.3571,-0.2649,0.2818,0.5393,0.5368,0.5404,0.5415,0.5294,0.368,0.1814,0.0,0.0,0.0,-0.007,-0.0963,-0.2986,-0.5386,-0.5376,-0.5693,-0.6009,-0.6009,-0.6593,-0.7307,-0.7307,-0.7632,-0.8027,-0.8027,-0.8027,-0.8027,-0.8027,-0.8291,-0.8549,-0.8091,-0.8313,-0.8281,-0.7015,-0.6698,-0.6484,-0.5745,-0.5634,-0.6147,-0.7484,-0.8363,0.0,0.0,-0.8839,-0.8535,-0.8193,-0.7758,-0.7541,-0.7454,-0.6863,-0.6074,-0.5394,-0.5227,-0.5772,-0.741,-0.218,0.2006,0.4051,0.0,0.0,0.0,0.0,0.0,-0.7309,0.0,-0.6993,-0.6481,-0.6339,-0.6268,-0.6338,-0.6338,-0.6339,-0.6471,-0.6471,-0.6603,-0.6824,-0.6898,-0.697,-0.7037,-0.7037,-0.7082,-0.7139,-0.7139,-0.7139,-0.7139,1.6759,1.8713,2.0256,2.1904,2.2102,2.1424,1.9679,1.7882,1.5813,1.3152,1.2572,1.1559,0.9512,0.7688,0.6416,0.5851,0.5018,0.3378,0.0627,0.0174,-0.036,-0.113,-0.2486,-0.3255,-0.328,-0.4691,-0.5376,-0.5392,-0.3599,-0.3027,0.0,0.2259,0.5196,0.5738,0.5936,0.5925,0.0,0.0,0.3908,0.1189,0.0357,0.0,0.0,0.0,-0.2255,-0.5396,-0.5382,-0.5372,-0.5432,-0.5428,-0.5881,-0.6396,-0.6396,-0.692,-0.7442,-0.7442,-0.7442,-0.7442,-0.7442,-0.7572,-0.7702,-0.7507,-0.7608,-0.7519,-0.6637,-0.6436,-0.6274,-0.5675,-0.588,-0.6576,-0.8043,-0.9037,0.0,0.0,-1.0036,-0.9917,-0.9649,-0.8832,-0.8214,-0.8108,-0.7098,-0.5872,-0.435,-0.3866,-0.4188,-0.5455,0.259,0.7732,0.7838,0.0,0.0,0.0,0.0,-0.1816,-0.5518,0.0,-0.6644,-0.5851,-0.6162,-0.6274,-0.6264,-0.6264,-0.6356,-0.6522,-0.6522,-0.6695,-0.6983,-0.7095,-0.7139,-0.7139,-0.7139,-0.7139,-0.7139,-0.7058,-0.7058,-0.7058,1.7445,1.9227,2.033,2.0867,2.0461,1.9751,1.8939,1.6807,1.4561,1.2453,1.1469,1.0179,0.8117,0.7101,0.6312,0.5592,0.4904,0.3786,0.2123,0.0714,-0.1467,-0.4743,-0.5062,-0.512,-0.5169,-0.5309,-0.5383,-0.5392,-0.3599,-0.0951,0.0,0.301,0.4527,0.6805,0.0,0.0,0.0,0.577,0.5372,0.4984,0.14,0.0,0.0,0.0,-0.222,-0.5406,-0.5386,-0.5379,-0.5376,-0.5432,-0.5425,-0.5491,-0.5491,-0.5557,-0.5624,-0.5624,-0.5624,-0.5624,-0.5624,-0.6207,-0.6658,-0.5815,-0.624,-0.6607,-0.5741,-0.5547,-0.5477,-0.5425,-0.6316,-0.7626,-0.9094,-0.9363,-0.975,0.0,0.0,-0.9527,-0.937,-0.8678,-0.8089,-0.7846,-0.6954,-0.6211,-0.6091,-0.4584,-0.2786,-0.0806,0.3776,0.6691,0.7159,0.0,0.0,0.019,0.0,-0.0177,-0.0688,-0.2873,-0.4059,-0.4207,-0.5657,-0.6278,-0.6278,-0.6268,-0.6413,-0.6678,-0.6678,-0.6848,-0.7122,-0.7136,-0.7139,-0.7139,-0.7139,-0.7139,-0.7143,-0.7074,-0.7081,-0.7084,1.4681,1.5938,1.6763,1.7322,1.7627,1.7335,1.6188,1.4955,1.348,1.1388,1.0862,1.0023,0.8546,0.7289,0.6475,0.6204,0.5128,0.4226,0.3646,0.1323,-0.062,-0.2095,-0.4238,-0.5415,-0.5389,-0.5382,-0.5386,-0.5392,-0.464,-0.1754,0.3151,0.0,0.0,0.0,0.0,0.765,0.6836,0.6537,0.6102,0.5362,0.2826,0.1125,0.0,0.0,-0.0873,-0.2415,-0.4648,-0.5389,-0.5379,-0.5372,-0.5432,-0.5428,-0.5428,-0.5428,-0.5428,-0.5428,-0.5428,-0.5428,-0.5428,-0.5686,-0.5815,-0.5491,-0.5675,-0.5796,-0.5491,-0.5428,-0.5428,-0.5428,-0.6436,-0.7756,-0.9108,-0.9499,-0.982,-1.0784,0.0,-0.9532,-0.9295,-0.8508,-0.791,-0.767,-0.663,-0.6061,-0.6266,-0.3161,0.0401,0.4028,0.4708,0.5581,0.0,0.0,0.0,0.3364,0.0,0.0,0.0,-0.0927,-0.1487,-0.1666,-0.4811,-0.6302,-0.6288,-0.6437,-0.6624,-0.6793,-0.6912,-0.7031,-0.7139,-0.7139,-0.7139,-0.7149,-0.7244,-0.7195,-0.7115,-0.7218,-0.6297,-0.5184,1.2206,1.3186,1.3882,1.4324,1.4697,1.4697,1.3786,1.3016,1.2025,1.0794,1.0312,0.9703,0.8619,0.7343,0.6559,0.6404,0.5202,0.4515,0.459,0.2528,0.0948,0.0065,-0.246,-0.4172,-0.4843,-0.5243,-0.543,-0.5395,-0.5408,-0.2812,0.0,0.0,0.0,0.0,0.9202,0.8488,0.7198,0.734,0.6652,0.5346,0.3639,0.1807,0.0,0.0,0.0,-0.0335,-0.2889,-0.4512,-0.5389,-0.5386,-0.5379,-0.5369,-0.5428,-0.5428,-0.5428,-0.5428,-0.5428,-0.5428,-0.5428,-0.5428,-0.5428,-0.5428,-0.5428,-0.5428,-0.5428,-0.5428,-0.5428,-0.5428,-0.6212,-0.7223,-0.8522,-0.8944,-0.9406,-1.0226,0.0,0.0,-0.935,-0.8468,-0.7704,-0.7513,-0.6593,-0.5953,-0.6029,-0.2175,0.2135,0.6505,0.6051,0.5999,0.0,0.0,0.0,0.0,0.0,0.0,0.0,0.0,0.0,-0.0,-0.302,-0.48,-0.5425,-0.6222,-0.6742,-0.6861,-0.7061,-0.7061,-0.7061,-0.7143,-0.7143,-0.7071,-0.7272,-0.7326,-0.7252,-0.7259,-0.6145,-0.4845,1.0845,1.1922,1.2737,1.2456,1.1974,1.1773,1.2313,1.0984,1.0106,1.0808,0.9911,0.8844,0.7806,0.702,0.6399,0.587,0.5035,0.4584,0.4798,0.4586,0.3134,0.0133,-0.0067,-0.1204,-0.3542,-0.4764,-0.5372,-0.5432,-0.5386,0.0,0.02,0.0,1.0451,0.9571,1.1335,1.0574,0.7967,0.7967,0.7148,0.5603,0.3556,0.1611,0.0,0.0,0.0,-0.0,-0.0067,-0.2348,-0.541,-0.5399,-0.5396,-0.5389,-0.5369,-0.5428,-0.5428,-0.5428,-0.5428,-0.5428,-0.5428,-0.5428,-0.5428,-0.5428,-0.5428,-0.5428,-0.5428,-0.5428,-0.5428,-0.5428,-0.5617,-0.618,-0.7305,-0.7664,-0.8128,-0.913,0.0,0.0,-0.9339,-0.8435,-0.7708,-0.7553,-0.6762,-0.6051,-0.5439,-0.2284,0.1539,0.5982,0.8053,0.0,0.0,0.0,0.0,0.7081,0.704,0.0,0.0084,0.0,0.0,-0.0,-0.0079,-0.1175,-0.3224,-0.5609,-0.6706,-0.6711,-0.6997,-0.7084,-0.7084,-0.7061,-0.7064,-0.7084,-0.7088,-0.7279,-0.7567,-0.7224,-0.7048,-0.7052,0.9868,1.008,1.028,1.1157,1.1132,1.0935,1.0669,1.0177,0.9768,0.9757,0.8882,0.8072,0.748,0.7125,0.6614,0.5883,0.4989,0.4314,0.3786,0.4504,0.3448,0.0134,0.0,-0.0937,-0.2943,-0.457,-0.5386,-0.5372,0.0,0.0,0.0,0.7918,0.9501,1.0296,1.0873,0.997,0.8037,0.8123,0.7132,0.5403,0.363,0.1775,0.0,0.0,0.0,0.0,0.0,-0.0739,-0.2079,-0.4584,-0.4579,-0.3553,-0.3549,-0.4422,-0.5372,-0.5372,-0.5372,-0.5376,-0.5382,-0.5386,-0.5379,-0.5432,-0.5428,-0.5096,-0.3837,-0.3569,-0.3904,-0.5163,-0.5583,-0.6069,-0.7294,-0.7084,-0.7138,-0.8099,-0.7708,0.0,-0.7061,-0.674,-0.6497,-0.6205,-0.5988,-0.5747,-0.5593,-0.2101,0.1659,0.5377,0.7795,0.0,0.0,0.0,0.0,0.0,0.705,0.0,0.4888,0.1643,0.0,0.0,0.0,-0.0314,-0.1021,-0.1753,-0.2999,-0.4614,-0.4643,-0.5644,-0.7094,-0.7081,-0.7084,-0.7104,-0.7292,-0.7255,-0.7282,-0.7573,-0.5381,-0.2237,0.8712,0.8869,0.902,0.9909,1.0064,0.9917,0.9465,0.9413,0.9411,0.9408,0.8644,0.7957,0.7629,0.711,0.0,0.5624,0.4893,0.4405,0.411,0.4797,0.4229,0.2139,0.0737,-0.1138,-0.3627,-0.4852,0.0,-0.5386,-0.4026,0.0204,0.705,0.8092,0.8935,0.9646,1.0281,0.9436,0.7512,0.7579,0.6785,0.5259,0.3621,0.1771,0.0,0.0,0.0,0.0,0.0,0.0,-0.0336,-0.2626,-0.3096,-0.2686,-0.2681,-0.3961,-0.5389,-0.5386,-0.4906,-0.4361,-0.4367,-0.437,-0.4364,-0.4411,-0.4897,-0.4715,-0.2225,-0.1687,-0.2021,-0.3151,-0.4556,-0.5827,-0.6699,-0.65,-0.6342,-0.6979,-0.6578,-0.6099,-0.5941,-0.5907,-0.5783,-0.5681,-0.5621,-0.5619,0.0,-0.2157,0.194,0.6258,0.8314,0.0,0.0,0.0,0.0,0.8147,0.7598,0.7208,0.6906,0.3117,0.0809,0.0,0.0,0.0,0.0,0.0,-0.0827,-0.2249,-0.2242,-0.3044,-0.4476,-0.5369,-0.6278,-0.7125,-0.7212,-0.6142,-0.4495,-0.4865,-0.2875,0.0,0.7557,0.8209,0.8699,0.0,0.8804,0.0,0.8804,0.8824,0.9031,0.9522,0.8844,0.8199,0.7891,0.6944,0.603,0.5209,0.0,0.0,0.5328,0.5377,0.5377,0.5389,0.2076,-0.1475,-0.4931,-0.5276,-0.5406,-0.5396,-0.1667,0.1995,0.5474,0.7906,0.8628,0.8091,0.9603,0.8954,0.6719,0.6719,0.621,0.5243,0.3551,0.174,0.0,0.0,0.0,0.0,0.0,0.0,0.0,0.0,-0.1146,-0.2498,-0.2488,-0.3703,-0.5068,-0.5333,-0.4233,-0.2813,-0.2611,-0.2544,-0.2541,-0.2531,-0.3787,-0.4115,-0.075,0.0,0.0,0.0,-0.2696,-0.5183,-0.5629,-0.588,-0.5973,-0.5854,-0.5909,-0.596,-0.5803,-0.5715,-0.5634,-0.5771,0.0,0.0,-0.5771,-0.2394,0.2195,0.0,0.9222,0.0,0.0,0.0,1.0725,0.8953,0.8508,0.7735,0.6585,0.4396,0.2201,0.0,0.0,0.0,0.0,0.0,0.0,0.0,0.0,0.0,-0.0179,-0.241,-0.4659,-0.6678,-0.6952,-0.4226,0.0,0.0,0.0,0.0,0.0,0.0,0.745,0.8586,0.8804,0.8804,0.8804,0.8991,0.8965,0.8583,0.806,0.7464,0.6818,0.6092,0.5567,0.5373,0.5008,0.4934,0.5172,0.5159,0.522,0.5389,0.3286,0.1003,-0.1206,-0.3974,-0.541,-0.541,-0.0401,0.3203,0.5411,0.6706,0.7558,0.8027,0.8404,0.7882,0.6719,0.6719,0.621,0.5379,0.4909,0.2817,0.0,0.0,0.0,0.0,0.0,0.0,0.0,0.0,-0.027,-0.0607,-0.0606,-0.0942,-0.1818,-0.459,-0.5065,-0.4177,-0.1412,-0.0673,-0.0672,-0.0672,-0.093,-0.1063,-0.0228,0.0,0.0,0.0,-0.0712,-0.2164,-0.4921,-0.5645,-0.5796,-0.595,-0.5874,-0.5786,-0.5645,-0.5659,-0.5634,0.0,-0.5495,-0.5428,-0.5498,-0.2209,0.1005,0.0,0.0,1.0518,1.1559,1.2979,1.2242,0.9033,0.769,0.6946,0.6585,0.5876,0.3679,0.0,0.0,0.0,0.0,0.0,0.0,0.0,0.0,0.0,-0.0,-0.0626,-0.1164,-0.2066,-0.5676,-0.4226,0.0,0.0,0.0,0.0,0.6987,0.7274,0.764,0.8612,0.8309,0.8172,0.8897,0.8571,0.8322,0.8434,0.7532,0.6786,0.6561,0.5829,0.5428,0.5428,0.5148,0.5077,0.5226,0.5169,0.5209,0.5379,0.3954,0.214,0.0067,-0.1945,-0.2147,-0.0469,0.1673,0.3613,0.5428,0.6264,0.6724,0.6859,0.7242,0.692,0.6141,0.6141,0.5818,0.5372,0.5389,0.3758,0.1138,0.0336,0.0,0.0,0.0,0.0,0.0,0.0,0.0,0.0,0.0,0.0,-0.0411,-0.2366,-0.2965,-0.2493,-0.0539,0.0,0.0,0.0,0.0,0.0,0.0,0.0,0.0,0.0,0.0,-0.0605,-0.2547,-0.3694,-0.4659,-0.5578,-0.5717,-0.5704,-0.5564,-0.5564,-0.5233,-0.43,-0.4169,-0.4509,-0.5333,-0.2153,0.1411,0.4888,0.815,0.0,1.2524,1.314,1.2287,0.9761,0.8811,0.7824,0.6747,0.6555,0.4277,0.0,0.0,0.0,0.0,0.0,0.0,0.0,0.0,0.0,0.0,0.0,0.0,-0.027,-0.2875,-0.2258,0.0,0.0,0.0,0.0,0.6724,0.7449,0.8211,0.8648,0.7956,0.7699,0.8733,0.8027,0.7581,0.8287,0.7125,0.634,0.6469,0.58,0.5428,0.5428,0.524,0.522,0.5418,0.524,0.523,0.5372,0.4422,0.2943,0.087,0.0536,0.1944,0.4995,0.3758,0.3887,0.5446,0.6145,0.6141,0.5428,0.6203,0.6075,0.5428,0.5428,0.5428,0.5428,0.5382,0.4367,0.2611,0.0739,0.0,0.0,0.0,0.0,0.0,0.0,0.0,0.0,0.0,0.0,0.0,0.0,0.0,0.0,0.0,0.0,0.0,0.0,0.0,0.0,0.0,0.0,0.0,0.0,0.0,0.0,0.0,-0.1281,-0.2764,-0.4356,-0.4964,-0.5302,-0.5362,0.0,-0.4843,-0.3311,-0.2636,-0.2703,-0.3657,-0.1214,0.2691,0.8292,0.9265,1.0649,1.2819,1.2668,1.1884,1.0675,1.0264,0.9123,0.6889,0.6726,0.4734,0.1017,0.0322,0.0,0.0,0.0,0.0,0.0,0.0,0.0,0.0,0.0,0.0,0.0,0.0,0.0,0.0,0.0,0.0,0.0,0.6964,0.7331,0.764,0.8363,0.8926,0.8841,0.7602,0.8034,0.8,0.6648,0.6543,0.6306,0.5428,0.5411,0.5428,0.5428,0.5342,0.5335,0.5425,0.5338,0.5342,0.5376,0.5239,0.4973,0.4576,0.3084,0.2544,0.3151,0.4361,0.5106,0.5379,0.5564,0.5557,0.5428,0.5557,0.5557,0.5428,0.5428,0.5428,0.5428,0.5376,0.4628,0.3209,0.087,0.0,0.0,0.0,0.0,0.0,0.0,0.0,0.0,0.0,0.0,0.0,0.0,0.0,0.0,0.0,0.0,0.0,0.0,0.0,0.0,0.0,0.0,0.0,0.0,0.0,0.0,0.0,-0.0202,-0.0539,-0.0807,-0.2155,-0.3703,-0.5163,0.0,-0.5299,-0.5029,-0.2296,0.0674,0.3452,0.284,0.3914,0.7802,0.8908,1.0076,1.187,1.2856,1.2511,1.0629,0.9506,0.8281,0.6737,0.6779,0.6446,0.5733,0.1876,0.0,0.0,0.0,0.0,0.0,0.0,0.0,0.0,0.0,0.0,0.0,0.0,0.0,0.0,0.0,0.0,0.0,0.6487,0.7089,0.7733,0.8322,0.8533,0.8626,0.8692,0.8094,0.7506,0.711,0.6427,0.5818,0.5442,0.5369,0.5426,0.5586,0.5528,0.5515,0.5593,0.545,0.5428,0.5369,0.5369,0.5376,0.5386,0.457,0.4161,0.4159,0.497,0.5376,0.5369,0.5428,0.5428,0.5428,0.5428,0.5428,0.5428,0.5428,0.5428,0.5428,0.5372,0.5036,0.4425,0.3351,0.1688,0.0,0.0,0.0,0.0,0.0,0.0,0.0,0.0,0.0,0.0,0.0,0.0,0.0,0.0,0.0,0.0,0.0,0.0,0.0,0.0,0.0,0.0,0.0,0.0,0.0,0.0,0.0,0.0,0.0,0.0223,0.0,0.0886,-0.1076,-0.2499,-0.2499,-0.0135,0.2499,0.5171,0.4663,0.5529,0.8859,0.9243,1.0212,1.2387,1.2624,1.2018,1.0552,0.8748,0.7507,0.6959,0.6959,0.6959,0.6956,0.4801,0.2443,0.0,0.0,0.0,0.0,0.0,0.0,0.0,0.0,0.0,0.0,0.0,0.0,0.0,0.0,0.0,0.0,0.6585,0.7448,0.8289,0.8659,0.855,0.8573,0.9204,0.7973,0.7129,0.7377,0.6269,0.5471,0.5623,0.5535,0.5555,0.5783,0.5701,0.5684,0.5793,0.5589,0.545,0.5416,0.5449,0.5432,0.5376,0.5382,0.5382,0.5376,0.5376,0.5369,0.5428,0.5428,0.5428,0.5428,0.5428,0.5428,0.5428,0.5428,0.5428,0.5428,0.5372,0.5376,0.5376,0.5386,0.3689,0.1205,0.0877,0.0745,0.0748,0.0753,0.041,0.0204,0.1165,0.1459,0.1262,0.0275,0.0,0.0,0.0,0.0,0.0214,0.1234,0.0707,0.0,0.0,0.0,0.0,0.0,0.0,0.0,0.0,0.0,0.027,0.1146,0.0,0.4405,0.0,0.3502,0.1383,0.128,0.2089,0.3381,0.5222,0.5456,0.6531,0.9152,0.9324,1.0336,1.2721,1.2265,1.1319,1.0113,0.8142,0.7051,0.7139,0.7139,0.7139,0.7139,0.7139,0.5176,0.1613,0.0539,0.0,0.0,0.0,0.0,0.0,0.0,0.0,0.0,0.0,0.0,0.0,0.0,0.0,0.0,0.8255,0.9062,0.9585,0.9567,1.0039,0.9615,0.7279,0.7493,0.7381,0.596,0.5641,0.5627,0.5769,0.5776,0.5779,0.58,0.5793,0.5789,0.58,0.5779,0.5708,0.5579,0.5437,0.5428,0.5428,0.5428,0.5428,0.5428,0.5428,0.5428,0.5428,0.5428,0.5428,0.5428,0.5428,0.5428,0.5428,0.5428,0.5428,0.5428,0.5428,0.5428,0.5428,0.5376,0.5243,0.4785,0.338,0.2854,0.2865,0.2867,0.1563,0.07,0.4618,0.5854,0.5059,0.1134,0.0,0.0,0.0,0.0,0.0934,0.4891,0.2912,0.0,0.0,0.0,0.0,0.0,0.0,0.0,0.0,0.0,0.1079,0.4479,0.0,0.0,0.6298,0.604,0.5612,0.5087,0.3634,0.3439,0.5236,0.5568,0.6184,0.7437,0.8715,1.0171,1.1723,1.1906,1.0968,0.9033,0.768,0.6959,0.7139,0.7139,0.7139,0.7139,0.7139,0.6874,0.6425,0.197,0.0,0.0,0.0,0.0,0.0,0.0,0.0,0.0,0.0,0.0,0.0,0.0,0.0,0.0,0.8689,0.9391,0.9959,0.9959,1.0558,1.0749,0.9793,0.9456,0.8885,0.759,0.6974,0.6481,0.5998,0.6429,0.6592,0.6143,0.6581,0.664,0.6156,0.5996,0.5878,0.5728,0.5583,0.5504,0.5504,0.541,0.5428,0.5428,0.5428,0.5428,0.5428,0.5428,0.5428,0.5428,0.5428,0.5413,0.5498,0.5403,0.55,0.5607,0.548,0.5428,0.5498,0.5435,0.5372,0.5329,0.4852,0.4902,0.5072,0.5066,0.4565,0.3956,0.4215,0.4282,0.3977,0.2409,0.189,0.1957,0.1885,0.2912,0.4261,0.5865,0.5115,0.3595,0.2189,0.094,0.0,0.0,0.0,0.0,0.0,0.0,0.1214,0.4824,0.0,0.6026,0.61,0.6099,0.6096,0.5945,0.518,0.4906,0.5704,0.5771,0.6222,0.7329,0.8726,1.0159,1.1594,1.1292,1.0076,0.7871,0.7415,0.7231,0.7323,0.7323,0.7323,0.7415,0.7415,0.7326,0.7234,0.5445,0.2943,0.0,0.0,0.0,0.0,0.0,0.0,0.0,0.0,0.0,0.0,0.0,0.0,0.0,0.9394,1.0131,1.0651,1.0651,1.1069,1.1286,1.1005,1.0447,0.9782,0.8862,0.8232,0.7517,0.6678,0.7102,0.713,0.6395,0.684,0.6897,0.6331,0.6162,0.6013,0.581,0.5708,0.5644,0.5613,0.5508,0.5423,0.5428,0.5428,0.5428,0.5428,0.5428,0.5428,0.5428,0.5428,0.5447,0.5586,0.5525,0.5579,0.5775,0.5587,0.5559,0.5578,0.5552,0.5477,0.5471,0.5741,0.5965,0.6219,0.6309,0.6331,0.6072,0.4535,0.4094,0.4103,0.4075,0.4074,0.4068,0.4086,0.5202,0.6318,0.6318,0.6291,0.5944,0.4453,0.2973,0.1568,0.0236,0.0,0.0,0.0,0.0,0.0993,0.4136,0.531,0.5855,0.6017,0.6022,0.6099,0.618,0.5971,0.586,0.593,0.593,0.6259,0.7026,0.8768,1.0274,1.1337,1.0579,0.9164,0.7143,0.7323,0.7417,0.7424,0.7424,0.7519,0.7611,0.7611,0.7519,0.7424,0.7516,0.5638,0.2315,0.0706,0.0,0.0,0.0,0.0,0.0,0.0,0.0,0.0,0.0,0.0,0.0,1.0789,1.1405,1.1877,1.1877,1.163,1.1086,1.0251,1.0113,0.9845,0.9228,0.9108,0.8753,0.7918,0.7783,0.7403,0.6412,0.6338,0.6338,0.6338,0.6338,0.6125,0.582,0.5803,0.5759,0.5594,0.5587,0.5559,0.5428,0.5428,0.5428,0.5428,0.5428,0.5428,0.5428,0.5428,0.5447,0.5596,0.5593,0.5653,0.583,0.5822,0.5686,0.561,0.5745,0.5711,0.563,0.5925,0.603,0.6054,0.621,0.6322,0.631,0.6307,0.6278,0.6278,0.6264,0.6271,0.6281,0.6291,0.6278,0.6338,0.6338,0.6338,0.6338,0.6338,0.6278,0.5107,0.0941,0.0,0.0,0.0,0.0,0.0707,0.2755,0.4618,0.5859,0.6017,0.618,0.6257,0.6022,0.6018,0.5941,0.5783,0.6099,0.6342,0.6268,0.8859,1.0455,1.0611,0.9479,0.8332,0.7143,0.7323,0.7431,0.7624,0.763,0.763,0.763,0.763,0.763,0.763,0.7633,0.763,0.7329,0.2214,0.0,0.0,0.0,0.0,0.0,0.0,0.0101,0.0101,0.0,0.0,0.0,1.2181,1.2388,1.2552,1.2772,1.2559,1.2277,1.2048,1.1806,1.1101,0.9616,0.9286,0.8903,0.8026,0.7859,0.794,0.8345,0.8421,0.8124,0.7382,0.674,0.6377,0.6129,0.6043,0.5954,0.5849,0.5667,0.5628,0.5701,0.5568,0.5568,0.5701,0.5568,0.5568,0.5701,0.5498,0.5593,0.5847,0.5684,0.5735,0.5954,0.5757,0.5683,0.5722,0.5684,0.5688,0.5766,0.5959,0.603,0.6054,0.621,0.6311,0.6283,0.6328,0.6268,0.6268,0.6264,0.6264,0.6345,0.643,0.6426,0.6419,0.6338,0.6338,0.6338,0.6338,0.6268,0.5954,0.4691,0.2035,0.0,0.0,0.2438,0.4101,0.3229,0.4822,0.6132,0.6234,0.6338,0.6419,0.6342,0.6419,0.6419,0.6338,0.65,0.6596,0.6583,0.8213,0.9303,0.9392,0.9117,0.8424,0.7323,0.7415,0.7618,0.773,0.7733,0.7836,0.7836,0.7836,0.7836,0.7836,0.7939,0.7935,0.7736,0.4236,0.1697,0.0,0.0,0.0,0.0404,0.4152,0.5583,0.5379,0.3542,0.2832,0.2832,1.2893,1.2926,1.2986,1.318,1.3053,1.2926,1.2926,1.2779,1.2254,1.1082,1.0895,1.0467,0.9577,0.9399,0.9398,0.9606,0.9622,0.9361,0.8763,0.8276,0.7671,0.7104,0.6957,0.6659,0.6018,0.5828,0.5741,0.5774,0.5741,0.5718,0.5785,0.5734,0.5752,0.5778,0.5623,0.5681,0.5911,0.5771,0.5779,0.5915,0.5775,0.5785,0.5809,0.5852,0.5871,0.5911,0.6064,0.6122,0.6135,0.623,0.6338,0.6338,0.6338,0.6315,0.6386,0.6344,0.6434,0.6489,0.6532,0.6588,0.6544,0.6495,0.6434,0.645,0.6489,0.6428,0.6419,0.6419,0.438,0.2349,0.1414,0.3308,0.4894,0.4477,0.5485,0.6419,0.6419,0.6461,0.6607,0.6607,0.6648,0.6677,0.6586,0.6692,0.7014,0.757,0.7918,0.8352,0.8878,0.8516,0.8055,0.7415,0.7563,0.7672,0.7832,0.7836,0.7939,0.8038,0.8038,0.8038,0.8038,0.8038,0.8038,0.7942,0.6247,0.4036,0.1617,0.1617,0.1617,0.1921,0.5172,0.7107,0.7805,0.616,0.5548,0.5548,1.324,1.3253,1.326,1.3287,1.3267,1.3253,1.3253,1.3227,1.3141,1.3081,1.3061,1.273,1.1858,1.1668,1.1284,1.0551,1.042,1.0344,1.0344,1.0261,0.969,0.8456,0.8508,0.7901,0.6417,0.6126,0.5989,0.5858,0.5838,0.586,0.5857,0.5821,0.5842,0.5869,0.5796,0.5835,0.5854,0.5796,0.5821,0.5844,0.5905,0.595,0.5851,0.6176,0.6162,0.6067,0.621,0.6338,0.6338,0.6338,0.6338,0.6338,0.6338,0.6396,0.6495,0.6493,0.6602,0.6716,0.6699,0.6725,0.6736,0.6702,0.6736,0.6738,0.6681,0.6739,0.6677,0.6652,0.6585,0.5949,0.382,0.3403,0.4086,0.6028,0.65,0.6599,0.657,0.6628,0.6688,0.6688,0.675,0.6718,0.6728,0.6868,0.7415,0.8701,0.7779,0.7598,0.8701,0.7875,0.7439,0.7406,0.7657,0.7836,0.7836,0.7939,0.8038,0.8038,0.8038,0.8038,0.8038,0.8038,0.8038,0.8038,0.8038,0.6645,0.4351,0.4351,0.4351,0.4351,0.4351,0.5849,0.8038,0.8038,0.8038,0.8038,1.3507,1.3547,1.3621,1.3854,1.3707,1.3547,1.3547,1.3353,1.2961,1.2255,1.2109,1.198,1.1846,1.1042,1.1067,1.2428,1.1863,1.1349,1.1349,1.072,1.0183,0.9743,0.9857,0.9757,0.9271,0.7247,0.6196,0.6218,0.6036,0.6022,0.618,0.6033,0.6046,0.6146,0.5898,0.5967,0.6186,0.5917,0.5854,0.5928,0.588,0.5885,0.595,0.6033,0.6135,0.6213,0.6247,0.6338,0.6338,0.6338,0.6338,0.6338,0.6338,0.6396,0.6481,0.6502,0.659,0.676,0.6855,0.6896,0.6896,0.7007,0.7044,0.6966,0.6763,0.6723,0.6716,0.6678,0.6685,0.6599,0.6082,0.5921,0.6035,0.6581,0.6581,0.6586,0.6796,0.688,0.6868,0.6868,0.694,0.7,0.6858,0.7139,0.7415,0.769,0.7598,0.7598,0.7871,0.769,0.764,0.7731,0.777,0.7836,0.7939,0.7939,0.8038,0.8038,0.8038,0.8038,0.8038,0.8038,0.8038,0.8038,0.8038,0.7643,0.7144,0.7144,0.7144,0.7144,0.7144,0.7444,0.8038,0.8038,0.8038,0.8038,1.3828,1.3854,1.3908,1.4062,1.3961,1.3854,1.3854,1.3728,1.3428,1.2977,1.2876,1.2839,1.2977,1.2389,1.2468,1.3539,1.3156,1.2856,1.2856,1.2391,1.1832,1.1101,1.1237,1.0947,1.024,0.8931,0.8179,0.7949,0.7708,0.7382,0.6983,0.6902,0.6659,0.6261,0.6099,0.6099,0.616,0.5998,0.5908,0.5885,0.5916,0.596,0.6012,0.6093,0.619,0.6338,0.6338,0.6338,0.6338,0.6338,0.6338,0.6278,0.6373,0.6505,0.6572,0.6709,0.6749,0.6936,0.6987,0.7059,0.7184,0.7243,0.7323,0.7234,0.6959,0.6902,0.6853,0.6896,0.6959,0.6959,0.6868,0.68,0.6756,0.6787,0.6743,0.6703,0.6916,0.6959,0.6959,0.6959,0.7051,0.7139,0.7143,0.7326,0.7538,0.7453,0.8149,0.8539,0.8539,0.8636,0.8703,0.8748,0.8244,0.7939,0.8038,0.8038,0.8038,0.8038,0.8038,0.8038,0.8038,0.8038,0.8038,0.8038,0.8038,0.8038,0.8038,0.8038,0.8038,0.8038,0.8038,0.8038,0.8038,0.8038,0.8038,0.8038,1.4088,1.4088,1.4088,1.4088,1.4088,1.4088,1.4088,1.4088,1.4088,1.4088,1.4088,1.4088,1.4088,1.4088,1.4088,1.4088,1.4088,1.4088,1.4088,1.4088,1.3607,1.2481,1.2572,1.2018,1.0911,1.0916,1.0587,0.9766,0.9515,0.8942,0.8128,0.8095,0.7545,0.6578,0.6578,0.6342,0.6022,0.6022,0.5969,0.5913,0.5982,0.6022,0.6099,0.6257,0.6338,0.6338,0.6338,0.6373,0.6332,0.6397,0.64,0.6366,0.6529,0.6654,0.6787,0.6853,0.7031,0.7139,0.7143,0.7234,0.7439,0.7455,0.7483,0.7483,0.7292,0.7214,0.7143,0.7143,0.7143,0.7139,0.7051,0.6959,0.689,0.6823,0.6824,0.6871,0.6959,0.7051,0.7143,0.7143,0.7143,0.7272,0.7379,0.7573,0.7695,0.8001,0.8759,0.9359,0.9616,0.9513,0.9533,0.9482,0.8553,0.8038,0.8038,0.8038,0.8038,0.8038,0.8038,0.8038,0.8038,0.8038,0.8038,0.8038,0.8038,0.8038,0.8038,0.8038,0.8038,0.8038,0.8038,0.8038,0.8038,0.8038,0.8038,0.8038,1.4088,1.4088,1.4088,1.4088,1.4088,1.4088,1.4088,1.4088,1.4088,1.4088,1.4088,1.4088,1.4088,1.4088,1.4088,1.4088,1.4088,1.4088,1.4088,1.4088,1.399,1.3802,1.3893,1.3795,1.3607,1.3322,1.217,1.0159,0.9835,0.9596,0.9442,0.9224,0.8526,0.7626,0.7626,0.7064,0.6261,0.6099,0.6056,0.6225,0.6066,0.6099,0.6261,0.6261,0.6342,0.65,0.65,0.6586,0.6627,0.663,0.6658,0.6647,0.6671,0.678,0.6905,0.686,0.6957,0.7143,0.7323,0.7415,0.7451,0.7588,0.7615,0.7615,0.7517,0.7516,0.7507,0.7507,0.7415,0.7415,0.7507,0.7143,0.7024,0.7302,0.7088,0.6959,0.7051,0.7231,0.7326,0.7326,0.7507,0.7535,0.7566,0.7717,0.8255,0.9375,0.866,0.8659,0.9823,0.8905,0.8218,0.824,0.8041,0.8038,0.8038,0.8038,0.8038,0.8038,0.8038,0.8038,0.8038,0.8038,0.8038,0.8038,0.8038,0.8038,0.8038,0.8038,0.8038,0.8038,0.8038,0.8038,0.8038,0.8038,0.8038,0.8038,1.4088,1.4088,1.4088,1.4088,1.4088,1.4088,1.4088,1.4088,1.4088,1.4088,1.4088,1.4179,1.4284,1.4284,1.4277,1.4088,1.4088,1.4088,1.4088,1.4088,1.4179,1.4284,1.4179,1.4179,1.4284,1.3997,1.3361,1.2399,1.1872,1.1307,1.0501,0.9921,0.9095,0.7983,0.7407,0.6902,0.6419,0.6419,0.6419,0.65,0.6419,0.6419,0.65,0.65,0.6578,0.6581,0.6581,0.664,0.6675,0.6721,0.6665,0.6699,0.6817,0.6875,0.6959,0.7126,0.7248,0.7323,0.7507,0.7573,0.761,0.7671,0.7733,0.7836,0.7836,0.7834,0.7743,0.7645,0.7547,0.7543,0.7571,0.7417,0.7533,0.8399,0.7871,0.7595,0.8332,0.7875,0.7545,0.7506,0.7645,0.7746,0.7707,0.8553,0.8965,0.8763,0.9641,1.0475,1.103,1.0515,1.0485,1.126,0.99,0.9072,0.9072,0.835,0.8038,0.8038,0.8038,0.8038,0.8038,0.8038,0.8038,0.8038,0.8038,0.8038,0.8038,0.8038,0.8038,0.8038,0.8038,0.8038,0.8038,0.8038,0.8038,0.8038]}]]